<?xml version="1.0" encoding="UTF-8" standalone="no" ?>
<gpx xmlns="http://www.topografix.com/GPX/1/1" xmlns:xsi="http://www.w3.org/2001/XMLSchema-instance" xsi:schemaLocation="http://www.topografix.com/GPX/1/1 http://www.topografix.com/GPX/1/1/gpx.xsd" version="1.1" creator="VisuGPX - https://www.visugpx.com">
  <metadata>
    <name>VTT - Mouans-Sartoux</name>
    <desc><![CDATA[VTT - Mouans-Sartoux
Sortie after TAF]]></desc>
  </metadata>
  <trk>
    <name><![CDATA[2017-07-11T15:17:22Z]]></name>
    <trkseg>
      <trkpt lat="43.61045" lon="6.95301">
        <ele>166</ele>
        <time>2017-07-11T15:17:22Z</time>
      </trkpt>
      <trkpt lat="43.61045" lon="6.95301">
        <ele>166</ele>
        <time>2017-07-11T15:17:33Z</time>
      </trkpt>
      <trkpt lat="43.61045" lon="6.95301">
        <ele>166.7999878</ele>
        <time>2017-07-11T15:17:42Z</time>
      </trkpt>
      <trkpt lat="43.61045" lon="6.95301">
        <ele>166.7999878</ele>
        <time>2017-07-11T15:17:50Z</time>
      </trkpt>
      <trkpt lat="43.61044" lon="6.95302">
        <ele>167.2000122</ele>
        <time>2017-07-11T15:17:52Z</time>
      </trkpt>
      <trkpt lat="43.61043" lon="6.95302">
        <ele>167.5999756</ele>
        <time>2017-07-11T15:17:57Z</time>
      </trkpt>
      <trkpt lat="43.61043" lon="6.95302">
        <ele>167.5999756</ele>
        <time>2017-07-11T15:18:10Z</time>
      </trkpt>
      <trkpt lat="43.61043" lon="6.95302">
        <ele>167.5999756</ele>
        <time>2017-07-11T15:18:20Z</time>
      </trkpt>
      <trkpt lat="43.61043" lon="6.95302">
        <ele>167.4000244</ele>
        <time>2017-07-11T15:18:33Z</time>
      </trkpt>
      <trkpt lat="43.61043" lon="6.95302">
        <ele>167.4000244</ele>
        <time>2017-07-11T15:18:46Z</time>
      </trkpt>
      <trkpt lat="43.61043" lon="6.95302">
        <ele>167.4000244</ele>
        <time>2017-07-11T15:19:02Z</time>
      </trkpt>
      <trkpt lat="43.61043" lon="6.95302">
        <ele>167.4000244</ele>
        <time>2017-07-11T15:19:16Z</time>
      </trkpt>
      <trkpt lat="43.61043" lon="6.95302">
        <ele>167.4000244</ele>
        <time>2017-07-11T15:19:27Z</time>
      </trkpt>
      <trkpt lat="43.61043" lon="6.95302">
        <ele>168.4000244</ele>
        <time>2017-07-11T15:19:34Z</time>
      </trkpt>
      <trkpt lat="43.61042" lon="6.95302">
        <ele>169.5999756</ele>
        <time>2017-07-11T15:19:35Z</time>
      </trkpt>
      <trkpt lat="43.6104" lon="6.95302">
        <ele>171.4000244</ele>
        <time>2017-07-11T15:19:37Z</time>
      </trkpt>
      <trkpt lat="43.6104" lon="6.95302">
        <ele>172.5999756</ele>
        <time>2017-07-11T15:19:38Z</time>
      </trkpt>
      <trkpt lat="43.61039" lon="6.95303">
        <ele>173.5999756</ele>
        <time>2017-07-11T15:19:39Z</time>
      </trkpt>
      <trkpt lat="43.61038" lon="6.95304">
        <ele>174</ele>
        <time>2017-07-11T15:19:40Z</time>
      </trkpt>
      <trkpt lat="43.61037" lon="6.95307">
        <ele>175.2000122</ele>
        <time>2017-07-11T15:19:42Z</time>
      </trkpt>
      <trkpt lat="43.61036" lon="6.95308">
        <ele>175.5999756</ele>
        <time>2017-07-11T15:19:43Z</time>
      </trkpt>
      <trkpt lat="43.61035" lon="6.95311">
        <ele>176.4000244</ele>
        <time>2017-07-11T15:19:45Z</time>
      </trkpt>
      <trkpt lat="43.6103" lon="6.95319">
        <ele>178</ele>
        <time>2017-07-11T15:19:48Z</time>
      </trkpt>
      <trkpt lat="43.61024" lon="6.95326">
        <ele>179</ele>
        <time>2017-07-11T15:19:50Z</time>
      </trkpt>
      <trkpt lat="43.61016" lon="6.95331">
        <ele>179.4000244</ele>
        <time>2017-07-11T15:19:53Z</time>
      </trkpt>
      <trkpt lat="43.61012" lon="6.95335">
        <ele>180.2000122</ele>
        <time>2017-07-11T15:19:58Z</time>
      </trkpt>
      <trkpt lat="43.61013" lon="6.95335">
        <ele>180.2000122</ele>
        <time>2017-07-11T15:19:59Z</time>
      </trkpt>
      <trkpt lat="43.61015" lon="6.95332">
        <ele>179</ele>
        <time>2017-07-11T15:20:01Z</time>
      </trkpt>
      <trkpt lat="43.61016" lon="6.95331">
        <ele>178.4000244</ele>
        <time>2017-07-11T15:20:02Z</time>
      </trkpt>
      <trkpt lat="43.61022" lon="6.95326">
        <ele>177.5999756</ele>
        <time>2017-07-11T15:20:05Z</time>
      </trkpt>
      <trkpt lat="43.61026" lon="6.95323">
        <ele>177</ele>
        <time>2017-07-11T15:20:07Z</time>
      </trkpt>
      <trkpt lat="43.61031" lon="6.95318">
        <ele>176.4000244</ele>
        <time>2017-07-11T15:20:09Z</time>
      </trkpt>
      <trkpt lat="43.6104" lon="6.9531">
        <ele>175.2000122</ele>
        <time>2017-07-11T15:20:13Z</time>
      </trkpt>
      <trkpt lat="43.61041" lon="6.95311">
        <ele>174.5999756</ele>
        <time>2017-07-11T15:20:18Z</time>
      </trkpt>
      <trkpt lat="43.6105" lon="6.95319">
        <ele>174.5999756</ele>
        <time>2017-07-11T15:20:26Z</time>
      </trkpt>
      <trkpt lat="43.61048" lon="6.95316">
        <ele>174.4000244</ele>
        <time>2017-07-11T15:20:33Z</time>
      </trkpt>
      <trkpt lat="43.61045" lon="6.95311">
        <ele>174.2000122</ele>
        <time>2017-07-11T15:20:38Z</time>
      </trkpt>
      <trkpt lat="43.61044" lon="6.9531">
        <ele>174</ele>
        <time>2017-07-11T15:20:44Z</time>
      </trkpt>
      <trkpt lat="43.61041" lon="6.95311">
        <ele>173.2000122</ele>
        <time>2017-07-11T15:20:56Z</time>
      </trkpt>
      <trkpt lat="43.61041" lon="6.95311">
        <ele>173.2000122</ele>
        <time>2017-07-11T15:21:09Z</time>
      </trkpt>
      <trkpt lat="43.61041" lon="6.95311">
        <ele>173.2000122</ele>
        <time>2017-07-11T15:21:22Z</time>
      </trkpt>
      <trkpt lat="43.6104" lon="6.9531">
        <ele>173</ele>
        <time>2017-07-11T15:21:23Z</time>
      </trkpt>
      <trkpt lat="43.6104" lon="6.95304">
        <ele>172.5999756</ele>
        <time>2017-07-11T15:21:29Z</time>
      </trkpt>
      <trkpt lat="43.61039" lon="6.95307">
        <ele>173.4000244</ele>
        <time>2017-07-11T15:21:30Z</time>
      </trkpt>
      <trkpt lat="43.61038" lon="6.95308">
        <ele>174.2000122</ele>
        <time>2017-07-11T15:21:32Z</time>
      </trkpt>
      <trkpt lat="43.61038" lon="6.95307">
        <ele>175</ele>
        <time>2017-07-11T15:21:33Z</time>
      </trkpt>
      <trkpt lat="43.61037" lon="6.95308">
        <ele>175.5999756</ele>
        <time>2017-07-11T15:21:34Z</time>
      </trkpt>
      <trkpt lat="43.61036" lon="6.95311">
        <ele>177.2000122</ele>
        <time>2017-07-11T15:21:36Z</time>
      </trkpt>
      <trkpt lat="43.61036" lon="6.95314">
        <ele>177.4000244</ele>
        <time>2017-07-11T15:21:37Z</time>
      </trkpt>
      <trkpt lat="43.61035" lon="6.95315">
        <ele>178</ele>
        <time>2017-07-11T15:21:38Z</time>
      </trkpt>
      <trkpt lat="43.61034" lon="6.95317">
        <ele>178</ele>
        <time>2017-07-11T15:21:39Z</time>
      </trkpt>
      <trkpt lat="43.61029" lon="6.95325">
        <ele>177.4000244</ele>
        <time>2017-07-11T15:21:42Z</time>
      </trkpt>
      <trkpt lat="43.61028" lon="6.95328">
        <ele>177.2000122</ele>
        <time>2017-07-11T15:21:43Z</time>
      </trkpt>
      <trkpt lat="43.6102" lon="6.95339">
        <ele>177.5999756</ele>
        <time>2017-07-11T15:21:48Z</time>
      </trkpt>
      <trkpt lat="43.61019" lon="6.95338">
        <ele>178.2000122</ele>
        <time>2017-07-11T15:21:51Z</time>
      </trkpt>
      <trkpt lat="43.61019" lon="6.95338">
        <ele>178.2000122</ele>
        <time>2017-07-11T15:21:55Z</time>
      </trkpt>
      <trkpt lat="43.61019" lon="6.95338">
        <ele>178.2000122</ele>
        <time>2017-07-11T15:22:08Z</time>
      </trkpt>
      <trkpt lat="43.61018" lon="6.95339">
        <ele>178.2000122</ele>
        <time>2017-07-11T15:22:13Z</time>
      </trkpt>
      <trkpt lat="43.61018" lon="6.95343">
        <ele>177.2000122</ele>
        <time>2017-07-11T15:22:15Z</time>
      </trkpt>
      <trkpt lat="43.61019" lon="6.95343">
        <ele>176.2000122</ele>
        <time>2017-07-11T15:22:16Z</time>
      </trkpt>
      <trkpt lat="43.6102" lon="6.95342">
        <ele>175.4000244</ele>
        <time>2017-07-11T15:22:17Z</time>
      </trkpt>
      <trkpt lat="43.61022" lon="6.9534">
        <ele>174.7999878</ele>
        <time>2017-07-11T15:22:18Z</time>
      </trkpt>
      <trkpt lat="43.61025" lon="6.95334">
        <ele>174.4000244</ele>
        <time>2017-07-11T15:22:20Z</time>
      </trkpt>
      <trkpt lat="43.61027" lon="6.9533">
        <ele>174.2000122</ele>
        <time>2017-07-11T15:22:21Z</time>
      </trkpt>
      <trkpt lat="43.6103" lon="6.95324">
        <ele>174</ele>
        <time>2017-07-11T15:22:23Z</time>
      </trkpt>
      <trkpt lat="43.61033" lon="6.95312">
        <ele>173.5999756</ele>
        <time>2017-07-11T15:22:28Z</time>
      </trkpt>
      <trkpt lat="43.61033" lon="6.95308">
        <ele>173.7999878</ele>
        <time>2017-07-11T15:22:30Z</time>
      </trkpt>
      <trkpt lat="43.61028" lon="6.95299">
        <ele>174.4000244</ele>
        <time>2017-07-11T15:22:34Z</time>
      </trkpt>
      <trkpt lat="43.61028" lon="6.95292">
        <ele>173.5999756</ele>
        <time>2017-07-11T15:22:37Z</time>
      </trkpt>
      <trkpt lat="43.61028" lon="6.9529">
        <ele>173</ele>
        <time>2017-07-11T15:22:38Z</time>
      </trkpt>
      <trkpt lat="43.61029" lon="6.95288">
        <ele>172.4000244</ele>
        <time>2017-07-11T15:22:39Z</time>
      </trkpt>
      <trkpt lat="43.61031" lon="6.95285">
        <ele>171.5999756</ele>
        <time>2017-07-11T15:22:40Z</time>
      </trkpt>
      <trkpt lat="43.61036" lon="6.95279">
        <ele>170.5999756</ele>
        <time>2017-07-11T15:22:43Z</time>
      </trkpt>
      <trkpt lat="43.6104" lon="6.95277">
        <ele>170.4000244</ele>
        <time>2017-07-11T15:22:45Z</time>
      </trkpt>
      <trkpt lat="43.61041" lon="6.95278">
        <ele>170.4000244</ele>
        <time>2017-07-11T15:22:46Z</time>
      </trkpt>
      <trkpt lat="43.61042" lon="6.95282">
        <ele>170</ele>
        <time>2017-07-11T15:22:48Z</time>
      </trkpt>
      <trkpt lat="43.6104" lon="6.95286">
        <ele>169.7999878</ele>
        <time>2017-07-11T15:22:49Z</time>
      </trkpt>
      <trkpt lat="43.61032" lon="6.95292">
        <ele>169.5999756</ele>
        <time>2017-07-11T15:22:51Z</time>
      </trkpt>
      <trkpt lat="43.61029" lon="6.95293">
        <ele>169.4000244</ele>
        <time>2017-07-11T15:22:52Z</time>
      </trkpt>
      <trkpt lat="43.61026" lon="6.95294">
        <ele>169.2000122</ele>
        <time>2017-07-11T15:22:53Z</time>
      </trkpt>
      <trkpt lat="43.61024" lon="6.95298">
        <ele>169.2000122</ele>
        <time>2017-07-11T15:22:54Z</time>
      </trkpt>
      <trkpt lat="43.61024" lon="6.95305">
        <ele>169.2000122</ele>
        <time>2017-07-11T15:22:56Z</time>
      </trkpt>
      <trkpt lat="43.61028" lon="6.95313">
        <ele>168.5999756</ele>
        <time>2017-07-11T15:22:58Z</time>
      </trkpt>
      <trkpt lat="43.6103" lon="6.95313">
        <ele>168.2000122</ele>
        <time>2017-07-11T15:22:59Z</time>
      </trkpt>
      <trkpt lat="43.61032" lon="6.95312">
        <ele>168</ele>
        <time>2017-07-11T15:23:00Z</time>
      </trkpt>
      <trkpt lat="43.61034" lon="6.95311">
        <ele>167</ele>
        <time>2017-07-11T15:23:02Z</time>
      </trkpt>
      <trkpt lat="43.61036" lon="6.9531">
        <ele>166.2000122</ele>
        <time>2017-07-11T15:23:04Z</time>
      </trkpt>
      <trkpt lat="43.61037" lon="6.95309">
        <ele>167</ele>
        <time>2017-07-11T15:23:09Z</time>
      </trkpt>
      <trkpt lat="43.61037" lon="6.95309">
        <ele>167</ele>
        <time>2017-07-11T15:23:21Z</time>
      </trkpt>
      <trkpt lat="43.61037" lon="6.95309">
        <ele>167</ele>
        <time>2017-07-11T15:23:29Z</time>
      </trkpt>
      <trkpt lat="43.61034" lon="6.95307">
        <ele>168.4000244</ele>
        <time>2017-07-11T15:23:32Z</time>
      </trkpt>
      <trkpt lat="43.61033" lon="6.95308">
        <ele>169.2000122</ele>
        <time>2017-07-11T15:23:33Z</time>
      </trkpt>
      <trkpt lat="43.61031" lon="6.95309">
        <ele>169.5999756</ele>
        <time>2017-07-11T15:23:34Z</time>
      </trkpt>
      <trkpt lat="43.61029" lon="6.95318">
        <ele>170.4000244</ele>
        <time>2017-07-11T15:23:37Z</time>
      </trkpt>
      <trkpt lat="43.61027" lon="6.95321">
        <ele>170.7999878</ele>
        <time>2017-07-11T15:23:38Z</time>
      </trkpt>
      <trkpt lat="43.61026" lon="6.95323">
        <ele>171</ele>
        <time>2017-07-11T15:23:39Z</time>
      </trkpt>
      <trkpt lat="43.61024" lon="6.95324">
        <ele>171.4000244</ele>
        <time>2017-07-11T15:23:40Z</time>
      </trkpt>
      <trkpt lat="43.61023" lon="6.95325">
        <ele>171.5999756</ele>
        <time>2017-07-11T15:23:41Z</time>
      </trkpt>
      <trkpt lat="43.61021" lon="6.95326">
        <ele>172</ele>
        <time>2017-07-11T15:23:42Z</time>
      </trkpt>
      <trkpt lat="43.61021" lon="6.95326">
        <ele>172</ele>
        <time>2017-07-11T15:23:45Z</time>
      </trkpt>
      <trkpt lat="43.61021" lon="6.95326">
        <ele>172</ele>
        <time>2017-07-11T15:23:56Z</time>
      </trkpt>
      <trkpt lat="43.61021" lon="6.95326">
        <ele>172</ele>
        <time>2017-07-11T15:24:07Z</time>
      </trkpt>
      <trkpt lat="43.61021" lon="6.95326">
        <ele>172</ele>
        <time>2017-07-11T15:24:19Z</time>
      </trkpt>
      <trkpt lat="43.6102" lon="6.95327">
        <ele>171.5999756</ele>
        <time>2017-07-11T15:24:35Z</time>
      </trkpt>
      <trkpt lat="43.6102" lon="6.95327">
        <ele>171.5999756</ele>
        <time>2017-07-11T15:24:48Z</time>
      </trkpt>
      <trkpt lat="43.6102" lon="6.95327">
        <ele>171.5999756</ele>
        <time>2017-07-11T15:24:55Z</time>
      </trkpt>
      <trkpt lat="43.6102" lon="6.95331">
        <ele>171</ele>
        <time>2017-07-11T15:25:00Z</time>
      </trkpt>
      <trkpt lat="43.61022" lon="6.95332">
        <ele>170.7999878</ele>
        <time>2017-07-11T15:25:01Z</time>
      </trkpt>
      <trkpt lat="43.61027" lon="6.95326">
        <ele>170.7999878</ele>
        <time>2017-07-11T15:25:03Z</time>
      </trkpt>
      <trkpt lat="43.61032" lon="6.95311">
        <ele>170.7999878</ele>
        <time>2017-07-11T15:25:07Z</time>
      </trkpt>
      <trkpt lat="43.61031" lon="6.95309">
        <ele>171.2000122</ele>
        <time>2017-07-11T15:25:11Z</time>
      </trkpt>
      <trkpt lat="43.61031" lon="6.95309">
        <ele>171.2000122</ele>
        <time>2017-07-11T15:25:20Z</time>
      </trkpt>
      <trkpt lat="43.61031" lon="6.95308">
        <ele>171.2000122</ele>
        <time>2017-07-11T15:25:25Z</time>
      </trkpt>
      <trkpt lat="43.61031" lon="6.95308">
        <ele>171.2000122</ele>
        <time>2017-07-11T15:25:32Z</time>
      </trkpt>
      <trkpt lat="43.61031" lon="6.95308">
        <ele>171.2000122</ele>
        <time>2017-07-11T15:25:42Z</time>
      </trkpt>
      <trkpt lat="43.61031" lon="6.95308">
        <ele>171.2000122</ele>
        <time>2017-07-11T15:25:51Z</time>
      </trkpt>
      <trkpt lat="43.61031" lon="6.95307">
        <ele>171.2000122</ele>
        <time>2017-07-11T15:25:59Z</time>
      </trkpt>
      <trkpt lat="43.61028" lon="6.95304">
        <ele>171.5999756</ele>
        <time>2017-07-11T15:26:06Z</time>
      </trkpt>
      <trkpt lat="43.61026" lon="6.95303">
        <ele>171.7999878</ele>
        <time>2017-07-11T15:26:07Z</time>
      </trkpt>
      <trkpt lat="43.61024" lon="6.95298">
        <ele>171.7999878</ele>
        <time>2017-07-11T15:26:10Z</time>
      </trkpt>
      <trkpt lat="43.61024" lon="6.95296">
        <ele>171.7999878</ele>
        <time>2017-07-11T15:26:11Z</time>
      </trkpt>
      <trkpt lat="43.61024" lon="6.95296">
        <ele>171.4000244</ele>
        <time>2017-07-11T15:26:12Z</time>
      </trkpt>
      <trkpt lat="43.61023" lon="6.95295">
        <ele>171.2000122</ele>
        <time>2017-07-11T15:26:19Z</time>
      </trkpt>
      <trkpt lat="43.61023" lon="6.95295">
        <ele>171.2000122</ele>
        <time>2017-07-11T15:26:30Z</time>
      </trkpt>
      <trkpt lat="43.61023" lon="6.95295">
        <ele>171.2000122</ele>
        <time>2017-07-11T15:26:42Z</time>
      </trkpt>
      <trkpt lat="43.61024" lon="6.95292">
        <ele>171</ele>
        <time>2017-07-11T15:26:52Z</time>
      </trkpt>
      <trkpt lat="43.61031" lon="6.95281">
        <ele>171</ele>
        <time>2017-07-11T15:26:55Z</time>
      </trkpt>
      <trkpt lat="43.61047" lon="6.95265">
        <ele>171</ele>
        <time>2017-07-11T15:26:59Z</time>
      </trkpt>
      <trkpt lat="43.61051" lon="6.95263">
        <ele>171</ele>
        <time>2017-07-11T15:27:00Z</time>
      </trkpt>
      <trkpt lat="43.61053" lon="6.9526">
        <ele>171</ele>
        <time>2017-07-11T15:27:01Z</time>
      </trkpt>
      <trkpt lat="43.61055" lon="6.95254">
        <ele>171.4000244</ele>
        <time>2017-07-11T15:27:03Z</time>
      </trkpt>
      <trkpt lat="43.61054" lon="6.95239">
        <ele>173</ele>
        <time>2017-07-11T15:27:07Z</time>
      </trkpt>
      <trkpt lat="43.61049" lon="6.95229">
        <ele>173.4000244</ele>
        <time>2017-07-11T15:27:09Z</time>
      </trkpt>
      <trkpt lat="43.61042" lon="6.95221">
        <ele>174.2000122</ele>
        <time>2017-07-11T15:27:11Z</time>
      </trkpt>
      <trkpt lat="43.61038" lon="6.95219">
        <ele>174.4000244</ele>
        <time>2017-07-11T15:27:12Z</time>
      </trkpt>
      <trkpt lat="43.61034" lon="6.95217">
        <ele>173.7999878</ele>
        <time>2017-07-11T15:27:15Z</time>
      </trkpt>
      <trkpt lat="43.61033" lon="6.95215">
        <ele>174</ele>
        <time>2017-07-11T15:27:22Z</time>
      </trkpt>
      <trkpt lat="43.61031" lon="6.95213">
        <ele>173.7999878</ele>
        <time>2017-07-11T15:27:31Z</time>
      </trkpt>
      <trkpt lat="43.61018" lon="6.952">
        <ele>173.2000122</ele>
        <time>2017-07-11T15:27:36Z</time>
      </trkpt>
      <trkpt lat="43.61001" lon="6.95181">
        <ele>171.7999878</ele>
        <time>2017-07-11T15:27:41Z</time>
      </trkpt>
      <trkpt lat="43.60993" lon="6.95174">
        <ele>170.7999878</ele>
        <time>2017-07-11T15:27:43Z</time>
      </trkpt>
      <trkpt lat="43.60989" lon="6.9517">
        <ele>170.4000244</ele>
        <time>2017-07-11T15:27:44Z</time>
      </trkpt>
      <trkpt lat="43.60981" lon="6.95162">
        <ele>169.7999878</ele>
        <time>2017-07-11T15:27:46Z</time>
      </trkpt>
      <trkpt lat="43.60973" lon="6.95157">
        <ele>169.4000244</ele>
        <time>2017-07-11T15:27:48Z</time>
      </trkpt>
      <trkpt lat="43.60968" lon="6.95154">
        <ele>169.5999756</ele>
        <time>2017-07-11T15:27:49Z</time>
      </trkpt>
      <trkpt lat="43.6094" lon="6.95142">
        <ele>169.2000122</ele>
        <time>2017-07-11T15:27:55Z</time>
      </trkpt>
      <trkpt lat="43.60931" lon="6.95139">
        <ele>169</ele>
        <time>2017-07-11T15:27:57Z</time>
      </trkpt>
      <trkpt lat="43.60922" lon="6.95137">
        <ele>169</ele>
        <time>2017-07-11T15:27:59Z</time>
      </trkpt>
      <trkpt lat="43.60915" lon="6.95131">
        <ele>169</ele>
        <time>2017-07-11T15:28:01Z</time>
      </trkpt>
      <trkpt lat="43.60903" lon="6.9513">
        <ele>168.7999878</ele>
        <time>2017-07-11T15:28:04Z</time>
      </trkpt>
      <trkpt lat="43.60899" lon="6.95129">
        <ele>168.7999878</ele>
        <time>2017-07-11T15:28:05Z</time>
      </trkpt>
      <trkpt lat="43.60894" lon="6.95128">
        <ele>168.7999878</ele>
        <time>2017-07-11T15:28:06Z</time>
      </trkpt>
      <trkpt lat="43.60883" lon="6.95122">
        <ele>169.2000122</ele>
        <time>2017-07-11T15:28:09Z</time>
      </trkpt>
      <trkpt lat="43.60864" lon="6.95114">
        <ele>169.4000244</ele>
        <time>2017-07-11T15:28:15Z</time>
      </trkpt>
      <trkpt lat="43.60848" lon="6.95106">
        <ele>169.2000122</ele>
        <time>2017-07-11T15:28:21Z</time>
      </trkpt>
      <trkpt lat="43.60832" lon="6.95101">
        <ele>168.4000244</ele>
        <time>2017-07-11T15:28:26Z</time>
      </trkpt>
      <trkpt lat="43.60814" lon="6.95096">
        <ele>168.5999756</ele>
        <time>2017-07-11T15:28:32Z</time>
      </trkpt>
      <trkpt lat="43.60812" lon="6.95092">
        <ele>168.2000122</ele>
        <time>2017-07-11T15:28:34Z</time>
      </trkpt>
      <trkpt lat="43.60812" lon="6.95084">
        <ele>168</ele>
        <time>2017-07-11T15:28:36Z</time>
      </trkpt>
      <trkpt lat="43.60813" lon="6.95073">
        <ele>168</ele>
        <time>2017-07-11T15:28:38Z</time>
      </trkpt>
      <trkpt lat="43.60816" lon="6.95052">
        <ele>168.7999878</ele>
        <time>2017-07-11T15:28:42Z</time>
      </trkpt>
      <trkpt lat="43.6082" lon="6.9502">
        <ele>168.4000244</ele>
        <time>2017-07-11T15:28:48Z</time>
      </trkpt>
      <trkpt lat="43.6082" lon="6.95014">
        <ele>168.4000244</ele>
        <time>2017-07-11T15:28:49Z</time>
      </trkpt>
      <trkpt lat="43.60821" lon="6.94985">
        <ele>167.7999878</ele>
        <time>2017-07-11T15:28:53Z</time>
      </trkpt>
      <trkpt lat="43.60823" lon="6.94967">
        <ele>167</ele>
        <time>2017-07-11T15:28:55Z</time>
      </trkpt>
      <trkpt lat="43.60825" lon="6.94944">
        <ele>165.5999756</ele>
        <time>2017-07-11T15:28:57Z</time>
      </trkpt>
      <trkpt lat="43.60825" lon="6.94932">
        <ele>164.7999878</ele>
        <time>2017-07-11T15:28:58Z</time>
      </trkpt>
      <trkpt lat="43.60824" lon="6.9492">
        <ele>164.2000122</ele>
        <time>2017-07-11T15:28:59Z</time>
      </trkpt>
      <trkpt lat="43.60824" lon="6.94895">
        <ele>163</ele>
        <time>2017-07-11T15:29:01Z</time>
      </trkpt>
      <trkpt lat="43.60824" lon="6.9487">
        <ele>161.4000244</ele>
        <time>2017-07-11T15:29:03Z</time>
      </trkpt>
      <trkpt lat="43.60822" lon="6.94847">
        <ele>160.2000122</ele>
        <time>2017-07-11T15:29:05Z</time>
      </trkpt>
      <trkpt lat="43.60817" lon="6.94828">
        <ele>158.2000122</ele>
        <time>2017-07-11T15:29:07Z</time>
      </trkpt>
      <trkpt lat="43.60814" lon="6.94818">
        <ele>157.2000122</ele>
        <time>2017-07-11T15:29:08Z</time>
      </trkpt>
      <trkpt lat="43.60808" lon="6.94804">
        <ele>155.4000244</ele>
        <time>2017-07-11T15:29:10Z</time>
      </trkpt>
      <trkpt lat="43.60804" lon="6.948">
        <ele>154.4000244</ele>
        <time>2017-07-11T15:29:11Z</time>
      </trkpt>
      <trkpt lat="43.60799" lon="6.94798">
        <ele>153.5999756</ele>
        <time>2017-07-11T15:29:12Z</time>
      </trkpt>
      <trkpt lat="43.60788" lon="6.94799">
        <ele>152</ele>
        <time>2017-07-11T15:29:14Z</time>
      </trkpt>
      <trkpt lat="43.60783" lon="6.94803">
        <ele>150.7999878</ele>
        <time>2017-07-11T15:29:16Z</time>
      </trkpt>
      <trkpt lat="43.60782" lon="6.94803">
        <ele>150</ele>
        <time>2017-07-11T15:29:17Z</time>
      </trkpt>
      <trkpt lat="43.60781" lon="6.94804">
        <ele>149.4000244</ele>
        <time>2017-07-11T15:29:18Z</time>
      </trkpt>
      <trkpt lat="43.6078" lon="6.94804">
        <ele>148.7999878</ele>
        <time>2017-07-11T15:29:20Z</time>
      </trkpt>
      <trkpt lat="43.60778" lon="6.94804">
        <ele>148</ele>
        <time>2017-07-11T15:29:22Z</time>
      </trkpt>
      <trkpt lat="43.60773" lon="6.94805">
        <ele>146.7999878</ele>
        <time>2017-07-11T15:29:24Z</time>
      </trkpt>
      <trkpt lat="43.60765" lon="6.94806">
        <ele>145.4000244</ele>
        <time>2017-07-11T15:29:27Z</time>
      </trkpt>
      <trkpt lat="43.60761" lon="6.94806">
        <ele>144.7999878</ele>
        <time>2017-07-11T15:29:28Z</time>
      </trkpt>
      <trkpt lat="43.60757" lon="6.94806">
        <ele>144.4000244</ele>
        <time>2017-07-11T15:29:29Z</time>
      </trkpt>
      <trkpt lat="43.60745" lon="6.94805">
        <ele>143</ele>
        <time>2017-07-11T15:29:32Z</time>
      </trkpt>
      <trkpt lat="43.60744" lon="6.94804">
        <ele>142.5999756</ele>
        <time>2017-07-11T15:29:33Z</time>
      </trkpt>
      <trkpt lat="43.60742" lon="6.94803">
        <ele>142</ele>
        <time>2017-07-11T15:29:35Z</time>
      </trkpt>
      <trkpt lat="43.60742" lon="6.94803">
        <ele>142</ele>
        <time>2017-07-11T15:29:38Z</time>
      </trkpt>
      <trkpt lat="43.60741" lon="6.94799">
        <ele>141</ele>
        <time>2017-07-11T15:29:40Z</time>
      </trkpt>
      <trkpt lat="43.60741" lon="6.94796">
        <ele>140.4000244</ele>
        <time>2017-07-11T15:29:41Z</time>
      </trkpt>
      <trkpt lat="43.60742" lon="6.94789">
        <ele>139</ele>
        <time>2017-07-11T15:29:44Z</time>
      </trkpt>
      <trkpt lat="43.6074" lon="6.94782">
        <ele>138</ele>
        <time>2017-07-11T15:29:46Z</time>
      </trkpt>
      <trkpt lat="43.60738" lon="6.94773">
        <ele>136.7999878</ele>
        <time>2017-07-11T15:29:48Z</time>
      </trkpt>
      <trkpt lat="43.60737" lon="6.94763">
        <ele>135.7999878</ele>
        <time>2017-07-11T15:29:50Z</time>
      </trkpt>
      <trkpt lat="43.60736" lon="6.94758">
        <ele>135.2000122</ele>
        <time>2017-07-11T15:29:51Z</time>
      </trkpt>
      <trkpt lat="43.60736" lon="6.94754">
        <ele>134.7999878</ele>
        <time>2017-07-11T15:29:52Z</time>
      </trkpt>
      <trkpt lat="43.60735" lon="6.94747">
        <ele>134</ele>
        <time>2017-07-11T15:29:53Z</time>
      </trkpt>
      <trkpt lat="43.60735" lon="6.9474">
        <ele>133.4000244</ele>
        <time>2017-07-11T15:29:54Z</time>
      </trkpt>
      <trkpt lat="43.60734" lon="6.94726">
        <ele>132</ele>
        <time>2017-07-11T15:29:56Z</time>
      </trkpt>
      <trkpt lat="43.60732" lon="6.94712">
        <ele>131</ele>
        <time>2017-07-11T15:29:58Z</time>
      </trkpt>
      <trkpt lat="43.60729" lon="6.94696">
        <ele>129.7999878</ele>
        <time>2017-07-11T15:30:00Z</time>
      </trkpt>
      <trkpt lat="43.60726" lon="6.94679">
        <ele>128.5999756</ele>
        <time>2017-07-11T15:30:02Z</time>
      </trkpt>
      <trkpt lat="43.60722" lon="6.94649">
        <ele>127.2000122</ele>
        <time>2017-07-11T15:30:05Z</time>
      </trkpt>
      <trkpt lat="43.60718" lon="6.94628">
        <ele>126.2000122</ele>
        <time>2017-07-11T15:30:07Z</time>
      </trkpt>
      <trkpt lat="43.60714" lon="6.9461">
        <ele>125.2000122</ele>
        <time>2017-07-11T15:30:09Z</time>
      </trkpt>
      <trkpt lat="43.60711" lon="6.94604">
        <ele>124.5999756</ele>
        <time>2017-07-11T15:30:10Z</time>
      </trkpt>
      <trkpt lat="43.60701" lon="6.94597">
        <ele>123.4000244</ele>
        <time>2017-07-11T15:30:12Z</time>
      </trkpt>
      <trkpt lat="43.60688" lon="6.94601">
        <ele>122</ele>
        <time>2017-07-11T15:30:14Z</time>
      </trkpt>
      <trkpt lat="43.60682" lon="6.94606">
        <ele>121</ele>
        <time>2017-07-11T15:30:15Z</time>
      </trkpt>
      <trkpt lat="43.60676" lon="6.94612">
        <ele>120.2000122</ele>
        <time>2017-07-11T15:30:16Z</time>
      </trkpt>
      <trkpt lat="43.60664" lon="6.94625">
        <ele>118.4000244</ele>
        <time>2017-07-11T15:30:18Z</time>
      </trkpt>
      <trkpt lat="43.60652" lon="6.94639">
        <ele>116.5999756</ele>
        <time>2017-07-11T15:30:20Z</time>
      </trkpt>
      <trkpt lat="43.60646" lon="6.94646">
        <ele>116</ele>
        <time>2017-07-11T15:30:21Z</time>
      </trkpt>
      <trkpt lat="43.6064" lon="6.94652">
        <ele>115.2000122</ele>
        <time>2017-07-11T15:30:22Z</time>
      </trkpt>
      <trkpt lat="43.60627" lon="6.94668">
        <ele>113.5999756</ele>
        <time>2017-07-11T15:30:24Z</time>
      </trkpt>
      <trkpt lat="43.60621" lon="6.94674">
        <ele>112.7999878</ele>
        <time>2017-07-11T15:30:25Z</time>
      </trkpt>
      <trkpt lat="43.60614" lon="6.94677">
        <ele>112.2000122</ele>
        <time>2017-07-11T15:30:26Z</time>
      </trkpt>
      <trkpt lat="43.60609" lon="6.94677">
        <ele>111.7999878</ele>
        <time>2017-07-11T15:30:27Z</time>
      </trkpt>
      <trkpt lat="43.60601" lon="6.94673">
        <ele>111</ele>
        <time>2017-07-11T15:30:29Z</time>
      </trkpt>
      <trkpt lat="43.60597" lon="6.94671">
        <ele>110.5999756</ele>
        <time>2017-07-11T15:30:30Z</time>
      </trkpt>
      <trkpt lat="43.60595" lon="6.94666">
        <ele>110</ele>
        <time>2017-07-11T15:30:31Z</time>
      </trkpt>
      <trkpt lat="43.60594" lon="6.94659">
        <ele>109.5999756</ele>
        <time>2017-07-11T15:30:32Z</time>
      </trkpt>
      <trkpt lat="43.60593" lon="6.94638">
        <ele>108.2000122</ele>
        <time>2017-07-11T15:30:35Z</time>
      </trkpt>
      <trkpt lat="43.60592" lon="6.94623">
        <ele>107.2000122</ele>
        <time>2017-07-11T15:30:37Z</time>
      </trkpt>
      <trkpt lat="43.60591" lon="6.94616">
        <ele>106.7999878</ele>
        <time>2017-07-11T15:30:38Z</time>
      </trkpt>
      <trkpt lat="43.60588" lon="6.94588">
        <ele>105.7999878</ele>
        <time>2017-07-11T15:30:42Z</time>
      </trkpt>
      <trkpt lat="43.60588" lon="6.94577">
        <ele>104.7999878</ele>
        <time>2017-07-11T15:30:44Z</time>
      </trkpt>
      <trkpt lat="43.60587" lon="6.94572">
        <ele>104.5999756</ele>
        <time>2017-07-11T15:30:45Z</time>
      </trkpt>
      <trkpt lat="43.60583" lon="6.94556">
        <ele>104.7999878</ele>
        <time>2017-07-11T15:30:49Z</time>
      </trkpt>
      <trkpt lat="43.60578" lon="6.94549">
        <ele>105.4000244</ele>
        <time>2017-07-11T15:30:51Z</time>
      </trkpt>
      <trkpt lat="43.60569" lon="6.94546">
        <ele>105.5999756</ele>
        <time>2017-07-11T15:30:53Z</time>
      </trkpt>
      <trkpt lat="43.60565" lon="6.94547">
        <ele>105.7999878</ele>
        <time>2017-07-11T15:30:54Z</time>
      </trkpt>
      <trkpt lat="43.60556" lon="6.94551">
        <ele>107.4000244</ele>
        <time>2017-07-11T15:30:56Z</time>
      </trkpt>
      <trkpt lat="43.60549" lon="6.94555">
        <ele>108.5999756</ele>
        <time>2017-07-11T15:30:58Z</time>
      </trkpt>
      <trkpt lat="43.60543" lon="6.94559">
        <ele>109.5999756</ele>
        <time>2017-07-11T15:31:00Z</time>
      </trkpt>
      <trkpt lat="43.60537" lon="6.94562">
        <ele>110.4000244</ele>
        <time>2017-07-11T15:31:02Z</time>
      </trkpt>
      <trkpt lat="43.60534" lon="6.94565">
        <ele>110.7999878</ele>
        <time>2017-07-11T15:31:03Z</time>
      </trkpt>
      <trkpt lat="43.60524" lon="6.94575">
        <ele>111.7999878</ele>
        <time>2017-07-11T15:31:07Z</time>
      </trkpt>
      <trkpt lat="43.60521" lon="6.94578">
        <ele>112.5999756</ele>
        <time>2017-07-11T15:31:08Z</time>
      </trkpt>
      <trkpt lat="43.60519" lon="6.9458">
        <ele>113.2000122</ele>
        <time>2017-07-11T15:31:09Z</time>
      </trkpt>
      <trkpt lat="43.60514" lon="6.94583">
        <ele>114.5999756</ele>
        <time>2017-07-11T15:31:11Z</time>
      </trkpt>
      <trkpt lat="43.60512" lon="6.94584">
        <ele>115.2000122</ele>
        <time>2017-07-11T15:31:12Z</time>
      </trkpt>
      <trkpt lat="43.60509" lon="6.94587">
        <ele>116</ele>
        <time>2017-07-11T15:31:13Z</time>
      </trkpt>
      <trkpt lat="43.60506" lon="6.9459">
        <ele>117.2000122</ele>
        <time>2017-07-11T15:31:15Z</time>
      </trkpt>
      <trkpt lat="43.60501" lon="6.94593">
        <ele>118.2000122</ele>
        <time>2017-07-11T15:31:17Z</time>
      </trkpt>
      <trkpt lat="43.605" lon="6.94595">
        <ele>118.5999756</ele>
        <time>2017-07-11T15:31:18Z</time>
      </trkpt>
      <trkpt lat="43.60496" lon="6.94597">
        <ele>119.5999756</ele>
        <time>2017-07-11T15:31:20Z</time>
      </trkpt>
      <trkpt lat="43.6049" lon="6.94602">
        <ele>121</ele>
        <time>2017-07-11T15:31:23Z</time>
      </trkpt>
      <trkpt lat="43.60486" lon="6.94606">
        <ele>121.7999878</ele>
        <time>2017-07-11T15:31:25Z</time>
      </trkpt>
      <trkpt lat="43.60484" lon="6.94608">
        <ele>122</ele>
        <time>2017-07-11T15:31:26Z</time>
      </trkpt>
      <trkpt lat="43.60472" lon="6.94618">
        <ele>123.2000122</ele>
        <time>2017-07-11T15:31:32Z</time>
      </trkpt>
      <trkpt lat="43.60463" lon="6.94625">
        <ele>124.4000244</ele>
        <time>2017-07-11T15:31:36Z</time>
      </trkpt>
      <trkpt lat="43.60455" lon="6.94631">
        <ele>125.2000122</ele>
        <time>2017-07-11T15:31:39Z</time>
      </trkpt>
      <trkpt lat="43.60452" lon="6.94633">
        <ele>125.7999878</ele>
        <time>2017-07-11T15:31:40Z</time>
      </trkpt>
      <trkpt lat="43.60439" lon="6.94641">
        <ele>127</ele>
        <time>2017-07-11T15:31:44Z</time>
      </trkpt>
      <trkpt lat="43.60436" lon="6.94642">
        <ele>127</ele>
        <time>2017-07-11T15:31:45Z</time>
      </trkpt>
      <trkpt lat="43.60416" lon="6.94651">
        <ele>127</ele>
        <time>2017-07-11T15:31:51Z</time>
      </trkpt>
      <trkpt lat="43.60408" lon="6.94662">
        <ele>126</ele>
        <time>2017-07-11T15:31:55Z</time>
      </trkpt>
      <trkpt lat="43.60406" lon="6.94663">
        <ele>125.7999878</ele>
        <time>2017-07-11T15:31:56Z</time>
      </trkpt>
      <trkpt lat="43.60401" lon="6.94671">
        <ele>124.7999878</ele>
        <time>2017-07-11T15:31:59Z</time>
      </trkpt>
      <trkpt lat="43.60399" lon="6.94672">
        <ele>124.2000122</ele>
        <time>2017-07-11T15:32:00Z</time>
      </trkpt>
      <trkpt lat="43.60392" lon="6.94674">
        <ele>123.5999756</ele>
        <time>2017-07-11T15:32:02Z</time>
      </trkpt>
      <trkpt lat="43.60388" lon="6.9468">
        <ele>123</ele>
        <time>2017-07-11T15:32:04Z</time>
      </trkpt>
      <trkpt lat="43.60385" lon="6.94686">
        <ele>122.7999878</ele>
        <time>2017-07-11T15:32:06Z</time>
      </trkpt>
      <trkpt lat="43.60377" lon="6.94697">
        <ele>123</ele>
        <time>2017-07-11T15:32:10Z</time>
      </trkpt>
      <trkpt lat="43.60367" lon="6.94711">
        <ele>123.7999878</ele>
        <time>2017-07-11T15:32:15Z</time>
      </trkpt>
      <trkpt lat="43.60366" lon="6.9472">
        <ele>124.5999756</ele>
        <time>2017-07-11T15:32:19Z</time>
      </trkpt>
      <trkpt lat="43.60362" lon="6.94723">
        <ele>125.2000122</ele>
        <time>2017-07-11T15:32:23Z</time>
      </trkpt>
      <trkpt lat="43.60361" lon="6.94723">
        <ele>125.2000122</ele>
        <time>2017-07-11T15:32:24Z</time>
      </trkpt>
      <trkpt lat="43.60358" lon="6.94724">
        <ele>125.4000244</ele>
        <time>2017-07-11T15:32:30Z</time>
      </trkpt>
      <trkpt lat="43.60358" lon="6.94724">
        <ele>125.4000244</ele>
        <time>2017-07-11T15:32:41Z</time>
      </trkpt>
      <trkpt lat="43.60355" lon="6.94725">
        <ele>125</ele>
        <time>2017-07-11T15:32:46Z</time>
      </trkpt>
      <trkpt lat="43.60355" lon="6.94725">
        <ele>125</ele>
        <time>2017-07-11T15:32:55Z</time>
      </trkpt>
      <trkpt lat="43.60349" lon="6.94727">
        <ele>125.4000244</ele>
        <time>2017-07-11T15:33:01Z</time>
      </trkpt>
      <trkpt lat="43.60331" lon="6.94731">
        <ele>125.2000122</ele>
        <time>2017-07-11T15:33:06Z</time>
      </trkpt>
      <trkpt lat="43.60327" lon="6.94731">
        <ele>125</ele>
        <time>2017-07-11T15:33:07Z</time>
      </trkpt>
      <trkpt lat="43.60313" lon="6.94727">
        <ele>124.7999878</ele>
        <time>2017-07-11T15:33:10Z</time>
      </trkpt>
      <trkpt lat="43.60291" lon="6.94714">
        <ele>124.7999878</ele>
        <time>2017-07-11T15:33:15Z</time>
      </trkpt>
      <trkpt lat="43.6028" lon="6.94711">
        <ele>124.4000244</ele>
        <time>2017-07-11T15:33:17Z</time>
      </trkpt>
      <trkpt lat="43.6027" lon="6.94708">
        <ele>124.2000122</ele>
        <time>2017-07-11T15:33:19Z</time>
      </trkpt>
      <trkpt lat="43.60266" lon="6.94706">
        <ele>124</ele>
        <time>2017-07-11T15:33:20Z</time>
      </trkpt>
      <trkpt lat="43.60257" lon="6.94699">
        <ele>124</ele>
        <time>2017-07-11T15:33:24Z</time>
      </trkpt>
      <trkpt lat="43.60254" lon="6.94697">
        <ele>123.7999878</ele>
        <time>2017-07-11T15:33:25Z</time>
      </trkpt>
      <trkpt lat="43.60245" lon="6.94694">
        <ele>123.5999756</ele>
        <time>2017-07-11T15:33:28Z</time>
      </trkpt>
      <trkpt lat="43.60238" lon="6.94691">
        <ele>123.2000122</ele>
        <time>2017-07-11T15:33:30Z</time>
      </trkpt>
      <trkpt lat="43.60224" lon="6.94679">
        <ele>122.7999878</ele>
        <time>2017-07-11T15:33:35Z</time>
      </trkpt>
      <trkpt lat="43.60219" lon="6.94668">
        <ele>122.5999756</ele>
        <time>2017-07-11T15:33:38Z</time>
      </trkpt>
      <trkpt lat="43.60207" lon="6.94665">
        <ele>122.5999756</ele>
        <time>2017-07-11T15:33:42Z</time>
      </trkpt>
      <trkpt lat="43.60205" lon="6.94665">
        <ele>122.5999756</ele>
        <time>2017-07-11T15:33:43Z</time>
      </trkpt>
      <trkpt lat="43.60194" lon="6.94668">
        <ele>122.5999756</ele>
        <time>2017-07-11T15:33:50Z</time>
      </trkpt>
      <trkpt lat="43.60178" lon="6.94675">
        <ele>123.5999756</ele>
        <time>2017-07-11T15:33:56Z</time>
      </trkpt>
      <trkpt lat="43.60167" lon="6.94682">
        <ele>124.5999756</ele>
        <time>2017-07-11T15:34:00Z</time>
      </trkpt>
      <trkpt lat="43.60159" lon="6.94689">
        <ele>125.7999878</ele>
        <time>2017-07-11T15:34:03Z</time>
      </trkpt>
      <trkpt lat="43.60148" lon="6.94698">
        <ele>126.7999878</ele>
        <time>2017-07-11T15:34:07Z</time>
      </trkpt>
      <trkpt lat="43.60142" lon="6.94703">
        <ele>127.4000244</ele>
        <time>2017-07-11T15:34:09Z</time>
      </trkpt>
      <trkpt lat="43.60135" lon="6.9471">
        <ele>128</ele>
        <time>2017-07-11T15:34:12Z</time>
      </trkpt>
      <trkpt lat="43.60126" lon="6.94719">
        <ele>129.2000122</ele>
        <time>2017-07-11T15:34:16Z</time>
      </trkpt>
      <trkpt lat="43.60124" lon="6.9472">
        <ele>129.5999756</ele>
        <time>2017-07-11T15:34:17Z</time>
      </trkpt>
      <trkpt lat="43.6012" lon="6.94724">
        <ele>130.4000244</ele>
        <time>2017-07-11T15:34:19Z</time>
      </trkpt>
      <trkpt lat="43.60113" lon="6.9473">
        <ele>131.4000244</ele>
        <time>2017-07-11T15:34:23Z</time>
      </trkpt>
      <trkpt lat="43.60109" lon="6.94734">
        <ele>132.2000122</ele>
        <time>2017-07-11T15:34:25Z</time>
      </trkpt>
      <trkpt lat="43.60107" lon="6.94736">
        <ele>133</ele>
        <time>2017-07-11T15:34:26Z</time>
      </trkpt>
      <trkpt lat="43.60101" lon="6.94738">
        <ele>134.2000122</ele>
        <time>2017-07-11T15:34:28Z</time>
      </trkpt>
      <trkpt lat="43.60097" lon="6.94741">
        <ele>135.4000244</ele>
        <time>2017-07-11T15:34:30Z</time>
      </trkpt>
      <trkpt lat="43.60096" lon="6.94743">
        <ele>136.2000122</ele>
        <time>2017-07-11T15:34:31Z</time>
      </trkpt>
      <trkpt lat="43.60094" lon="6.94745">
        <ele>136.5999756</ele>
        <time>2017-07-11T15:34:32Z</time>
      </trkpt>
      <trkpt lat="43.60084" lon="6.9475">
        <ele>137.7999878</ele>
        <time>2017-07-11T15:34:37Z</time>
      </trkpt>
      <trkpt lat="43.60082" lon="6.94749">
        <ele>138</ele>
        <time>2017-07-11T15:34:38Z</time>
      </trkpt>
      <trkpt lat="43.60075" lon="6.9475">
        <ele>138.7999878</ele>
        <time>2017-07-11T15:34:41Z</time>
      </trkpt>
      <trkpt lat="43.60064" lon="6.9475">
        <ele>139.7999878</ele>
        <time>2017-07-11T15:34:47Z</time>
      </trkpt>
      <trkpt lat="43.60061" lon="6.94748">
        <ele>140</ele>
        <time>2017-07-11T15:34:49Z</time>
      </trkpt>
      <trkpt lat="43.60055" lon="6.94745">
        <ele>140.2000122</ele>
        <time>2017-07-11T15:34:52Z</time>
      </trkpt>
      <trkpt lat="43.60052" lon="6.94741">
        <ele>140.5999756</ele>
        <time>2017-07-11T15:34:54Z</time>
      </trkpt>
      <trkpt lat="43.60051" lon="6.94736">
        <ele>140.7999878</ele>
        <time>2017-07-11T15:34:56Z</time>
      </trkpt>
      <trkpt lat="43.60051" lon="6.94733">
        <ele>141</ele>
        <time>2017-07-11T15:34:57Z</time>
      </trkpt>
      <trkpt lat="43.60052" lon="6.94724">
        <ele>141</ele>
        <time>2017-07-11T15:35:00Z</time>
      </trkpt>
      <trkpt lat="43.60052" lon="6.94722">
        <ele>141.2000122</ele>
        <time>2017-07-11T15:35:01Z</time>
      </trkpt>
      <trkpt lat="43.60053" lon="6.94718">
        <ele>141.7999878</ele>
        <time>2017-07-11T15:35:04Z</time>
      </trkpt>
      <trkpt lat="43.60054" lon="6.94718">
        <ele>142</ele>
        <time>2017-07-11T15:35:06Z</time>
      </trkpt>
      <trkpt lat="43.60055" lon="6.94718">
        <ele>142.2000122</ele>
        <time>2017-07-11T15:35:10Z</time>
      </trkpt>
      <trkpt lat="43.60055" lon="6.94716">
        <ele>142</ele>
        <time>2017-07-11T15:35:19Z</time>
      </trkpt>
      <trkpt lat="43.60057" lon="6.94714">
        <ele>142.2000122</ele>
        <time>2017-07-11T15:35:21Z</time>
      </trkpt>
      <trkpt lat="43.60059" lon="6.94708">
        <ele>142</ele>
        <time>2017-07-11T15:35:25Z</time>
      </trkpt>
      <trkpt lat="43.6006" lon="6.94707">
        <ele>141.7999878</ele>
        <time>2017-07-11T15:35:32Z</time>
      </trkpt>
      <trkpt lat="43.60063" lon="6.94698">
        <ele>141.2000122</ele>
        <time>2017-07-11T15:35:37Z</time>
      </trkpt>
      <trkpt lat="43.60064" lon="6.94695">
        <ele>141</ele>
        <time>2017-07-11T15:35:38Z</time>
      </trkpt>
      <trkpt lat="43.60068" lon="6.94682">
        <ele>140</ele>
        <time>2017-07-11T15:35:41Z</time>
      </trkpt>
      <trkpt lat="43.60071" lon="6.94674">
        <ele>139.7999878</ele>
        <time>2017-07-11T15:35:43Z</time>
      </trkpt>
      <trkpt lat="43.60078" lon="6.94655">
        <ele>139.4000244</ele>
        <time>2017-07-11T15:35:48Z</time>
      </trkpt>
      <trkpt lat="43.60085" lon="6.94634">
        <ele>139.5999756</ele>
        <time>2017-07-11T15:35:53Z</time>
      </trkpt>
      <trkpt lat="43.60091" lon="6.94616">
        <ele>140.4000244</ele>
        <time>2017-07-11T15:35:59Z</time>
      </trkpt>
      <trkpt lat="43.60102" lon="6.946">
        <ele>140.5999756</ele>
        <time>2017-07-11T15:36:05Z</time>
      </trkpt>
      <trkpt lat="43.6011" lon="6.94588">
        <ele>141</ele>
        <time>2017-07-11T15:36:09Z</time>
      </trkpt>
      <trkpt lat="43.60117" lon="6.94578">
        <ele>141.2000122</ele>
        <time>2017-07-11T15:36:13Z</time>
      </trkpt>
      <trkpt lat="43.60129" lon="6.94563">
        <ele>141.7999878</ele>
        <time>2017-07-11T15:36:20Z</time>
      </trkpt>
      <trkpt lat="43.60138" lon="6.94549">
        <ele>142</ele>
        <time>2017-07-11T15:36:26Z</time>
      </trkpt>
      <trkpt lat="43.60139" lon="6.94547">
        <ele>142.2000122</ele>
        <time>2017-07-11T15:36:27Z</time>
      </trkpt>
      <trkpt lat="43.60149" lon="6.94533">
        <ele>143</ele>
        <time>2017-07-11T15:36:33Z</time>
      </trkpt>
      <trkpt lat="43.60157" lon="6.94521">
        <ele>143.4000244</ele>
        <time>2017-07-11T15:36:38Z</time>
      </trkpt>
      <trkpt lat="43.60162" lon="6.94511">
        <ele>144</ele>
        <time>2017-07-11T15:36:43Z</time>
      </trkpt>
      <trkpt lat="43.60164" lon="6.94505">
        <ele>144.2000122</ele>
        <time>2017-07-11T15:36:45Z</time>
      </trkpt>
      <trkpt lat="43.60169" lon="6.94493">
        <ele>145.4000244</ele>
        <time>2017-07-11T15:36:49Z</time>
      </trkpt>
      <trkpt lat="43.6017" lon="6.94485">
        <ele>145.5999756</ele>
        <time>2017-07-11T15:36:51Z</time>
      </trkpt>
      <trkpt lat="43.60172" lon="6.94474">
        <ele>145.2000122</ele>
        <time>2017-07-11T15:36:56Z</time>
      </trkpt>
      <trkpt lat="43.60172" lon="6.94473">
        <ele>145</ele>
        <time>2017-07-11T15:37:03Z</time>
      </trkpt>
      <trkpt lat="43.60172" lon="6.94473">
        <ele>145</ele>
        <time>2017-07-11T15:37:13Z</time>
      </trkpt>
      <trkpt lat="43.60175" lon="6.94473">
        <ele>145</ele>
        <time>2017-07-11T15:37:23Z</time>
      </trkpt>
      <trkpt lat="43.60187" lon="6.94473">
        <ele>145</ele>
        <time>2017-07-11T15:37:27Z</time>
      </trkpt>
      <trkpt lat="43.60203" lon="6.94471">
        <ele>144.5999756</ele>
        <time>2017-07-11T15:37:31Z</time>
      </trkpt>
      <trkpt lat="43.60207" lon="6.94469">
        <ele>144.2000122</ele>
        <time>2017-07-11T15:37:32Z</time>
      </trkpt>
      <trkpt lat="43.60219" lon="6.94461">
        <ele>143.4000244</ele>
        <time>2017-07-11T15:37:35Z</time>
      </trkpt>
      <trkpt lat="43.60222" lon="6.94457">
        <ele>143</ele>
        <time>2017-07-11T15:37:36Z</time>
      </trkpt>
      <trkpt lat="43.6023" lon="6.94447">
        <ele>142</ele>
        <time>2017-07-11T15:37:38Z</time>
      </trkpt>
      <trkpt lat="43.60238" lon="6.94438">
        <ele>140.7999878</ele>
        <time>2017-07-11T15:37:40Z</time>
      </trkpt>
      <trkpt lat="43.60254" lon="6.94428">
        <ele>139.4000244</ele>
        <time>2017-07-11T15:37:43Z</time>
      </trkpt>
      <trkpt lat="43.60262" lon="6.94415">
        <ele>138</ele>
        <time>2017-07-11T15:37:45Z</time>
      </trkpt>
      <trkpt lat="43.60269" lon="6.94402">
        <ele>136.7999878</ele>
        <time>2017-07-11T15:37:47Z</time>
      </trkpt>
      <trkpt lat="43.60273" lon="6.94396">
        <ele>136.4000244</ele>
        <time>2017-07-11T15:37:48Z</time>
      </trkpt>
      <trkpt lat="43.60282" lon="6.94383">
        <ele>135.5999756</ele>
        <time>2017-07-11T15:37:50Z</time>
      </trkpt>
      <trkpt lat="43.60299" lon="6.94366">
        <ele>134.2000122</ele>
        <time>2017-07-11T15:37:53Z</time>
      </trkpt>
      <trkpt lat="43.6031" lon="6.94354">
        <ele>133.2000122</ele>
        <time>2017-07-11T15:37:55Z</time>
      </trkpt>
      <trkpt lat="43.6032" lon="6.94342">
        <ele>132</ele>
        <time>2017-07-11T15:37:57Z</time>
      </trkpt>
      <trkpt lat="43.60324" lon="6.94336">
        <ele>131.5999756</ele>
        <time>2017-07-11T15:37:58Z</time>
      </trkpt>
      <trkpt lat="43.60329" lon="6.94333">
        <ele>131.2000122</ele>
        <time>2017-07-11T15:37:59Z</time>
      </trkpt>
      <trkpt lat="43.60333" lon="6.9433">
        <ele>130.7999878</ele>
        <time>2017-07-11T15:38:00Z</time>
      </trkpt>
      <trkpt lat="43.60341" lon="6.94323">
        <ele>130.2000122</ele>
        <time>2017-07-11T15:38:02Z</time>
      </trkpt>
      <trkpt lat="43.60348" lon="6.94315">
        <ele>129.5999756</ele>
        <time>2017-07-11T15:38:04Z</time>
      </trkpt>
      <trkpt lat="43.60357" lon="6.94303">
        <ele>129</ele>
        <time>2017-07-11T15:38:07Z</time>
      </trkpt>
      <trkpt lat="43.6037" lon="6.9429">
        <ele>129.2000122</ele>
        <time>2017-07-11T15:38:12Z</time>
      </trkpt>
      <trkpt lat="43.60377" lon="6.9429">
        <ele>130.2000122</ele>
        <time>2017-07-11T15:38:15Z</time>
      </trkpt>
      <trkpt lat="43.6038" lon="6.94294">
        <ele>130.5999756</ele>
        <time>2017-07-11T15:38:17Z</time>
      </trkpt>
      <trkpt lat="43.60388" lon="6.94305">
        <ele>130.2000122</ele>
        <time>2017-07-11T15:38:22Z</time>
      </trkpt>
      <trkpt lat="43.60392" lon="6.94305">
        <ele>130.5999756</ele>
        <time>2017-07-11T15:38:25Z</time>
      </trkpt>
      <trkpt lat="43.60401" lon="6.94307">
        <ele>130</ele>
        <time>2017-07-11T15:38:31Z</time>
      </trkpt>
      <trkpt lat="43.6041" lon="6.94312">
        <ele>129.2000122</ele>
        <time>2017-07-11T15:38:33Z</time>
      </trkpt>
      <trkpt lat="43.60415" lon="6.94315">
        <ele>128.5999756</ele>
        <time>2017-07-11T15:38:34Z</time>
      </trkpt>
      <trkpt lat="43.60419" lon="6.94318">
        <ele>128</ele>
        <time>2017-07-11T15:38:35Z</time>
      </trkpt>
      <trkpt lat="43.60425" lon="6.94325">
        <ele>127</ele>
        <time>2017-07-11T15:38:37Z</time>
      </trkpt>
      <trkpt lat="43.60427" lon="6.94327">
        <ele>126.4000244</ele>
        <time>2017-07-11T15:38:38Z</time>
      </trkpt>
      <trkpt lat="43.60429" lon="6.94328">
        <ele>125.7999878</ele>
        <time>2017-07-11T15:38:39Z</time>
      </trkpt>
      <trkpt lat="43.60433" lon="6.94327">
        <ele>124.5999756</ele>
        <time>2017-07-11T15:38:41Z</time>
      </trkpt>
      <trkpt lat="43.60436" lon="6.94326">
        <ele>124</ele>
        <time>2017-07-11T15:38:42Z</time>
      </trkpt>
      <trkpt lat="43.60439" lon="6.94325">
        <ele>123.2000122</ele>
        <time>2017-07-11T15:38:43Z</time>
      </trkpt>
      <trkpt lat="43.60446" lon="6.94323">
        <ele>121.7999878</ele>
        <time>2017-07-11T15:38:45Z</time>
      </trkpt>
      <trkpt lat="43.60453" lon="6.94321">
        <ele>120.5999756</ele>
        <time>2017-07-11T15:38:47Z</time>
      </trkpt>
      <trkpt lat="43.60457" lon="6.9432">
        <ele>120</ele>
        <time>2017-07-11T15:38:48Z</time>
      </trkpt>
      <trkpt lat="43.60461" lon="6.94318">
        <ele>119.2000122</ele>
        <time>2017-07-11T15:38:49Z</time>
      </trkpt>
      <trkpt lat="43.6047" lon="6.94314">
        <ele>117.7999878</ele>
        <time>2017-07-11T15:38:51Z</time>
      </trkpt>
      <trkpt lat="43.60478" lon="6.94312">
        <ele>116</ele>
        <time>2017-07-11T15:38:53Z</time>
      </trkpt>
      <trkpt lat="43.60483" lon="6.94311">
        <ele>115</ele>
        <time>2017-07-11T15:38:54Z</time>
      </trkpt>
      <trkpt lat="43.60488" lon="6.94312">
        <ele>114</ele>
        <time>2017-07-11T15:38:55Z</time>
      </trkpt>
      <trkpt lat="43.60495" lon="6.94315">
        <ele>112</ele>
        <time>2017-07-11T15:38:57Z</time>
      </trkpt>
      <trkpt lat="43.605" lon="6.94316">
        <ele>110.4000244</ele>
        <time>2017-07-11T15:38:59Z</time>
      </trkpt>
      <trkpt lat="43.60504" lon="6.94315">
        <ele>109</ele>
        <time>2017-07-11T15:39:01Z</time>
      </trkpt>
      <trkpt lat="43.60508" lon="6.94315">
        <ele>107.7999878</ele>
        <time>2017-07-11T15:39:03Z</time>
      </trkpt>
      <trkpt lat="43.60513" lon="6.94315">
        <ele>106.5999756</ele>
        <time>2017-07-11T15:39:05Z</time>
      </trkpt>
      <trkpt lat="43.60519" lon="6.94312">
        <ele>105.2000122</ele>
        <time>2017-07-11T15:39:07Z</time>
      </trkpt>
      <trkpt lat="43.60524" lon="6.94309">
        <ele>103.5999756</ele>
        <time>2017-07-11T15:39:09Z</time>
      </trkpt>
      <trkpt lat="43.6053" lon="6.94306">
        <ele>101.7999878</ele>
        <time>2017-07-11T15:39:11Z</time>
      </trkpt>
      <trkpt lat="43.60533" lon="6.94303">
        <ele>100.7999878</ele>
        <time>2017-07-11T15:39:12Z</time>
      </trkpt>
      <trkpt lat="43.60535" lon="6.94302">
        <ele>100</ele>
        <time>2017-07-11T15:39:13Z</time>
      </trkpt>
      <trkpt lat="43.60541" lon="6.94302">
        <ele>98.5999756</ele>
        <time>2017-07-11T15:39:15Z</time>
      </trkpt>
      <trkpt lat="43.60546" lon="6.94303">
        <ele>97.2000122</ele>
        <time>2017-07-11T15:39:17Z</time>
      </trkpt>
      <trkpt lat="43.60549" lon="6.94303">
        <ele>95.7999878</ele>
        <time>2017-07-11T15:39:19Z</time>
      </trkpt>
      <trkpt lat="43.60551" lon="6.94304">
        <ele>95.2000122</ele>
        <time>2017-07-11T15:39:20Z</time>
      </trkpt>
      <trkpt lat="43.60554" lon="6.94305">
        <ele>94.5999756</ele>
        <time>2017-07-11T15:39:21Z</time>
      </trkpt>
      <trkpt lat="43.60559" lon="6.94308">
        <ele>93</ele>
        <time>2017-07-11T15:39:23Z</time>
      </trkpt>
      <trkpt lat="43.60566" lon="6.94313">
        <ele>91.2000122</ele>
        <time>2017-07-11T15:39:25Z</time>
      </trkpt>
      <trkpt lat="43.60568" lon="6.94315">
        <ele>90.4000244</ele>
        <time>2017-07-11T15:39:26Z</time>
      </trkpt>
      <trkpt lat="43.6057" lon="6.94317">
        <ele>89.5999756</ele>
        <time>2017-07-11T15:39:27Z</time>
      </trkpt>
      <trkpt lat="43.60573" lon="6.94319">
        <ele>89</ele>
        <time>2017-07-11T15:39:28Z</time>
      </trkpt>
      <trkpt lat="43.60576" lon="6.94321">
        <ele>88.2000122</ele>
        <time>2017-07-11T15:39:29Z</time>
      </trkpt>
      <trkpt lat="43.60578" lon="6.94323">
        <ele>87.2000122</ele>
        <time>2017-07-11T15:39:30Z</time>
      </trkpt>
      <trkpt lat="43.60582" lon="6.94325">
        <ele>86.7999878</ele>
        <time>2017-07-11T15:39:31Z</time>
      </trkpt>
      <trkpt lat="43.60587" lon="6.94331">
        <ele>85</ele>
        <time>2017-07-11T15:39:33Z</time>
      </trkpt>
      <trkpt lat="43.60594" lon="6.94331">
        <ele>83</ele>
        <time>2017-07-11T15:39:35Z</time>
      </trkpt>
      <trkpt lat="43.60598" lon="6.94329">
        <ele>83</ele>
        <time>2017-07-11T15:39:36Z</time>
      </trkpt>
      <trkpt lat="43.60614" lon="6.94328">
        <ele>83</ele>
        <time>2017-07-11T15:39:39Z</time>
      </trkpt>
      <trkpt lat="43.60628" lon="6.94325">
        <ele>83</ele>
        <time>2017-07-11T15:39:41Z</time>
      </trkpt>
      <trkpt lat="43.60636" lon="6.94323">
        <ele>83</ele>
        <time>2017-07-11T15:39:43Z</time>
      </trkpt>
      <trkpt lat="43.6064" lon="6.94326">
        <ele>83</ele>
        <time>2017-07-11T15:39:46Z</time>
      </trkpt>
      <trkpt lat="43.60641" lon="6.94327">
        <ele>83</ele>
        <time>2017-07-11T15:39:53Z</time>
      </trkpt>
      <trkpt lat="43.60641" lon="6.94327">
        <ele>83</ele>
        <time>2017-07-11T15:40:03Z</time>
      </trkpt>
      <trkpt lat="43.60641" lon="6.94327">
        <ele>83</ele>
        <time>2017-07-11T15:40:19Z</time>
      </trkpt>
      <trkpt lat="43.60643" lon="6.94327">
        <ele>83.5999756</ele>
        <time>2017-07-11T15:40:41Z</time>
      </trkpt>
      <trkpt lat="43.60643" lon="6.94327">
        <ele>83.5999756</ele>
        <time>2017-07-11T15:40:58Z</time>
      </trkpt>
      <trkpt lat="43.60644" lon="6.94328">
        <ele>83.5999756</ele>
        <time>2017-07-11T15:41:17Z</time>
      </trkpt>
      <trkpt lat="43.60644" lon="6.94328">
        <ele>83.5999756</ele>
        <time>2017-07-11T15:41:33Z</time>
      </trkpt>
      <trkpt lat="43.60645" lon="6.94329">
        <ele>83.5999756</ele>
        <time>2017-07-11T15:41:53Z</time>
      </trkpt>
      <trkpt lat="43.60645" lon="6.94329">
        <ele>83.5999756</ele>
        <time>2017-07-11T15:42:14Z</time>
      </trkpt>
      <trkpt lat="43.60644" lon="6.9433">
        <ele>83.5999756</ele>
        <time>2017-07-11T15:42:18Z</time>
      </trkpt>
      <trkpt lat="43.60645" lon="6.94332">
        <ele>83.7999878</ele>
        <time>2017-07-11T15:42:20Z</time>
      </trkpt>
      <trkpt lat="43.60645" lon="6.94332">
        <ele>83.7999878</ele>
        <time>2017-07-11T15:42:29Z</time>
      </trkpt>
      <trkpt lat="43.60645" lon="6.94332">
        <ele>83.7999878</ele>
        <time>2017-07-11T15:42:39Z</time>
      </trkpt>
      <trkpt lat="43.60645" lon="6.94332">
        <ele>83.7999878</ele>
        <time>2017-07-11T15:42:51Z</time>
      </trkpt>
      <trkpt lat="43.60649" lon="6.94332">
        <ele>83.7999878</ele>
        <time>2017-07-11T15:42:55Z</time>
      </trkpt>
      <trkpt lat="43.60655" lon="6.94332">
        <ele>83.7999878</ele>
        <time>2017-07-11T15:42:57Z</time>
      </trkpt>
      <trkpt lat="43.6067" lon="6.94327">
        <ele>83.7999878</ele>
        <time>2017-07-11T15:43:01Z</time>
      </trkpt>
      <trkpt lat="43.60675" lon="6.94325">
        <ele>83.7999878</ele>
        <time>2017-07-11T15:43:02Z</time>
      </trkpt>
      <trkpt lat="43.60688" lon="6.94319">
        <ele>83.7999878</ele>
        <time>2017-07-11T15:43:04Z</time>
      </trkpt>
      <trkpt lat="43.60702" lon="6.94313">
        <ele>83.7999878</ele>
        <time>2017-07-11T15:43:06Z</time>
      </trkpt>
      <trkpt lat="43.60734" lon="6.94302">
        <ele>83.7999878</ele>
        <time>2017-07-11T15:43:11Z</time>
      </trkpt>
      <trkpt lat="43.60756" lon="6.94285">
        <ele>83.4000244</ele>
        <time>2017-07-11T15:43:15Z</time>
      </trkpt>
      <trkpt lat="43.6076" lon="6.94279">
        <ele>83.4000244</ele>
        <time>2017-07-11T15:43:16Z</time>
      </trkpt>
      <trkpt lat="43.60783" lon="6.94245">
        <ele>82</ele>
        <time>2017-07-11T15:43:21Z</time>
      </trkpt>
      <trkpt lat="43.60788" lon="6.94243">
        <ele>82.2000122</ele>
        <time>2017-07-11T15:43:22Z</time>
      </trkpt>
      <trkpt lat="43.608" lon="6.9424">
        <ele>81.2000122</ele>
        <time>2017-07-11T15:43:25Z</time>
      </trkpt>
      <trkpt lat="43.60802" lon="6.94239">
        <ele>80.7999878</ele>
        <time>2017-07-11T15:43:26Z</time>
      </trkpt>
      <trkpt lat="43.60803" lon="6.94236">
        <ele>79.4000244</ele>
        <time>2017-07-11T15:43:29Z</time>
      </trkpt>
      <trkpt lat="43.60803" lon="6.94234">
        <ele>78.7999878</ele>
        <time>2017-07-11T15:43:35Z</time>
      </trkpt>
      <trkpt lat="43.60803" lon="6.94234">
        <ele>78.2000122</ele>
        <time>2017-07-11T15:43:36Z</time>
      </trkpt>
      <trkpt lat="43.60801" lon="6.94234">
        <ele>77.7999878</ele>
        <time>2017-07-11T15:43:42Z</time>
      </trkpt>
      <trkpt lat="43.60801" lon="6.94233">
        <ele>77.2000122</ele>
        <time>2017-07-11T15:43:47Z</time>
      </trkpt>
      <trkpt lat="43.60801" lon="6.94233">
        <ele>77.2000122</ele>
        <time>2017-07-11T15:43:48Z</time>
      </trkpt>
      <trkpt lat="43.60801" lon="6.94233">
        <ele>76.7999878</ele>
        <time>2017-07-11T15:43:54Z</time>
      </trkpt>
      <trkpt lat="43.60801" lon="6.94233">
        <ele>76.7999878</ele>
        <time>2017-07-11T15:44:03Z</time>
      </trkpt>
      <trkpt lat="43.60801" lon="6.94233">
        <ele>76.7999878</ele>
        <time>2017-07-11T15:44:11Z</time>
      </trkpt>
      <trkpt lat="43.60802" lon="6.94229">
        <ele>75.7999878</ele>
        <time>2017-07-11T15:44:20Z</time>
      </trkpt>
      <trkpt lat="43.60803" lon="6.94225">
        <ele>73.4000244</ele>
        <time>2017-07-11T15:44:21Z</time>
      </trkpt>
      <trkpt lat="43.60806" lon="6.9422">
        <ele>71.7999878</ele>
        <time>2017-07-11T15:44:22Z</time>
      </trkpt>
      <trkpt lat="43.60807" lon="6.94215">
        <ele>70.5999756</ele>
        <time>2017-07-11T15:44:23Z</time>
      </trkpt>
      <trkpt lat="43.60809" lon="6.9421">
        <ele>69.4000244</ele>
        <time>2017-07-11T15:44:24Z</time>
      </trkpt>
      <trkpt lat="43.60809" lon="6.94205">
        <ele>68.4000244</ele>
        <time>2017-07-11T15:44:25Z</time>
      </trkpt>
      <trkpt lat="43.6081" lon="6.942">
        <ele>67.4000244</ele>
        <time>2017-07-11T15:44:26Z</time>
      </trkpt>
      <trkpt lat="43.60811" lon="6.94196">
        <ele>66.5999756</ele>
        <time>2017-07-11T15:44:27Z</time>
      </trkpt>
      <trkpt lat="43.60811" lon="6.94192">
        <ele>65.5999756</ele>
        <time>2017-07-11T15:44:28Z</time>
      </trkpt>
      <trkpt lat="43.60813" lon="6.94184">
        <ele>64</ele>
        <time>2017-07-11T15:44:30Z</time>
      </trkpt>
      <trkpt lat="43.60813" lon="6.94175">
        <ele>62.5999756</ele>
        <time>2017-07-11T15:44:32Z</time>
      </trkpt>
      <trkpt lat="43.60814" lon="6.94163">
        <ele>61</ele>
        <time>2017-07-11T15:44:34Z</time>
      </trkpt>
      <trkpt lat="43.60815" lon="6.94151">
        <ele>59.5999756</ele>
        <time>2017-07-11T15:44:36Z</time>
      </trkpt>
      <trkpt lat="43.60815" lon="6.94139">
        <ele>58.4000244</ele>
        <time>2017-07-11T15:44:38Z</time>
      </trkpt>
      <trkpt lat="43.60816" lon="6.94133">
        <ele>57.5999756</ele>
        <time>2017-07-11T15:44:39Z</time>
      </trkpt>
      <trkpt lat="43.60816" lon="6.94127">
        <ele>57</ele>
        <time>2017-07-11T15:44:40Z</time>
      </trkpt>
      <trkpt lat="43.60815" lon="6.94113">
        <ele>56</ele>
        <time>2017-07-11T15:44:42Z</time>
      </trkpt>
      <trkpt lat="43.60815" lon="6.94099">
        <ele>55</ele>
        <time>2017-07-11T15:44:44Z</time>
      </trkpt>
      <trkpt lat="43.60815" lon="6.94091">
        <ele>54.4000244</ele>
        <time>2017-07-11T15:44:45Z</time>
      </trkpt>
      <trkpt lat="43.60816" lon="6.94083">
        <ele>53.7999878</ele>
        <time>2017-07-11T15:44:46Z</time>
      </trkpt>
      <trkpt lat="43.60817" lon="6.94067">
        <ele>52.7999878</ele>
        <time>2017-07-11T15:44:48Z</time>
      </trkpt>
      <trkpt lat="43.60818" lon="6.94051">
        <ele>51.7999878</ele>
        <time>2017-07-11T15:44:50Z</time>
      </trkpt>
      <trkpt lat="43.60818" lon="6.94043">
        <ele>51.4000244</ele>
        <time>2017-07-11T15:44:51Z</time>
      </trkpt>
      <trkpt lat="43.60819" lon="6.94036">
        <ele>51</ele>
        <time>2017-07-11T15:44:52Z</time>
      </trkpt>
      <trkpt lat="43.60821" lon="6.9402">
        <ele>50.4000244</ele>
        <time>2017-07-11T15:44:54Z</time>
      </trkpt>
      <trkpt lat="43.60825" lon="6.93996">
        <ele>49.5999756</ele>
        <time>2017-07-11T15:44:57Z</time>
      </trkpt>
      <trkpt lat="43.6084" lon="6.9397">
        <ele>49.5999756</ele>
        <time>2017-07-11T15:45:01Z</time>
      </trkpt>
      <trkpt lat="43.60853" lon="6.93955">
        <ele>50.2000122</ele>
        <time>2017-07-11T15:45:04Z</time>
      </trkpt>
      <trkpt lat="43.60859" lon="6.93952">
        <ele>50.4000244</ele>
        <time>2017-07-11T15:45:05Z</time>
      </trkpt>
      <trkpt lat="43.60863" lon="6.93959">
        <ele>51</ele>
        <time>2017-07-11T15:45:07Z</time>
      </trkpt>
      <trkpt lat="43.60866" lon="6.9397">
        <ele>51.4000244</ele>
        <time>2017-07-11T15:45:09Z</time>
      </trkpt>
      <trkpt lat="43.60868" lon="6.93978">
        <ele>51.4000244</ele>
        <time>2017-07-11T15:45:11Z</time>
      </trkpt>
      <trkpt lat="43.60875" lon="6.93989">
        <ele>51.7999878</ele>
        <time>2017-07-11T15:45:15Z</time>
      </trkpt>
      <trkpt lat="43.60891" lon="6.94001">
        <ele>51.5999756</ele>
        <time>2017-07-11T15:45:21Z</time>
      </trkpt>
      <trkpt lat="43.60911" lon="6.94012">
        <ele>51</ele>
        <time>2017-07-11T15:45:28Z</time>
      </trkpt>
      <trkpt lat="43.60936" lon="6.94025">
        <ele>51.2000122</ele>
        <time>2017-07-11T15:45:36Z</time>
      </trkpt>
      <trkpt lat="43.60956" lon="6.94036">
        <ele>51.4000244</ele>
        <time>2017-07-11T15:45:43Z</time>
      </trkpt>
      <trkpt lat="43.60973" lon="6.94048">
        <ele>51.7999878</ele>
        <time>2017-07-11T15:45:49Z</time>
      </trkpt>
      <trkpt lat="43.60989" lon="6.9405">
        <ele>52.4000244</ele>
        <time>2017-07-11T15:45:55Z</time>
      </trkpt>
      <trkpt lat="43.61001" lon="6.94044">
        <ele>53.5999756</ele>
        <time>2017-07-11T15:46:00Z</time>
      </trkpt>
      <trkpt lat="43.61002" lon="6.94042">
        <ele>53.5999756</ele>
        <time>2017-07-11T15:46:01Z</time>
      </trkpt>
      <trkpt lat="43.61011" lon="6.9403">
        <ele>55.4000244</ele>
        <time>2017-07-11T15:46:07Z</time>
      </trkpt>
      <trkpt lat="43.61012" lon="6.94027">
        <ele>56</ele>
        <time>2017-07-11T15:46:08Z</time>
      </trkpt>
      <trkpt lat="43.61013" lon="6.94025">
        <ele>56.5999756</ele>
        <time>2017-07-11T15:46:09Z</time>
      </trkpt>
      <trkpt lat="43.61016" lon="6.94016">
        <ele>57.7999878</ele>
        <time>2017-07-11T15:46:12Z</time>
      </trkpt>
      <trkpt lat="43.61016" lon="6.94008">
        <ele>58.2000122</ele>
        <time>2017-07-11T15:46:15Z</time>
      </trkpt>
      <trkpt lat="43.61015" lon="6.94003">
        <ele>58.7999878</ele>
        <time>2017-07-11T15:46:17Z</time>
      </trkpt>
      <trkpt lat="43.61015" lon="6.93993">
        <ele>60</ele>
        <time>2017-07-11T15:46:20Z</time>
      </trkpt>
      <trkpt lat="43.61016" lon="6.93991">
        <ele>60.2000122</ele>
        <time>2017-07-11T15:46:21Z</time>
      </trkpt>
      <trkpt lat="43.61022" lon="6.93993">
        <ele>61.2000122</ele>
        <time>2017-07-11T15:46:25Z</time>
      </trkpt>
      <trkpt lat="43.61024" lon="6.94004">
        <ele>62.2000122</ele>
        <time>2017-07-11T15:46:28Z</time>
      </trkpt>
      <trkpt lat="43.61026" lon="6.94007">
        <ele>62.4000244</ele>
        <time>2017-07-11T15:46:29Z</time>
      </trkpt>
      <trkpt lat="43.61032" lon="6.94014">
        <ele>63.4000244</ele>
        <time>2017-07-11T15:46:32Z</time>
      </trkpt>
      <trkpt lat="43.61037" lon="6.94016">
        <ele>64.2000122</ele>
        <time>2017-07-11T15:46:34Z</time>
      </trkpt>
      <trkpt lat="43.61039" lon="6.94018">
        <ele>64.4000244</ele>
        <time>2017-07-11T15:46:35Z</time>
      </trkpt>
      <trkpt lat="43.61047" lon="6.9402">
        <ele>65.5999756</ele>
        <time>2017-07-11T15:46:39Z</time>
      </trkpt>
      <trkpt lat="43.61049" lon="6.94021">
        <ele>66</ele>
        <time>2017-07-11T15:46:40Z</time>
      </trkpt>
      <trkpt lat="43.61057" lon="6.94021">
        <ele>66.7999878</ele>
        <time>2017-07-11T15:46:45Z</time>
      </trkpt>
      <trkpt lat="43.61059" lon="6.94021">
        <ele>66.7999878</ele>
        <time>2017-07-11T15:46:46Z</time>
      </trkpt>
      <trkpt lat="43.61066" lon="6.94021">
        <ele>68</ele>
        <time>2017-07-11T15:46:50Z</time>
      </trkpt>
      <trkpt lat="43.61071" lon="6.9402">
        <ele>68.5999756</ele>
        <time>2017-07-11T15:46:53Z</time>
      </trkpt>
      <trkpt lat="43.6108" lon="6.9402">
        <ele>69</ele>
        <time>2017-07-11T15:46:58Z</time>
      </trkpt>
      <trkpt lat="43.61085" lon="6.9402">
        <ele>70.2000122</ele>
        <time>2017-07-11T15:47:01Z</time>
      </trkpt>
      <trkpt lat="43.61087" lon="6.9402">
        <ele>70.7999878</ele>
        <time>2017-07-11T15:47:02Z</time>
      </trkpt>
      <trkpt lat="43.61091" lon="6.9402">
        <ele>71.2000122</ele>
        <time>2017-07-11T15:47:04Z</time>
      </trkpt>
      <trkpt lat="43.61098" lon="6.94019">
        <ele>71.7999878</ele>
        <time>2017-07-11T15:47:08Z</time>
      </trkpt>
      <trkpt lat="43.61105" lon="6.94016">
        <ele>72.5999756</ele>
        <time>2017-07-11T15:47:12Z</time>
      </trkpt>
      <trkpt lat="43.61111" lon="6.94013">
        <ele>73.4000244</ele>
        <time>2017-07-11T15:47:15Z</time>
      </trkpt>
      <trkpt lat="43.61113" lon="6.94012">
        <ele>73.5999756</ele>
        <time>2017-07-11T15:47:16Z</time>
      </trkpt>
      <trkpt lat="43.61121" lon="6.94005">
        <ele>74.7999878</ele>
        <time>2017-07-11T15:47:21Z</time>
      </trkpt>
      <trkpt lat="43.61122" lon="6.94004">
        <ele>75</ele>
        <time>2017-07-11T15:47:22Z</time>
      </trkpt>
      <trkpt lat="43.61124" lon="6.94001">
        <ele>75.7999878</ele>
        <time>2017-07-11T15:47:24Z</time>
      </trkpt>
      <trkpt lat="43.61128" lon="6.93999">
        <ele>76.7999878</ele>
        <time>2017-07-11T15:47:27Z</time>
      </trkpt>
      <trkpt lat="43.61133" lon="6.93995">
        <ele>77.4000244</ele>
        <time>2017-07-11T15:47:30Z</time>
      </trkpt>
      <trkpt lat="43.61137" lon="6.93994">
        <ele>78.2000122</ele>
        <time>2017-07-11T15:47:32Z</time>
      </trkpt>
      <trkpt lat="43.61142" lon="6.93992">
        <ele>79.5999756</ele>
        <time>2017-07-11T15:47:35Z</time>
      </trkpt>
      <trkpt lat="43.61146" lon="6.9399">
        <ele>80.5999756</ele>
        <time>2017-07-11T15:47:38Z</time>
      </trkpt>
      <trkpt lat="43.61148" lon="6.9399">
        <ele>80.5999756</ele>
        <time>2017-07-11T15:47:39Z</time>
      </trkpt>
      <trkpt lat="43.61148" lon="6.9399">
        <ele>81</ele>
        <time>2017-07-11T15:47:43Z</time>
      </trkpt>
      <trkpt lat="43.61152" lon="6.9399">
        <ele>80.7999878</ele>
        <time>2017-07-11T15:47:50Z</time>
      </trkpt>
      <trkpt lat="43.61158" lon="6.93991">
        <ele>81.5999756</ele>
        <time>2017-07-11T15:47:55Z</time>
      </trkpt>
      <trkpt lat="43.6116" lon="6.93992">
        <ele>82</ele>
        <time>2017-07-11T15:47:58Z</time>
      </trkpt>
      <trkpt lat="43.61163" lon="6.93992">
        <ele>82.5999756</ele>
        <time>2017-07-11T15:48:03Z</time>
      </trkpt>
      <trkpt lat="43.61163" lon="6.93992">
        <ele>82.5999756</ele>
        <time>2017-07-11T15:48:06Z</time>
      </trkpt>
      <trkpt lat="43.6116" lon="6.93992">
        <ele>83</ele>
        <time>2017-07-11T15:48:13Z</time>
      </trkpt>
      <trkpt lat="43.6116" lon="6.93992">
        <ele>83</ele>
        <time>2017-07-11T15:48:21Z</time>
      </trkpt>
      <trkpt lat="43.61156" lon="6.9399">
        <ele>83</ele>
        <time>2017-07-11T15:48:28Z</time>
      </trkpt>
      <trkpt lat="43.61153" lon="6.93989">
        <ele>83</ele>
        <time>2017-07-11T15:48:30Z</time>
      </trkpt>
      <trkpt lat="43.61151" lon="6.93985">
        <ele>82.2000122</ele>
        <time>2017-07-11T15:48:33Z</time>
      </trkpt>
      <trkpt lat="43.61153" lon="6.93979">
        <ele>81.7999878</ele>
        <time>2017-07-11T15:48:37Z</time>
      </trkpt>
      <trkpt lat="43.61154" lon="6.93978">
        <ele>81.7999878</ele>
        <time>2017-07-11T15:48:38Z</time>
      </trkpt>
      <trkpt lat="43.61154" lon="6.93977">
        <ele>81.4000244</ele>
        <time>2017-07-11T15:48:40Z</time>
      </trkpt>
      <trkpt lat="43.61154" lon="6.93976">
        <ele>80.4000244</ele>
        <time>2017-07-11T15:48:43Z</time>
      </trkpt>
      <trkpt lat="43.61154" lon="6.93976">
        <ele>80.4000244</ele>
        <time>2017-07-11T15:48:51Z</time>
      </trkpt>
      <trkpt lat="43.61153" lon="6.93976">
        <ele>80.2000122</ele>
        <time>2017-07-11T15:48:53Z</time>
      </trkpt>
      <trkpt lat="43.61154" lon="6.93975">
        <ele>80.2000122</ele>
        <time>2017-07-11T15:49:01Z</time>
      </trkpt>
      <trkpt lat="43.61155" lon="6.93967">
        <ele>79.4000244</ele>
        <time>2017-07-11T15:49:07Z</time>
      </trkpt>
      <trkpt lat="43.61155" lon="6.93965">
        <ele>79.2000122</ele>
        <time>2017-07-11T15:49:08Z</time>
      </trkpt>
      <trkpt lat="43.61155" lon="6.93956">
        <ele>78</ele>
        <time>2017-07-11T15:49:14Z</time>
      </trkpt>
      <trkpt lat="43.61155" lon="6.93951">
        <ele>77.4000244</ele>
        <time>2017-07-11T15:49:16Z</time>
      </trkpt>
      <trkpt lat="43.61153" lon="6.9395">
        <ele>77</ele>
        <time>2017-07-11T15:49:17Z</time>
      </trkpt>
      <trkpt lat="43.61152" lon="6.93949">
        <ele>77</ele>
        <time>2017-07-11T15:49:18Z</time>
      </trkpt>
      <trkpt lat="43.61151" lon="6.93948">
        <ele>76.4000244</ele>
        <time>2017-07-11T15:49:24Z</time>
      </trkpt>
      <trkpt lat="43.61151" lon="6.93947">
        <ele>76</ele>
        <time>2017-07-11T15:49:29Z</time>
      </trkpt>
      <trkpt lat="43.6115" lon="6.93947">
        <ele>75.7999878</ele>
        <time>2017-07-11T15:49:31Z</time>
      </trkpt>
      <trkpt lat="43.61149" lon="6.93947">
        <ele>75.5999756</ele>
        <time>2017-07-11T15:49:36Z</time>
      </trkpt>
      <trkpt lat="43.61149" lon="6.93947">
        <ele>75.7999878</ele>
        <time>2017-07-11T15:49:41Z</time>
      </trkpt>
      <trkpt lat="43.61147" lon="6.93945">
        <ele>75.4000244</ele>
        <time>2017-07-11T15:49:50Z</time>
      </trkpt>
      <trkpt lat="43.61148" lon="6.93946">
        <ele>75.5999756</ele>
        <time>2017-07-11T15:49:51Z</time>
      </trkpt>
      <trkpt lat="43.6115" lon="6.93947">
        <ele>75.2000122</ele>
        <time>2017-07-11T15:49:56Z</time>
      </trkpt>
      <trkpt lat="43.6115" lon="6.93947">
        <ele>74.7999878</ele>
        <time>2017-07-11T15:49:58Z</time>
      </trkpt>
      <trkpt lat="43.61151" lon="6.93948">
        <ele>74</ele>
        <time>2017-07-11T15:50:06Z</time>
      </trkpt>
      <trkpt lat="43.61149" lon="6.93948">
        <ele>73.4000244</ele>
        <time>2017-07-11T15:50:09Z</time>
      </trkpt>
      <trkpt lat="43.61149" lon="6.93948">
        <ele>72.5999756</ele>
        <time>2017-07-11T15:50:13Z</time>
      </trkpt>
      <trkpt lat="43.61149" lon="6.93948">
        <ele>72.5999756</ele>
        <time>2017-07-11T15:50:31Z</time>
      </trkpt>
      <trkpt lat="43.61149" lon="6.93948">
        <ele>72.5999756</ele>
        <time>2017-07-11T15:50:52Z</time>
      </trkpt>
      <trkpt lat="43.61149" lon="6.93948">
        <ele>72.5999756</ele>
        <time>2017-07-11T15:51:16Z</time>
      </trkpt>
      <trkpt lat="43.61149" lon="6.93948">
        <ele>72.2000122</ele>
        <time>2017-07-11T15:51:31Z</time>
      </trkpt>
      <trkpt lat="43.61149" lon="6.93948">
        <ele>72.2000122</ele>
        <time>2017-07-11T15:51:36Z</time>
      </trkpt>
      <trkpt lat="43.61149" lon="6.93947">
        <ele>71.7999878</ele>
        <time>2017-07-11T15:51:42Z</time>
      </trkpt>
      <trkpt lat="43.6115" lon="6.93946">
        <ele>71.7999878</ele>
        <time>2017-07-11T15:51:50Z</time>
      </trkpt>
      <trkpt lat="43.61156" lon="6.93938">
        <ele>71.4000244</ele>
        <time>2017-07-11T15:51:54Z</time>
      </trkpt>
      <trkpt lat="43.61156" lon="6.93935">
        <ele>71</ele>
        <time>2017-07-11T15:51:55Z</time>
      </trkpt>
      <trkpt lat="43.61155" lon="6.93933">
        <ele>70</ele>
        <time>2017-07-11T15:51:58Z</time>
      </trkpt>
      <trkpt lat="43.61155" lon="6.93935">
        <ele>70</ele>
        <time>2017-07-11T15:52:04Z</time>
      </trkpt>
      <trkpt lat="43.61156" lon="6.93935">
        <ele>69.7999878</ele>
        <time>2017-07-11T15:52:05Z</time>
      </trkpt>
      <trkpt lat="43.61156" lon="6.93935">
        <ele>69.7999878</ele>
        <time>2017-07-11T15:52:12Z</time>
      </trkpt>
      <trkpt lat="43.61156" lon="6.93936">
        <ele>70.2000122</ele>
        <time>2017-07-11T15:52:18Z</time>
      </trkpt>
      <trkpt lat="43.61157" lon="6.93936">
        <ele>70.7999878</ele>
        <time>2017-07-11T15:52:25Z</time>
      </trkpt>
      <trkpt lat="43.61156" lon="6.93936">
        <ele>71</ele>
        <time>2017-07-11T15:52:32Z</time>
      </trkpt>
      <trkpt lat="43.61157" lon="6.93936">
        <ele>71.4000244</ele>
        <time>2017-07-11T15:52:35Z</time>
      </trkpt>
      <trkpt lat="43.61157" lon="6.93936">
        <ele>71.4000244</ele>
        <time>2017-07-11T15:52:44Z</time>
      </trkpt>
      <trkpt lat="43.61156" lon="6.93937">
        <ele>71.5999756</ele>
        <time>2017-07-11T15:52:51Z</time>
      </trkpt>
      <trkpt lat="43.61156" lon="6.93937">
        <ele>71.5999756</ele>
        <time>2017-07-11T15:52:59Z</time>
      </trkpt>
      <trkpt lat="43.61154" lon="6.9394">
        <ele>72</ele>
        <time>2017-07-11T15:53:06Z</time>
      </trkpt>
      <trkpt lat="43.61152" lon="6.9394">
        <ele>72.4000244</ele>
        <time>2017-07-11T15:53:08Z</time>
      </trkpt>
      <trkpt lat="43.61151" lon="6.93943">
        <ele>73.2000122</ele>
        <time>2017-07-11T15:53:12Z</time>
      </trkpt>
      <trkpt lat="43.6115" lon="6.93945">
        <ele>73.5999756</ele>
        <time>2017-07-11T15:53:14Z</time>
      </trkpt>
      <trkpt lat="43.61148" lon="6.93944">
        <ele>73.5999756</ele>
        <time>2017-07-11T15:53:17Z</time>
      </trkpt>
      <trkpt lat="43.61145" lon="6.93943">
        <ele>73.2000122</ele>
        <time>2017-07-11T15:53:19Z</time>
      </trkpt>
      <trkpt lat="43.61137" lon="6.93941">
        <ele>72.2000122</ele>
        <time>2017-07-11T15:53:22Z</time>
      </trkpt>
      <trkpt lat="43.61135" lon="6.9394">
        <ele>71.7999878</ele>
        <time>2017-07-11T15:53:23Z</time>
      </trkpt>
      <trkpt lat="43.61132" lon="6.93938">
        <ele>70.7999878</ele>
        <time>2017-07-11T15:53:25Z</time>
      </trkpt>
      <trkpt lat="43.61128" lon="6.93935">
        <ele>70</ele>
        <time>2017-07-11T15:53:28Z</time>
      </trkpt>
      <trkpt lat="43.61127" lon="6.93935">
        <ele>69.7999878</ele>
        <time>2017-07-11T15:53:29Z</time>
      </trkpt>
      <trkpt lat="43.61127" lon="6.93935">
        <ele>69</ele>
        <time>2017-07-11T15:53:33Z</time>
      </trkpt>
      <trkpt lat="43.6112" lon="6.93932">
        <ele>68.5999756</ele>
        <time>2017-07-11T15:53:38Z</time>
      </trkpt>
      <trkpt lat="43.61117" lon="6.93932">
        <ele>68.2000122</ele>
        <time>2017-07-11T15:53:39Z</time>
      </trkpt>
      <trkpt lat="43.61101" lon="6.93929">
        <ele>67.7999878</ele>
        <time>2017-07-11T15:53:43Z</time>
      </trkpt>
      <trkpt lat="43.61096" lon="6.93928">
        <ele>67.5999756</ele>
        <time>2017-07-11T15:53:44Z</time>
      </trkpt>
      <trkpt lat="43.61088" lon="6.93928">
        <ele>67.4000244</ele>
        <time>2017-07-11T15:53:46Z</time>
      </trkpt>
      <trkpt lat="43.61082" lon="6.93925">
        <ele>67.5999756</ele>
        <time>2017-07-11T15:53:48Z</time>
      </trkpt>
      <trkpt lat="43.61074" lon="6.93924">
        <ele>67.4000244</ele>
        <time>2017-07-11T15:53:52Z</time>
      </trkpt>
      <trkpt lat="43.61072" lon="6.93923">
        <ele>67.5999756</ele>
        <time>2017-07-11T15:53:53Z</time>
      </trkpt>
      <trkpt lat="43.61069" lon="6.93922">
        <ele>68</ele>
        <time>2017-07-11T15:53:58Z</time>
      </trkpt>
      <trkpt lat="43.61069" lon="6.93922">
        <ele>68</ele>
        <time>2017-07-11T15:54:13Z</time>
      </trkpt>
      <trkpt lat="43.61066" lon="6.9392">
        <ele>68.7999878</ele>
        <time>2017-07-11T15:54:25Z</time>
      </trkpt>
      <trkpt lat="43.61056" lon="6.93916">
        <ele>70</ele>
        <time>2017-07-11T15:54:29Z</time>
      </trkpt>
      <trkpt lat="43.61053" lon="6.93917">
        <ele>70</ele>
        <time>2017-07-11T15:54:30Z</time>
      </trkpt>
      <trkpt lat="43.61048" lon="6.93919">
        <ele>70.5999756</ele>
        <time>2017-07-11T15:54:33Z</time>
      </trkpt>
      <trkpt lat="43.61046" lon="6.93919">
        <ele>71</ele>
        <time>2017-07-11T15:54:35Z</time>
      </trkpt>
      <trkpt lat="43.61041" lon="6.9392">
        <ele>71.7999878</ele>
        <time>2017-07-11T15:54:39Z</time>
      </trkpt>
      <trkpt lat="43.61039" lon="6.9392">
        <ele>72.2000122</ele>
        <time>2017-07-11T15:54:40Z</time>
      </trkpt>
      <trkpt lat="43.61031" lon="6.93921">
        <ele>72.5999756</ele>
        <time>2017-07-11T15:54:44Z</time>
      </trkpt>
      <trkpt lat="43.61021" lon="6.93924">
        <ele>72.5999756</ele>
        <time>2017-07-11T15:54:50Z</time>
      </trkpt>
      <trkpt lat="43.61018" lon="6.93925">
        <ele>72.4000244</ele>
        <time>2017-07-11T15:54:55Z</time>
      </trkpt>
      <trkpt lat="43.61006" lon="6.93932">
        <ele>71.4000244</ele>
        <time>2017-07-11T15:55:02Z</time>
      </trkpt>
      <trkpt lat="43.61005" lon="6.93936">
        <ele>71.2000122</ele>
        <time>2017-07-11T15:55:03Z</time>
      </trkpt>
      <trkpt lat="43.61006" lon="6.93943">
        <ele>70</ele>
        <time>2017-07-11T15:55:06Z</time>
      </trkpt>
      <trkpt lat="43.61006" lon="6.93946">
        <ele>69.5999756</ele>
        <time>2017-07-11T15:55:07Z</time>
      </trkpt>
      <trkpt lat="43.61006" lon="6.93952">
        <ele>68.7999878</ele>
        <time>2017-07-11T15:55:09Z</time>
      </trkpt>
      <trkpt lat="43.61006" lon="6.93962">
        <ele>67.7999878</ele>
        <time>2017-07-11T15:55:12Z</time>
      </trkpt>
      <trkpt lat="43.61007" lon="6.93965">
        <ele>67.4000244</ele>
        <time>2017-07-11T15:55:13Z</time>
      </trkpt>
      <trkpt lat="43.61007" lon="6.93973">
        <ele>66.5999756</ele>
        <time>2017-07-11T15:55:17Z</time>
      </trkpt>
      <trkpt lat="43.61008" lon="6.93975">
        <ele>66.4000244</ele>
        <time>2017-07-11T15:55:18Z</time>
      </trkpt>
      <trkpt lat="43.61013" lon="6.93984">
        <ele>66.5999756</ele>
        <time>2017-07-11T15:55:23Z</time>
      </trkpt>
      <trkpt lat="43.61013" lon="6.93984">
        <ele>67</ele>
        <time>2017-07-11T15:55:25Z</time>
      </trkpt>
      <trkpt lat="43.61013" lon="6.93984">
        <ele>67</ele>
        <time>2017-07-11T15:55:33Z</time>
      </trkpt>
      <trkpt lat="43.61013" lon="6.93984">
        <ele>67</ele>
        <time>2017-07-11T15:55:41Z</time>
      </trkpt>
      <trkpt lat="43.61013" lon="6.93984">
        <ele>67</ele>
        <time>2017-07-11T15:55:56Z</time>
      </trkpt>
      <trkpt lat="43.61012" lon="6.93997">
        <ele>66.5999756</ele>
        <time>2017-07-11T15:56:00Z</time>
      </trkpt>
      <trkpt lat="43.61012" lon="6.94002">
        <ele>66</ele>
        <time>2017-07-11T15:56:01Z</time>
      </trkpt>
      <trkpt lat="43.61013" lon="6.94013">
        <ele>65</ele>
        <time>2017-07-11T15:56:03Z</time>
      </trkpt>
      <trkpt lat="43.61013" lon="6.94018">
        <ele>64.5999756</ele>
        <time>2017-07-11T15:56:04Z</time>
      </trkpt>
      <trkpt lat="43.61012" lon="6.94023">
        <ele>64.5999756</ele>
        <time>2017-07-11T15:56:05Z</time>
      </trkpt>
      <trkpt lat="43.6101" lon="6.94033">
        <ele>63.7999878</ele>
        <time>2017-07-11T15:56:07Z</time>
      </trkpt>
      <trkpt lat="43.61005" lon="6.94041">
        <ele>62.7999878</ele>
        <time>2017-07-11T15:56:09Z</time>
      </trkpt>
      <trkpt lat="43.61002" lon="6.94046">
        <ele>62.2000122</ele>
        <time>2017-07-11T15:56:10Z</time>
      </trkpt>
      <trkpt lat="43.60992" lon="6.94053">
        <ele>61.2000122</ele>
        <time>2017-07-11T15:56:12Z</time>
      </trkpt>
      <trkpt lat="43.60987" lon="6.94054">
        <ele>60.7999878</ele>
        <time>2017-07-11T15:56:13Z</time>
      </trkpt>
      <trkpt lat="43.60971" lon="6.94048">
        <ele>60</ele>
        <time>2017-07-11T15:56:16Z</time>
      </trkpt>
      <trkpt lat="43.60966" lon="6.94045">
        <ele>59.7999878</ele>
        <time>2017-07-11T15:56:17Z</time>
      </trkpt>
      <trkpt lat="43.60956" lon="6.94038">
        <ele>59</ele>
        <time>2017-07-11T15:56:19Z</time>
      </trkpt>
      <trkpt lat="43.60932" lon="6.94023">
        <ele>58</ele>
        <time>2017-07-11T15:56:24Z</time>
      </trkpt>
      <trkpt lat="43.60927" lon="6.9402">
        <ele>57.5999756</ele>
        <time>2017-07-11T15:56:25Z</time>
      </trkpt>
      <trkpt lat="43.60897" lon="6.94005">
        <ele>56.5999756</ele>
        <time>2017-07-11T15:56:31Z</time>
      </trkpt>
      <trkpt lat="43.60892" lon="6.94002">
        <ele>56.4000244</ele>
        <time>2017-07-11T15:56:32Z</time>
      </trkpt>
      <trkpt lat="43.60872" lon="6.93988">
        <ele>56</ele>
        <time>2017-07-11T15:56:36Z</time>
      </trkpt>
      <trkpt lat="43.60868" lon="6.93982">
        <ele>55.7999878</ele>
        <time>2017-07-11T15:56:37Z</time>
      </trkpt>
      <trkpt lat="43.60856" lon="6.93956">
        <ele>55.4000244</ele>
        <time>2017-07-11T15:56:42Z</time>
      </trkpt>
      <trkpt lat="43.60848" lon="6.93957">
        <ele>55.2000122</ele>
        <time>2017-07-11T15:56:45Z</time>
      </trkpt>
      <trkpt lat="43.60835" lon="6.9397">
        <ele>55.5999756</ele>
        <time>2017-07-11T15:56:49Z</time>
      </trkpt>
      <trkpt lat="43.60832" lon="6.93976">
        <ele>55.5999756</ele>
        <time>2017-07-11T15:56:50Z</time>
      </trkpt>
      <trkpt lat="43.60819" lon="6.93999">
        <ele>55.5999756</ele>
        <time>2017-07-11T15:56:54Z</time>
      </trkpt>
      <trkpt lat="43.60817" lon="6.94006">
        <ele>55.5999756</ele>
        <time>2017-07-11T15:56:55Z</time>
      </trkpt>
      <trkpt lat="43.60812" lon="6.94051">
        <ele>55.7999878</ele>
        <time>2017-07-11T15:57:01Z</time>
      </trkpt>
      <trkpt lat="43.6081" lon="6.94072">
        <ele>55.7999878</ele>
        <time>2017-07-11T15:57:04Z</time>
      </trkpt>
      <trkpt lat="43.60809" lon="6.94093">
        <ele>56</ele>
        <time>2017-07-11T15:57:07Z</time>
      </trkpt>
      <trkpt lat="43.60806" lon="6.94142">
        <ele>56.2000122</ele>
        <time>2017-07-11T15:57:14Z</time>
      </trkpt>
      <trkpt lat="43.60806" lon="6.94161">
        <ele>56.4000244</ele>
        <time>2017-07-11T15:57:17Z</time>
      </trkpt>
      <trkpt lat="43.60805" lon="6.94194">
        <ele>57.2000122</ele>
        <time>2017-07-11T15:57:22Z</time>
      </trkpt>
      <trkpt lat="43.60801" lon="6.94223">
        <ele>57.2000122</ele>
        <time>2017-07-11T15:57:27Z</time>
      </trkpt>
      <trkpt lat="43.60804" lon="6.94233">
        <ele>57.5999756</ele>
        <time>2017-07-11T15:57:29Z</time>
      </trkpt>
      <trkpt lat="43.60806" lon="6.94236">
        <ele>57.5999756</ele>
        <time>2017-07-11T15:57:30Z</time>
      </trkpt>
      <trkpt lat="43.60811" lon="6.9424">
        <ele>57.5999756</ele>
        <time>2017-07-11T15:57:32Z</time>
      </trkpt>
      <trkpt lat="43.60814" lon="6.94243">
        <ele>57.7999878</ele>
        <time>2017-07-11T15:57:34Z</time>
      </trkpt>
      <trkpt lat="43.60816" lon="6.94248">
        <ele>57.7999878</ele>
        <time>2017-07-11T15:57:38Z</time>
      </trkpt>
      <trkpt lat="43.60816" lon="6.9425">
        <ele>57.7999878</ele>
        <time>2017-07-11T15:57:39Z</time>
      </trkpt>
      <trkpt lat="43.60816" lon="6.94252">
        <ele>58</ele>
        <time>2017-07-11T15:57:40Z</time>
      </trkpt>
      <trkpt lat="43.60815" lon="6.94255">
        <ele>58</ele>
        <time>2017-07-11T15:57:44Z</time>
      </trkpt>
      <trkpt lat="43.60817" lon="6.94261">
        <ele>58</ele>
        <time>2017-07-11T15:57:49Z</time>
      </trkpt>
      <trkpt lat="43.6082" lon="6.94267">
        <ele>58.5999756</ele>
        <time>2017-07-11T15:57:54Z</time>
      </trkpt>
      <trkpt lat="43.60821" lon="6.94268">
        <ele>58.7999878</ele>
        <time>2017-07-11T15:57:56Z</time>
      </trkpt>
      <trkpt lat="43.60824" lon="6.94273">
        <ele>59.5999756</ele>
        <time>2017-07-11T15:58:01Z</time>
      </trkpt>
      <trkpt lat="43.60824" lon="6.94273">
        <ele>60</ele>
        <time>2017-07-11T15:58:02Z</time>
      </trkpt>
      <trkpt lat="43.60828" lon="6.94275">
        <ele>60.4000244</ele>
        <time>2017-07-11T15:58:09Z</time>
      </trkpt>
      <trkpt lat="43.60829" lon="6.94276">
        <ele>60.5999756</ele>
        <time>2017-07-11T15:58:10Z</time>
      </trkpt>
      <trkpt lat="43.60831" lon="6.94277">
        <ele>60.7999878</ele>
        <time>2017-07-11T15:58:11Z</time>
      </trkpt>
      <trkpt lat="43.60835" lon="6.94281">
        <ele>61.5999756</ele>
        <time>2017-07-11T15:58:14Z</time>
      </trkpt>
      <trkpt lat="43.60836" lon="6.94282">
        <ele>61.7999878</ele>
        <time>2017-07-11T15:58:15Z</time>
      </trkpt>
      <trkpt lat="43.60836" lon="6.94284">
        <ele>62.4000244</ele>
        <time>2017-07-11T15:58:18Z</time>
      </trkpt>
      <trkpt lat="43.60837" lon="6.94285">
        <ele>62.7999878</ele>
        <time>2017-07-11T15:58:25Z</time>
      </trkpt>
      <trkpt lat="43.60837" lon="6.94285">
        <ele>62.7999878</ele>
        <time>2017-07-11T15:58:32Z</time>
      </trkpt>
      <trkpt lat="43.60837" lon="6.94285">
        <ele>62.7999878</ele>
        <time>2017-07-11T15:58:44Z</time>
      </trkpt>
      <trkpt lat="43.60839" lon="6.94286">
        <ele>63.5999756</ele>
        <time>2017-07-11T15:58:46Z</time>
      </trkpt>
      <trkpt lat="43.60842" lon="6.94286">
        <ele>64.4000244</ele>
        <time>2017-07-11T15:58:47Z</time>
      </trkpt>
      <trkpt lat="43.60845" lon="6.94287">
        <ele>65.2000122</ele>
        <time>2017-07-11T15:58:48Z</time>
      </trkpt>
      <trkpt lat="43.60851" lon="6.94289">
        <ele>66.5999756</ele>
        <time>2017-07-11T15:58:50Z</time>
      </trkpt>
      <trkpt lat="43.60856" lon="6.94291">
        <ele>67.4000244</ele>
        <time>2017-07-11T15:58:52Z</time>
      </trkpt>
      <trkpt lat="43.60858" lon="6.94292">
        <ele>67.5999756</ele>
        <time>2017-07-11T15:58:53Z</time>
      </trkpt>
      <trkpt lat="43.60868" lon="6.94295">
        <ele>68.5999756</ele>
        <time>2017-07-11T15:58:57Z</time>
      </trkpt>
      <trkpt lat="43.60874" lon="6.94297">
        <ele>68.5999756</ele>
        <time>2017-07-11T15:59:00Z</time>
      </trkpt>
      <trkpt lat="43.60882" lon="6.94304">
        <ele>68.7999878</ele>
        <time>2017-07-11T15:59:05Z</time>
      </trkpt>
      <trkpt lat="43.60888" lon="6.94309">
        <ele>69.5999756</ele>
        <time>2017-07-11T15:59:09Z</time>
      </trkpt>
      <trkpt lat="43.60891" lon="6.9431">
        <ele>70</ele>
        <time>2017-07-11T15:59:11Z</time>
      </trkpt>
      <trkpt lat="43.60894" lon="6.94311">
        <ele>70.7999878</ele>
        <time>2017-07-11T15:59:14Z</time>
      </trkpt>
      <trkpt lat="43.609" lon="6.94314">
        <ele>71.5999756</ele>
        <time>2017-07-11T15:59:17Z</time>
      </trkpt>
      <trkpt lat="43.60901" lon="6.94315">
        <ele>72</ele>
        <time>2017-07-11T15:59:18Z</time>
      </trkpt>
      <trkpt lat="43.60906" lon="6.9432">
        <ele>73</ele>
        <time>2017-07-11T15:59:21Z</time>
      </trkpt>
      <trkpt lat="43.60911" lon="6.94324">
        <ele>74.2000122</ele>
        <time>2017-07-11T15:59:24Z</time>
      </trkpt>
      <trkpt lat="43.60923" lon="6.94333">
        <ele>74.7999878</ele>
        <time>2017-07-11T15:59:28Z</time>
      </trkpt>
      <trkpt lat="43.60935" lon="6.94339">
        <ele>75.4000244</ele>
        <time>2017-07-11T15:59:31Z</time>
      </trkpt>
      <trkpt lat="43.60942" lon="6.94342">
        <ele>76.4000244</ele>
        <time>2017-07-11T15:59:34Z</time>
      </trkpt>
      <trkpt lat="43.60944" lon="6.94343">
        <ele>76.7999878</ele>
        <time>2017-07-11T15:59:35Z</time>
      </trkpt>
      <trkpt lat="43.60951" lon="6.94346">
        <ele>77.7999878</ele>
        <time>2017-07-11T15:59:39Z</time>
      </trkpt>
      <trkpt lat="43.60956" lon="6.94348">
        <ele>78.2000122</ele>
        <time>2017-07-11T15:59:41Z</time>
      </trkpt>
      <trkpt lat="43.6096" lon="6.94352">
        <ele>79.2000122</ele>
        <time>2017-07-11T15:59:43Z</time>
      </trkpt>
      <trkpt lat="43.60965" lon="6.94355">
        <ele>80.2000122</ele>
        <time>2017-07-11T15:59:45Z</time>
      </trkpt>
      <trkpt lat="43.60968" lon="6.94358">
        <ele>81</ele>
        <time>2017-07-11T15:59:47Z</time>
      </trkpt>
      <trkpt lat="43.60969" lon="6.94359">
        <ele>81.4000244</ele>
        <time>2017-07-11T15:59:48Z</time>
      </trkpt>
      <trkpt lat="43.60978" lon="6.94366">
        <ele>81.5999756</ele>
        <time>2017-07-11T15:59:51Z</time>
      </trkpt>
      <trkpt lat="43.60992" lon="6.94374">
        <ele>82</ele>
        <time>2017-07-11T15:59:56Z</time>
      </trkpt>
      <trkpt lat="43.61005" lon="6.94381">
        <ele>82</ele>
        <time>2017-07-11T16:00:01Z</time>
      </trkpt>
      <trkpt lat="43.61028" lon="6.94389">
        <ele>81.2000122</ele>
        <time>2017-07-11T16:00:07Z</time>
      </trkpt>
      <trkpt lat="43.61044" lon="6.94398">
        <ele>80.4000244</ele>
        <time>2017-07-11T16:00:11Z</time>
      </trkpt>
      <trkpt lat="43.61052" lon="6.944">
        <ele>80.2000122</ele>
        <time>2017-07-11T16:00:13Z</time>
      </trkpt>
      <trkpt lat="43.6106" lon="6.94401">
        <ele>80.4000244</ele>
        <time>2017-07-11T16:00:15Z</time>
      </trkpt>
      <trkpt lat="43.61068" lon="6.94405">
        <ele>80.5999756</ele>
        <time>2017-07-11T16:00:17Z</time>
      </trkpt>
      <trkpt lat="43.61081" lon="6.94416">
        <ele>80</ele>
        <time>2017-07-11T16:00:22Z</time>
      </trkpt>
      <trkpt lat="43.61088" lon="6.94418">
        <ele>79.2000122</ele>
        <time>2017-07-11T16:00:24Z</time>
      </trkpt>
      <trkpt lat="43.61095" lon="6.94425">
        <ele>78.4000244</ele>
        <time>2017-07-11T16:00:26Z</time>
      </trkpt>
      <trkpt lat="43.61099" lon="6.94428">
        <ele>78.2000122</ele>
        <time>2017-07-11T16:00:27Z</time>
      </trkpt>
      <trkpt lat="43.61107" lon="6.94435">
        <ele>78</ele>
        <time>2017-07-11T16:00:29Z</time>
      </trkpt>
      <trkpt lat="43.61121" lon="6.94444">
        <ele>77.5999756</ele>
        <time>2017-07-11T16:00:32Z</time>
      </trkpt>
      <trkpt lat="43.61142" lon="6.94464">
        <ele>77.2000122</ele>
        <time>2017-07-11T16:00:37Z</time>
      </trkpt>
      <trkpt lat="43.61146" lon="6.94469">
        <ele>77.2000122</ele>
        <time>2017-07-11T16:00:38Z</time>
      </trkpt>
      <trkpt lat="43.6115" lon="6.94475">
        <ele>77</ele>
        <time>2017-07-11T16:00:39Z</time>
      </trkpt>
      <trkpt lat="43.61159" lon="6.94484">
        <ele>76.7999878</ele>
        <time>2017-07-11T16:00:41Z</time>
      </trkpt>
      <trkpt lat="43.61164" lon="6.94486">
        <ele>76.5999756</ele>
        <time>2017-07-11T16:00:42Z</time>
      </trkpt>
      <trkpt lat="43.6118" lon="6.94493">
        <ele>76.2000122</ele>
        <time>2017-07-11T16:00:45Z</time>
      </trkpt>
      <trkpt lat="43.61186" lon="6.94494">
        <ele>76</ele>
        <time>2017-07-11T16:00:46Z</time>
      </trkpt>
      <trkpt lat="43.61191" lon="6.94496">
        <ele>76</ele>
        <time>2017-07-11T16:00:47Z</time>
      </trkpt>
      <trkpt lat="43.61205" lon="6.94504">
        <ele>75.7999878</ele>
        <time>2017-07-11T16:00:50Z</time>
      </trkpt>
      <trkpt lat="43.61229" lon="6.94519">
        <ele>76.2000122</ele>
        <time>2017-07-11T16:00:56Z</time>
      </trkpt>
      <trkpt lat="43.61252" lon="6.94533">
        <ele>76.5999756</ele>
        <time>2017-07-11T16:01:02Z</time>
      </trkpt>
      <trkpt lat="43.61259" lon="6.94538">
        <ele>77.2000122</ele>
        <time>2017-07-11T16:01:04Z</time>
      </trkpt>
      <trkpt lat="43.61271" lon="6.94546">
        <ele>77.4000244</ele>
        <time>2017-07-11T16:01:07Z</time>
      </trkpt>
      <trkpt lat="43.61287" lon="6.94549">
        <ele>78.2000122</ele>
        <time>2017-07-11T16:01:12Z</time>
      </trkpt>
      <trkpt lat="43.6129" lon="6.94549">
        <ele>78.4000244</ele>
        <time>2017-07-11T16:01:13Z</time>
      </trkpt>
      <trkpt lat="43.61298" lon="6.94548">
        <ele>79.5999756</ele>
        <time>2017-07-11T16:01:17Z</time>
      </trkpt>
      <trkpt lat="43.61299" lon="6.94548">
        <ele>80.5999756</ele>
        <time>2017-07-11T16:01:24Z</time>
      </trkpt>
      <trkpt lat="43.61299" lon="6.94548">
        <ele>80.5999756</ele>
        <time>2017-07-11T16:01:41Z</time>
      </trkpt>
      <trkpt lat="43.61299" lon="6.94548">
        <ele>80.5999756</ele>
        <time>2017-07-11T16:01:55Z</time>
      </trkpt>
      <trkpt lat="43.61298" lon="6.94549">
        <ele>80.4000244</ele>
        <time>2017-07-11T16:02:14Z</time>
      </trkpt>
      <trkpt lat="43.61298" lon="6.94549">
        <ele>80.4000244</ele>
        <time>2017-07-11T16:02:28Z</time>
      </trkpt>
      <trkpt lat="43.61298" lon="6.94549">
        <ele>80.4000244</ele>
        <time>2017-07-11T16:02:42Z</time>
      </trkpt>
      <trkpt lat="43.61299" lon="6.94548">
        <ele>80.4000244</ele>
        <time>2017-07-11T16:02:54Z</time>
      </trkpt>
      <trkpt lat="43.61301" lon="6.94546">
        <ele>77.7999878</ele>
        <time>2017-07-11T16:02:56Z</time>
      </trkpt>
      <trkpt lat="43.61302" lon="6.94544">
        <ele>76.4000244</ele>
        <time>2017-07-11T16:02:58Z</time>
      </trkpt>
      <trkpt lat="43.61302" lon="6.94542">
        <ele>75.7999878</ele>
        <time>2017-07-11T16:03:00Z</time>
      </trkpt>
      <trkpt lat="43.61303" lon="6.9454">
        <ele>75.4000244</ele>
        <time>2017-07-11T16:03:01Z</time>
      </trkpt>
      <trkpt lat="43.61304" lon="6.94538">
        <ele>75.2000122</ele>
        <time>2017-07-11T16:03:02Z</time>
      </trkpt>
      <trkpt lat="43.61312" lon="6.9453">
        <ele>75.2000122</ele>
        <time>2017-07-11T16:03:06Z</time>
      </trkpt>
      <trkpt lat="43.61319" lon="6.94528">
        <ele>75.5999756</ele>
        <time>2017-07-11T16:03:08Z</time>
      </trkpt>
      <trkpt lat="43.61322" lon="6.94529">
        <ele>75.7999878</ele>
        <time>2017-07-11T16:03:09Z</time>
      </trkpt>
      <trkpt lat="43.61341" lon="6.94534">
        <ele>76.4000244</ele>
        <time>2017-07-11T16:03:15Z</time>
      </trkpt>
      <trkpt lat="43.61362" lon="6.94539">
        <ele>76.7999878</ele>
        <time>2017-07-11T16:03:22Z</time>
      </trkpt>
      <trkpt lat="43.61378" lon="6.94547">
        <ele>76.7999878</ele>
        <time>2017-07-11T16:03:28Z</time>
      </trkpt>
      <trkpt lat="43.61397" lon="6.94563">
        <ele>75.2000122</ele>
        <time>2017-07-11T16:03:35Z</time>
      </trkpt>
      <trkpt lat="43.61417" lon="6.94571">
        <ele>74.2000122</ele>
        <time>2017-07-11T16:03:43Z</time>
      </trkpt>
      <trkpt lat="43.61425" lon="6.9457">
        <ele>74.2000122</ele>
        <time>2017-07-11T16:03:47Z</time>
      </trkpt>
      <trkpt lat="43.61429" lon="6.94568">
        <ele>74</ele>
        <time>2017-07-11T16:03:49Z</time>
      </trkpt>
      <trkpt lat="43.61438" lon="6.94558">
        <ele>74.4000244</ele>
        <time>2017-07-11T16:03:54Z</time>
      </trkpt>
      <trkpt lat="43.61452" lon="6.94548">
        <ele>74</ele>
        <time>2017-07-11T16:04:00Z</time>
      </trkpt>
      <trkpt lat="43.61463" lon="6.94534">
        <ele>73.7999878</ele>
        <time>2017-07-11T16:04:06Z</time>
      </trkpt>
      <trkpt lat="43.61478" lon="6.94518">
        <ele>73</ele>
        <time>2017-07-11T16:04:13Z</time>
      </trkpt>
      <trkpt lat="43.6148" lon="6.94516">
        <ele>72.7999878</ele>
        <time>2017-07-11T16:04:14Z</time>
      </trkpt>
      <trkpt lat="43.61486" lon="6.94514">
        <ele>72</ele>
        <time>2017-07-11T16:04:16Z</time>
      </trkpt>
      <trkpt lat="43.61497" lon="6.94512">
        <ele>71</ele>
        <time>2017-07-11T16:04:20Z</time>
      </trkpt>
      <trkpt lat="43.61527" lon="6.94516">
        <ele>71.2000122</ele>
        <time>2017-07-11T16:04:29Z</time>
      </trkpt>
      <trkpt lat="43.6153" lon="6.94516">
        <ele>71</ele>
        <time>2017-07-11T16:04:30Z</time>
      </trkpt>
      <trkpt lat="43.61553" lon="6.94521">
        <ele>70.5999756</ele>
        <time>2017-07-11T16:04:37Z</time>
      </trkpt>
      <trkpt lat="43.61559" lon="6.94523">
        <ele>69.7999878</ele>
        <time>2017-07-11T16:04:39Z</time>
      </trkpt>
      <trkpt lat="43.61567" lon="6.94531">
        <ele>69.4000244</ele>
        <time>2017-07-11T16:04:42Z</time>
      </trkpt>
      <trkpt lat="43.61576" lon="6.94542">
        <ele>69</ele>
        <time>2017-07-11T16:04:45Z</time>
      </trkpt>
      <trkpt lat="43.6158" lon="6.94544">
        <ele>69</ele>
        <time>2017-07-11T16:04:46Z</time>
      </trkpt>
      <trkpt lat="43.61589" lon="6.94546">
        <ele>68.4000244</ele>
        <time>2017-07-11T16:04:48Z</time>
      </trkpt>
      <trkpt lat="43.616" lon="6.9455">
        <ele>68</ele>
        <time>2017-07-11T16:04:50Z</time>
      </trkpt>
      <trkpt lat="43.61612" lon="6.94556">
        <ele>68</ele>
        <time>2017-07-11T16:04:53Z</time>
      </trkpt>
      <trkpt lat="43.61621" lon="6.94553">
        <ele>68.7999878</ele>
        <time>2017-07-11T16:04:56Z</time>
      </trkpt>
      <trkpt lat="43.61627" lon="6.94552">
        <ele>69.4000244</ele>
        <time>2017-07-11T16:04:58Z</time>
      </trkpt>
      <trkpt lat="43.61629" lon="6.94551">
        <ele>69.5999756</ele>
        <time>2017-07-11T16:04:59Z</time>
      </trkpt>
      <trkpt lat="43.61639" lon="6.94549">
        <ele>70.2000122</ele>
        <time>2017-07-11T16:05:04Z</time>
      </trkpt>
      <trkpt lat="43.61644" lon="6.94548">
        <ele>70.7999878</ele>
        <time>2017-07-11T16:05:07Z</time>
      </trkpt>
      <trkpt lat="43.61649" lon="6.94546">
        <ele>71.5999756</ele>
        <time>2017-07-11T16:05:10Z</time>
      </trkpt>
      <trkpt lat="43.61653" lon="6.94545">
        <ele>72</ele>
        <time>2017-07-11T16:05:12Z</time>
      </trkpt>
      <trkpt lat="43.61659" lon="6.94541">
        <ele>73</ele>
        <time>2017-07-11T16:05:16Z</time>
      </trkpt>
      <trkpt lat="43.61665" lon="6.94531">
        <ele>74</ele>
        <time>2017-07-11T16:05:21Z</time>
      </trkpt>
      <trkpt lat="43.61667" lon="6.94529">
        <ele>74</ele>
        <time>2017-07-11T16:05:22Z</time>
      </trkpt>
      <trkpt lat="43.61669" lon="6.94524">
        <ele>74.5999756</ele>
        <time>2017-07-11T16:05:26Z</time>
      </trkpt>
      <trkpt lat="43.61669" lon="6.94521">
        <ele>74.7999878</ele>
        <time>2017-07-11T16:05:28Z</time>
      </trkpt>
      <trkpt lat="43.61667" lon="6.94515">
        <ele>75</ele>
        <time>2017-07-11T16:05:30Z</time>
      </trkpt>
      <trkpt lat="43.61667" lon="6.94512">
        <ele>75.2000122</ele>
        <time>2017-07-11T16:05:31Z</time>
      </trkpt>
      <trkpt lat="43.61668" lon="6.94506">
        <ele>75.5999756</ele>
        <time>2017-07-11T16:05:34Z</time>
      </trkpt>
      <trkpt lat="43.6167" lon="6.94492">
        <ele>75.7999878</ele>
        <time>2017-07-11T16:05:40Z</time>
      </trkpt>
      <trkpt lat="43.61672" lon="6.94492">
        <ele>75.7999878</ele>
        <time>2017-07-11T16:05:41Z</time>
      </trkpt>
      <trkpt lat="43.61676" lon="6.94499">
        <ele>76.2000122</ele>
        <time>2017-07-11T16:05:45Z</time>
      </trkpt>
      <trkpt lat="43.61677" lon="6.94501">
        <ele>76.2000122</ele>
        <time>2017-07-11T16:05:46Z</time>
      </trkpt>
      <trkpt lat="43.61677" lon="6.94501">
        <ele>76.4000244</ele>
        <time>2017-07-11T16:05:47Z</time>
      </trkpt>
      <trkpt lat="43.61676" lon="6.94501">
        <ele>76.5999756</ele>
        <time>2017-07-11T16:05:51Z</time>
      </trkpt>
      <trkpt lat="43.61676" lon="6.945">
        <ele>76.7999878</ele>
        <time>2017-07-11T16:05:52Z</time>
      </trkpt>
      <trkpt lat="43.61675" lon="6.94498">
        <ele>76.7999878</ele>
        <time>2017-07-11T16:05:55Z</time>
      </trkpt>
      <trkpt lat="43.61673" lon="6.94495">
        <ele>77</ele>
        <time>2017-07-11T16:05:56Z</time>
      </trkpt>
      <trkpt lat="43.61671" lon="6.94482">
        <ele>76.5999756</ele>
        <time>2017-07-11T16:06:00Z</time>
      </trkpt>
      <trkpt lat="43.61671" lon="6.94464">
        <ele>76.7999878</ele>
        <time>2017-07-11T16:06:07Z</time>
      </trkpt>
      <trkpt lat="43.6167" lon="6.94454">
        <ele>77.5999756</ele>
        <time>2017-07-11T16:06:12Z</time>
      </trkpt>
      <trkpt lat="43.6167" lon="6.94448">
        <ele>77.7999878</ele>
        <time>2017-07-11T16:06:15Z</time>
      </trkpt>
      <trkpt lat="43.61669" lon="6.94442">
        <ele>78.2000122</ele>
        <time>2017-07-11T16:06:20Z</time>
      </trkpt>
      <trkpt lat="43.61669" lon="6.94442">
        <ele>78.2000122</ele>
        <time>2017-07-11T16:06:31Z</time>
      </trkpt>
      <trkpt lat="43.61669" lon="6.94442">
        <ele>78.2000122</ele>
        <time>2017-07-11T16:06:38Z</time>
      </trkpt>
      <trkpt lat="43.61669" lon="6.9444">
        <ele>78.7999878</ele>
        <time>2017-07-11T16:06:41Z</time>
      </trkpt>
      <trkpt lat="43.61668" lon="6.94436">
        <ele>79.5999756</ele>
        <time>2017-07-11T16:06:44Z</time>
      </trkpt>
      <trkpt lat="43.61666" lon="6.94429">
        <ele>79.7999878</ele>
        <time>2017-07-11T16:06:47Z</time>
      </trkpt>
      <trkpt lat="43.61664" lon="6.9442">
        <ele>80.4000244</ele>
        <time>2017-07-11T16:06:51Z</time>
      </trkpt>
      <trkpt lat="43.61663" lon="6.94415">
        <ele>81</ele>
        <time>2017-07-11T16:06:53Z</time>
      </trkpt>
      <trkpt lat="43.6166" lon="6.94401">
        <ele>81.5999756</ele>
        <time>2017-07-11T16:06:58Z</time>
      </trkpt>
      <trkpt lat="43.61658" lon="6.94395">
        <ele>82.2000122</ele>
        <time>2017-07-11T16:07:00Z</time>
      </trkpt>
      <trkpt lat="43.61655" lon="6.94381">
        <ele>83.5999756</ele>
        <time>2017-07-11T16:07:04Z</time>
      </trkpt>
      <trkpt lat="43.61653" lon="6.94375">
        <ele>84</ele>
        <time>2017-07-11T16:07:06Z</time>
      </trkpt>
      <trkpt lat="43.61651" lon="6.94364">
        <ele>84.7999878</ele>
        <time>2017-07-11T16:07:09Z</time>
      </trkpt>
      <trkpt lat="43.61647" lon="6.94353">
        <ele>85.5999756</ele>
        <time>2017-07-11T16:07:12Z</time>
      </trkpt>
      <trkpt lat="43.61646" lon="6.9435">
        <ele>86</ele>
        <time>2017-07-11T16:07:13Z</time>
      </trkpt>
      <trkpt lat="43.61641" lon="6.94339">
        <ele>87.2000122</ele>
        <time>2017-07-11T16:07:16Z</time>
      </trkpt>
      <trkpt lat="43.61636" lon="6.94327">
        <ele>88.2000122</ele>
        <time>2017-07-11T16:07:20Z</time>
      </trkpt>
      <trkpt lat="43.61635" lon="6.94324">
        <ele>88.5999756</ele>
        <time>2017-07-11T16:07:21Z</time>
      </trkpt>
      <trkpt lat="43.61632" lon="6.94314">
        <ele>89.5999756</ele>
        <time>2017-07-11T16:07:24Z</time>
      </trkpt>
      <trkpt lat="43.61628" lon="6.94306">
        <ele>90.5999756</ele>
        <time>2017-07-11T16:07:27Z</time>
      </trkpt>
      <trkpt lat="43.61625" lon="6.94301">
        <ele>91.2000122</ele>
        <time>2017-07-11T16:07:29Z</time>
      </trkpt>
      <trkpt lat="43.61624" lon="6.94299">
        <ele>91.5999756</ele>
        <time>2017-07-11T16:07:30Z</time>
      </trkpt>
      <trkpt lat="43.6162" lon="6.94292">
        <ele>92.7999878</ele>
        <time>2017-07-11T16:07:33Z</time>
      </trkpt>
      <trkpt lat="43.61618" lon="6.94288">
        <ele>93.7999878</ele>
        <time>2017-07-11T16:07:35Z</time>
      </trkpt>
      <trkpt lat="43.61617" lon="6.94286">
        <ele>94.2000122</ele>
        <time>2017-07-11T16:07:36Z</time>
      </trkpt>
      <trkpt lat="43.61611" lon="6.94277">
        <ele>95.2000122</ele>
        <time>2017-07-11T16:07:40Z</time>
      </trkpt>
      <trkpt lat="43.61608" lon="6.94273">
        <ele>95.7999878</ele>
        <time>2017-07-11T16:07:42Z</time>
      </trkpt>
      <trkpt lat="43.61603" lon="6.94265">
        <ele>96.2000122</ele>
        <time>2017-07-11T16:07:46Z</time>
      </trkpt>
      <trkpt lat="43.61598" lon="6.94259">
        <ele>97</ele>
        <time>2017-07-11T16:07:49Z</time>
      </trkpt>
      <trkpt lat="43.61597" lon="6.94257">
        <ele>97.4000244</ele>
        <time>2017-07-11T16:07:50Z</time>
      </trkpt>
      <trkpt lat="43.61594" lon="6.94251">
        <ele>98.5999756</ele>
        <time>2017-07-11T16:07:53Z</time>
      </trkpt>
      <trkpt lat="43.61591" lon="6.94245">
        <ele>99.7999878</ele>
        <time>2017-07-11T16:07:56Z</time>
      </trkpt>
      <trkpt lat="43.6159" lon="6.94244">
        <ele>100.2000122</ele>
        <time>2017-07-11T16:07:57Z</time>
      </trkpt>
      <trkpt lat="43.61586" lon="6.94238">
        <ele>100.7999878</ele>
        <time>2017-07-11T16:08:00Z</time>
      </trkpt>
      <trkpt lat="43.61583" lon="6.94233">
        <ele>101.7999878</ele>
        <time>2017-07-11T16:08:03Z</time>
      </trkpt>
      <trkpt lat="43.61583" lon="6.94232">
        <ele>102.5999756</ele>
        <time>2017-07-11T16:08:05Z</time>
      </trkpt>
      <trkpt lat="43.61583" lon="6.94232">
        <ele>102.5999756</ele>
        <time>2017-07-11T16:08:18Z</time>
      </trkpt>
      <trkpt lat="43.61583" lon="6.94232">
        <ele>102.5999756</ele>
        <time>2017-07-11T16:08:34Z</time>
      </trkpt>
      <trkpt lat="43.61583" lon="6.94229">
        <ele>103.4000244</ele>
        <time>2017-07-11T16:08:39Z</time>
      </trkpt>
      <trkpt lat="43.61582" lon="6.94225">
        <ele>104.5999756</ele>
        <time>2017-07-11T16:08:41Z</time>
      </trkpt>
      <trkpt lat="43.61577" lon="6.94212">
        <ele>106</ele>
        <time>2017-07-11T16:08:46Z</time>
      </trkpt>
      <trkpt lat="43.61577" lon="6.9421">
        <ele>106.7999878</ele>
        <time>2017-07-11T16:08:47Z</time>
      </trkpt>
      <trkpt lat="43.61576" lon="6.94207">
        <ele>107.2000122</ele>
        <time>2017-07-11T16:08:48Z</time>
      </trkpt>
      <trkpt lat="43.61574" lon="6.94202">
        <ele>108.5999756</ele>
        <time>2017-07-11T16:08:50Z</time>
      </trkpt>
      <trkpt lat="43.61572" lon="6.94196">
        <ele>109.5999756</ele>
        <time>2017-07-11T16:08:52Z</time>
      </trkpt>
      <trkpt lat="43.61572" lon="6.94193">
        <ele>109.7999878</ele>
        <time>2017-07-11T16:08:53Z</time>
      </trkpt>
      <trkpt lat="43.61569" lon="6.94184">
        <ele>110.7999878</ele>
        <time>2017-07-11T16:08:56Z</time>
      </trkpt>
      <trkpt lat="43.61567" lon="6.94174">
        <ele>112.2000122</ele>
        <time>2017-07-11T16:08:59Z</time>
      </trkpt>
      <trkpt lat="43.61566" lon="6.94172">
        <ele>112.7999878</ele>
        <time>2017-07-11T16:09:00Z</time>
      </trkpt>
      <trkpt lat="43.61564" lon="6.94166">
        <ele>113.4000244</ele>
        <time>2017-07-11T16:09:02Z</time>
      </trkpt>
      <trkpt lat="43.61559" lon="6.94147">
        <ele>114.2000122</ele>
        <time>2017-07-11T16:09:08Z</time>
      </trkpt>
      <trkpt lat="43.61557" lon="6.94142">
        <ele>114.4000244</ele>
        <time>2017-07-11T16:09:10Z</time>
      </trkpt>
      <trkpt lat="43.61557" lon="6.94134">
        <ele>114.7999878</ele>
        <time>2017-07-11T16:09:13Z</time>
      </trkpt>
      <trkpt lat="43.61562" lon="6.94119">
        <ele>115.2000122</ele>
        <time>2017-07-11T16:09:19Z</time>
      </trkpt>
      <trkpt lat="43.61564" lon="6.94117">
        <ele>115.5999756</ele>
        <time>2017-07-11T16:09:21Z</time>
      </trkpt>
      <trkpt lat="43.61565" lon="6.94117">
        <ele>116.2000122</ele>
        <time>2017-07-11T16:09:25Z</time>
      </trkpt>
      <trkpt lat="43.61565" lon="6.94117">
        <ele>116.2000122</ele>
        <time>2017-07-11T16:09:34Z</time>
      </trkpt>
      <trkpt lat="43.61565" lon="6.94117">
        <ele>116.2000122</ele>
        <time>2017-07-11T16:09:43Z</time>
      </trkpt>
      <trkpt lat="43.61565" lon="6.94117">
        <ele>116.4000244</ele>
        <time>2017-07-11T16:09:52Z</time>
      </trkpt>
      <trkpt lat="43.61565" lon="6.94117">
        <ele>116.4000244</ele>
        <time>2017-07-11T16:10:07Z</time>
      </trkpt>
      <trkpt lat="43.61565" lon="6.94117">
        <ele>116.4000244</ele>
        <time>2017-07-11T16:10:22Z</time>
      </trkpt>
      <trkpt lat="43.61565" lon="6.94117">
        <ele>117.2000122</ele>
        <time>2017-07-11T16:10:32Z</time>
      </trkpt>
      <trkpt lat="43.61565" lon="6.94117">
        <ele>116.7999878</ele>
        <time>2017-07-11T16:10:36Z</time>
      </trkpt>
      <trkpt lat="43.61564" lon="6.94117">
        <ele>118</ele>
        <time>2017-07-11T16:10:48Z</time>
      </trkpt>
      <trkpt lat="43.61564" lon="6.94117">
        <ele>118</ele>
        <time>2017-07-11T16:10:57Z</time>
      </trkpt>
      <trkpt lat="43.61564" lon="6.94117">
        <ele>118</ele>
        <time>2017-07-11T16:11:08Z</time>
      </trkpt>
      <trkpt lat="43.61564" lon="6.94117">
        <ele>118</ele>
        <time>2017-07-11T16:11:16Z</time>
      </trkpt>
      <trkpt lat="43.61564" lon="6.94118">
        <ele>118.4000244</ele>
        <time>2017-07-11T16:11:28Z</time>
      </trkpt>
      <trkpt lat="43.61564" lon="6.94118">
        <ele>118.4000244</ele>
        <time>2017-07-11T16:11:37Z</time>
      </trkpt>
      <trkpt lat="43.61564" lon="6.94118">
        <ele>118.4000244</ele>
        <time>2017-07-11T16:11:51Z</time>
      </trkpt>
      <trkpt lat="43.61564" lon="6.94118">
        <ele>118.4000244</ele>
        <time>2017-07-11T16:12:05Z</time>
      </trkpt>
      <trkpt lat="43.61563" lon="6.94118">
        <ele>118.4000244</ele>
        <time>2017-07-11T16:12:16Z</time>
      </trkpt>
      <trkpt lat="43.61565" lon="6.94119">
        <ele>118.7999878</ele>
        <time>2017-07-11T16:12:25Z</time>
      </trkpt>
      <trkpt lat="43.61573" lon="6.94121">
        <ele>118.5999756</ele>
        <time>2017-07-11T16:12:30Z</time>
      </trkpt>
      <trkpt lat="43.6158" lon="6.94128">
        <ele>119.2000122</ele>
        <time>2017-07-11T16:12:35Z</time>
      </trkpt>
      <trkpt lat="43.61582" lon="6.94129">
        <ele>119.4000244</ele>
        <time>2017-07-11T16:12:36Z</time>
      </trkpt>
      <trkpt lat="43.61583" lon="6.94131">
        <ele>119.5999756</ele>
        <time>2017-07-11T16:12:37Z</time>
      </trkpt>
      <trkpt lat="43.61593" lon="6.94132">
        <ele>120.5999756</ele>
        <time>2017-07-11T16:12:43Z</time>
      </trkpt>
      <trkpt lat="43.61601" lon="6.94127">
        <ele>121.5999756</ele>
        <time>2017-07-11T16:12:49Z</time>
      </trkpt>
      <trkpt lat="43.61604" lon="6.94125">
        <ele>121.7999878</ele>
        <time>2017-07-11T16:12:51Z</time>
      </trkpt>
      <trkpt lat="43.61615" lon="6.94121">
        <ele>122</ele>
        <time>2017-07-11T16:12:59Z</time>
      </trkpt>
      <trkpt lat="43.6162" lon="6.94121">
        <ele>122.7999878</ele>
        <time>2017-07-11T16:13:03Z</time>
      </trkpt>
      <trkpt lat="43.61626" lon="6.94119">
        <ele>124</ele>
        <time>2017-07-11T16:13:07Z</time>
      </trkpt>
      <trkpt lat="43.61628" lon="6.94117">
        <ele>124.4000244</ele>
        <time>2017-07-11T16:13:09Z</time>
      </trkpt>
      <trkpt lat="43.61634" lon="6.94116">
        <ele>125</ele>
        <time>2017-07-11T16:13:13Z</time>
      </trkpt>
      <trkpt lat="43.61639" lon="6.94114">
        <ele>125.7999878</ele>
        <time>2017-07-11T16:13:16Z</time>
      </trkpt>
      <trkpt lat="43.6164" lon="6.94114">
        <ele>126.2000122</ele>
        <time>2017-07-11T16:13:17Z</time>
      </trkpt>
      <trkpt lat="43.61652" lon="6.94112">
        <ele>127.5999756</ele>
        <time>2017-07-11T16:13:25Z</time>
      </trkpt>
      <trkpt lat="43.61661" lon="6.9411">
        <ele>128.4000244</ele>
        <time>2017-07-11T16:13:31Z</time>
      </trkpt>
      <trkpt lat="43.61665" lon="6.9411">
        <ele>128.5999756</ele>
        <time>2017-07-11T16:13:33Z</time>
      </trkpt>
      <trkpt lat="43.61673" lon="6.94107">
        <ele>129.7999878</ele>
        <time>2017-07-11T16:13:39Z</time>
      </trkpt>
      <trkpt lat="43.61678" lon="6.94106">
        <ele>131</ele>
        <time>2017-07-11T16:13:42Z</time>
      </trkpt>
      <trkpt lat="43.61684" lon="6.94104">
        <ele>131.5999756</ele>
        <time>2017-07-11T16:13:46Z</time>
      </trkpt>
      <trkpt lat="43.61687" lon="6.94103">
        <ele>132</ele>
        <time>2017-07-11T16:13:48Z</time>
      </trkpt>
      <trkpt lat="43.61696" lon="6.94101">
        <ele>133</ele>
        <time>2017-07-11T16:13:54Z</time>
      </trkpt>
      <trkpt lat="43.61706" lon="6.94099">
        <ele>133</ele>
        <time>2017-07-11T16:14:00Z</time>
      </trkpt>
      <trkpt lat="43.61709" lon="6.94098">
        <ele>133.4000244</ele>
        <time>2017-07-11T16:14:02Z</time>
      </trkpt>
      <trkpt lat="43.61715" lon="6.94097">
        <ele>134.2000122</ele>
        <time>2017-07-11T16:14:06Z</time>
      </trkpt>
      <trkpt lat="43.61722" lon="6.94097">
        <ele>134.7999878</ele>
        <time>2017-07-11T16:14:10Z</time>
      </trkpt>
      <trkpt lat="43.61725" lon="6.94096">
        <ele>135.4000244</ele>
        <time>2017-07-11T16:14:12Z</time>
      </trkpt>
      <trkpt lat="43.61732" lon="6.94096">
        <ele>136.5999756</ele>
        <time>2017-07-11T16:14:17Z</time>
      </trkpt>
      <trkpt lat="43.61735" lon="6.94094">
        <ele>137.2000122</ele>
        <time>2017-07-11T16:14:19Z</time>
      </trkpt>
      <trkpt lat="43.61737" lon="6.94094">
        <ele>137.5999756</ele>
        <time>2017-07-11T16:14:20Z</time>
      </trkpt>
      <trkpt lat="43.61742" lon="6.94095">
        <ele>138.7999878</ele>
        <time>2017-07-11T16:14:23Z</time>
      </trkpt>
      <trkpt lat="43.61746" lon="6.94095">
        <ele>140.2000122</ele>
        <time>2017-07-11T16:14:26Z</time>
      </trkpt>
      <trkpt lat="43.61755" lon="6.94095">
        <ele>141.4000244</ele>
        <time>2017-07-11T16:14:31Z</time>
      </trkpt>
      <trkpt lat="43.6176" lon="6.94097">
        <ele>142.2000122</ele>
        <time>2017-07-11T16:14:34Z</time>
      </trkpt>
      <trkpt lat="43.61761" lon="6.94097">
        <ele>142.4000244</ele>
        <time>2017-07-11T16:14:35Z</time>
      </trkpt>
      <trkpt lat="43.61768" lon="6.94099">
        <ele>143.4000244</ele>
        <time>2017-07-11T16:14:39Z</time>
      </trkpt>
      <trkpt lat="43.61775" lon="6.94102">
        <ele>144.4000244</ele>
        <time>2017-07-11T16:14:43Z</time>
      </trkpt>
      <trkpt lat="43.61777" lon="6.94103">
        <ele>144.7999878</ele>
        <time>2017-07-11T16:14:44Z</time>
      </trkpt>
      <trkpt lat="43.61785" lon="6.94108">
        <ele>145.5999756</ele>
        <time>2017-07-11T16:14:50Z</time>
      </trkpt>
      <trkpt lat="43.61787" lon="6.9411">
        <ele>145.7999878</ele>
        <time>2017-07-11T16:14:51Z</time>
      </trkpt>
      <trkpt lat="43.61795" lon="6.94118">
        <ele>146.2000122</ele>
        <time>2017-07-11T16:14:56Z</time>
      </trkpt>
      <trkpt lat="43.61799" lon="6.94122">
        <ele>146.7999878</ele>
        <time>2017-07-11T16:14:59Z</time>
      </trkpt>
      <trkpt lat="43.61801" lon="6.94122">
        <ele>147</ele>
        <time>2017-07-11T16:15:00Z</time>
      </trkpt>
      <trkpt lat="43.61804" lon="6.94125">
        <ele>147</ele>
        <time>2017-07-11T16:15:02Z</time>
      </trkpt>
      <trkpt lat="43.61805" lon="6.94126">
        <ele>146.7999878</ele>
        <time>2017-07-11T16:15:03Z</time>
      </trkpt>
      <trkpt lat="43.61816" lon="6.94135">
        <ele>147.4000244</ele>
        <time>2017-07-11T16:15:10Z</time>
      </trkpt>
      <trkpt lat="43.61817" lon="6.94136">
        <ele>147.5999756</ele>
        <time>2017-07-11T16:15:11Z</time>
      </trkpt>
      <trkpt lat="43.61825" lon="6.94142">
        <ele>147.4000244</ele>
        <time>2017-07-11T16:15:17Z</time>
      </trkpt>
      <trkpt lat="43.61824" lon="6.94142">
        <ele>147.5999756</ele>
        <time>2017-07-11T16:15:23Z</time>
      </trkpt>
      <trkpt lat="43.61824" lon="6.94142">
        <ele>147.4000244</ele>
        <time>2017-07-11T16:15:30Z</time>
      </trkpt>
      <trkpt lat="43.61824" lon="6.94142">
        <ele>147.4000244</ele>
        <time>2017-07-11T16:15:40Z</time>
      </trkpt>
      <trkpt lat="43.61824" lon="6.94142">
        <ele>147.4000244</ele>
        <time>2017-07-11T16:15:51Z</time>
      </trkpt>
      <trkpt lat="43.61824" lon="6.94142">
        <ele>147.4000244</ele>
        <time>2017-07-11T16:15:59Z</time>
      </trkpt>
      <trkpt lat="43.61824" lon="6.94142">
        <ele>147.2000122</ele>
        <time>2017-07-11T16:16:12Z</time>
      </trkpt>
      <trkpt lat="43.61824" lon="6.94142">
        <ele>147.2000122</ele>
        <time>2017-07-11T16:16:22Z</time>
      </trkpt>
      <trkpt lat="43.61824" lon="6.94142">
        <ele>147.2000122</ele>
        <time>2017-07-11T16:16:35Z</time>
      </trkpt>
      <trkpt lat="43.61824" lon="6.94142">
        <ele>147.2000122</ele>
        <time>2017-07-11T16:16:42Z</time>
      </trkpt>
      <trkpt lat="43.61824" lon="6.94142">
        <ele>146.7999878</ele>
        <time>2017-07-11T16:16:52Z</time>
      </trkpt>
      <trkpt lat="43.61824" lon="6.94142">
        <ele>146.7999878</ele>
        <time>2017-07-11T16:17:04Z</time>
      </trkpt>
      <trkpt lat="43.61824" lon="6.94142">
        <ele>146.7999878</ele>
        <time>2017-07-11T16:17:17Z</time>
      </trkpt>
      <trkpt lat="43.61824" lon="6.94142">
        <ele>146.7999878</ele>
        <time>2017-07-11T16:17:30Z</time>
      </trkpt>
      <trkpt lat="43.61824" lon="6.94142">
        <ele>146.5999756</ele>
        <time>2017-07-11T16:17:45Z</time>
      </trkpt>
      <trkpt lat="43.61824" lon="6.94142">
        <ele>146.5999756</ele>
        <time>2017-07-11T16:18:02Z</time>
      </trkpt>
      <trkpt lat="43.61824" lon="6.94142">
        <ele>146.5999756</ele>
        <time>2017-07-11T16:18:19Z</time>
      </trkpt>
      <trkpt lat="43.61824" lon="6.94142">
        <ele>146.5999756</ele>
        <time>2017-07-11T16:18:33Z</time>
      </trkpt>
      <trkpt lat="43.61824" lon="6.94142">
        <ele>146.5999756</ele>
        <time>2017-07-11T16:18:45Z</time>
      </trkpt>
      <trkpt lat="43.61834" lon="6.94148">
        <ele>146</ele>
        <time>2017-07-11T16:18:51Z</time>
      </trkpt>
      <trkpt lat="43.61841" lon="6.94153">
        <ele>145.5999756</ele>
        <time>2017-07-11T16:18:54Z</time>
      </trkpt>
      <trkpt lat="43.61848" lon="6.94157">
        <ele>144.4000244</ele>
        <time>2017-07-11T16:18:57Z</time>
      </trkpt>
      <trkpt lat="43.61851" lon="6.94158">
        <ele>144</ele>
        <time>2017-07-11T16:18:58Z</time>
      </trkpt>
      <trkpt lat="43.61855" lon="6.94161">
        <ele>143.2000122</ele>
        <time>2017-07-11T16:19:00Z</time>
      </trkpt>
      <trkpt lat="43.61862" lon="6.94167">
        <ele>142.4000244</ele>
        <time>2017-07-11T16:19:02Z</time>
      </trkpt>
      <trkpt lat="43.61865" lon="6.94171">
        <ele>142</ele>
        <time>2017-07-11T16:19:03Z</time>
      </trkpt>
      <trkpt lat="43.61871" lon="6.94177">
        <ele>140.7999878</ele>
        <time>2017-07-11T16:19:05Z</time>
      </trkpt>
      <trkpt lat="43.61876" lon="6.94183">
        <ele>139.5999756</ele>
        <time>2017-07-11T16:19:07Z</time>
      </trkpt>
      <trkpt lat="43.61881" lon="6.94189">
        <ele>138.4000244</ele>
        <time>2017-07-11T16:19:09Z</time>
      </trkpt>
      <trkpt lat="43.61885" lon="6.94193">
        <ele>137.2000122</ele>
        <time>2017-07-11T16:19:13Z</time>
      </trkpt>
      <trkpt lat="43.61893" lon="6.94199">
        <ele>135.7999878</ele>
        <time>2017-07-11T16:19:17Z</time>
      </trkpt>
      <trkpt lat="43.61898" lon="6.94201">
        <ele>135.5999756</ele>
        <time>2017-07-11T16:19:19Z</time>
      </trkpt>
      <trkpt lat="43.6191" lon="6.94204">
        <ele>135.2000122</ele>
        <time>2017-07-11T16:19:24Z</time>
      </trkpt>
      <trkpt lat="43.61919" lon="6.94203">
        <ele>134.5999756</ele>
        <time>2017-07-11T16:19:27Z</time>
      </trkpt>
      <trkpt lat="43.61931" lon="6.94203">
        <ele>134</ele>
        <time>2017-07-11T16:19:31Z</time>
      </trkpt>
      <trkpt lat="43.61948" lon="6.94206">
        <ele>133.4000244</ele>
        <time>2017-07-11T16:19:38Z</time>
      </trkpt>
      <trkpt lat="43.61962" lon="6.9421">
        <ele>132.7999878</ele>
        <time>2017-07-11T16:19:44Z</time>
      </trkpt>
      <trkpt lat="43.61963" lon="6.94211">
        <ele>133.4000244</ele>
        <time>2017-07-11T16:19:49Z</time>
      </trkpt>
      <trkpt lat="43.61963" lon="6.94211">
        <ele>133.4000244</ele>
        <time>2017-07-11T16:20:03Z</time>
      </trkpt>
      <trkpt lat="43.61963" lon="6.94211">
        <ele>133.4000244</ele>
        <time>2017-07-11T16:20:14Z</time>
      </trkpt>
      <trkpt lat="43.61963" lon="6.94211">
        <ele>133.4000244</ele>
        <time>2017-07-11T16:20:25Z</time>
      </trkpt>
      <trkpt lat="43.61963" lon="6.94211">
        <ele>133.4000244</ele>
        <time>2017-07-11T16:20:41Z</time>
      </trkpt>
      <trkpt lat="43.61963" lon="6.94211">
        <ele>133.4000244</ele>
        <time>2017-07-11T16:20:54Z</time>
      </trkpt>
      <trkpt lat="43.61963" lon="6.94211">
        <ele>133.4000244</ele>
        <time>2017-07-11T16:21:08Z</time>
      </trkpt>
      <trkpt lat="43.61963" lon="6.94211">
        <ele>133.4000244</ele>
        <time>2017-07-11T16:21:22Z</time>
      </trkpt>
      <trkpt lat="43.61963" lon="6.94211">
        <ele>133.4000244</ele>
        <time>2017-07-11T16:21:38Z</time>
      </trkpt>
      <trkpt lat="43.61963" lon="6.94211">
        <ele>133.2000122</ele>
        <time>2017-07-11T16:21:58Z</time>
      </trkpt>
      <trkpt lat="43.61963" lon="6.94211">
        <ele>133.2000122</ele>
        <time>2017-07-11T16:22:13Z</time>
      </trkpt>
      <trkpt lat="43.61966" lon="6.94213">
        <ele>133.2000122</ele>
        <time>2017-07-11T16:22:29Z</time>
      </trkpt>
      <trkpt lat="43.61972" lon="6.94214">
        <ele>134</ele>
        <time>2017-07-11T16:22:35Z</time>
      </trkpt>
      <trkpt lat="43.61979" lon="6.94213">
        <ele>134.5999756</ele>
        <time>2017-07-11T16:22:38Z</time>
      </trkpt>
      <trkpt lat="43.61987" lon="6.94212">
        <ele>135.2000122</ele>
        <time>2017-07-11T16:22:41Z</time>
      </trkpt>
      <trkpt lat="43.61994" lon="6.94211">
        <ele>135.5999756</ele>
        <time>2017-07-11T16:22:43Z</time>
      </trkpt>
      <trkpt lat="43.62011" lon="6.94204">
        <ele>136</ele>
        <time>2017-07-11T16:22:48Z</time>
      </trkpt>
      <trkpt lat="43.62032" lon="6.94195">
        <ele>134.5999756</ele>
        <time>2017-07-11T16:22:53Z</time>
      </trkpt>
      <trkpt lat="43.62045" lon="6.9419">
        <ele>133</ele>
        <time>2017-07-11T16:22:56Z</time>
      </trkpt>
      <trkpt lat="43.62052" lon="6.94188">
        <ele>131.4000244</ele>
        <time>2017-07-11T16:22:58Z</time>
      </trkpt>
      <trkpt lat="43.62058" lon="6.94185">
        <ele>130</ele>
        <time>2017-07-11T16:23:00Z</time>
      </trkpt>
      <trkpt lat="43.62065" lon="6.94183">
        <ele>129</ele>
        <time>2017-07-11T16:23:02Z</time>
      </trkpt>
      <trkpt lat="43.62069" lon="6.94182">
        <ele>128.5999756</ele>
        <time>2017-07-11T16:23:03Z</time>
      </trkpt>
      <trkpt lat="43.6208" lon="6.94175">
        <ele>127.7999878</ele>
        <time>2017-07-11T16:23:06Z</time>
      </trkpt>
      <trkpt lat="43.62085" lon="6.94167">
        <ele>127</ele>
        <time>2017-07-11T16:23:08Z</time>
      </trkpt>
      <trkpt lat="43.62086" lon="6.94163">
        <ele>126.5999756</ele>
        <time>2017-07-11T16:23:09Z</time>
      </trkpt>
      <trkpt lat="43.62086" lon="6.94161">
        <ele>125.7999878</ele>
        <time>2017-07-11T16:23:11Z</time>
      </trkpt>
      <trkpt lat="43.62088" lon="6.94156">
        <ele>125.4000244</ele>
        <time>2017-07-11T16:23:16Z</time>
      </trkpt>
      <trkpt lat="43.62089" lon="6.94152">
        <ele>125.2000122</ele>
        <time>2017-07-11T16:23:17Z</time>
      </trkpt>
      <trkpt lat="43.62093" lon="6.94137">
        <ele>124.2000122</ele>
        <time>2017-07-11T16:23:20Z</time>
      </trkpt>
      <trkpt lat="43.62096" lon="6.94127">
        <ele>123.5999756</ele>
        <time>2017-07-11T16:23:22Z</time>
      </trkpt>
      <trkpt lat="43.62093" lon="6.94115">
        <ele>123.2000122</ele>
        <time>2017-07-11T16:23:26Z</time>
      </trkpt>
      <trkpt lat="43.62083" lon="6.94104">
        <ele>122.4000244</ele>
        <time>2017-07-11T16:23:31Z</time>
      </trkpt>
      <trkpt lat="43.62069" lon="6.94102">
        <ele>122.5999756</ele>
        <time>2017-07-11T16:23:36Z</time>
      </trkpt>
      <trkpt lat="43.62055" lon="6.94099">
        <ele>124</ele>
        <time>2017-07-11T16:23:42Z</time>
      </trkpt>
      <trkpt lat="43.6205" lon="6.94097">
        <ele>124.2000122</ele>
        <time>2017-07-11T16:23:44Z</time>
      </trkpt>
      <trkpt lat="43.62033" lon="6.94088">
        <ele>125</ele>
        <time>2017-07-11T16:23:51Z</time>
      </trkpt>
      <trkpt lat="43.62028" lon="6.94085">
        <ele>125.2000122</ele>
        <time>2017-07-11T16:23:53Z</time>
      </trkpt>
      <trkpt lat="43.62015" lon="6.94077">
        <ele>125.7999878</ele>
        <time>2017-07-11T16:23:58Z</time>
      </trkpt>
      <trkpt lat="43.62007" lon="6.94071">
        <ele>126.4000244</ele>
        <time>2017-07-11T16:24:02Z</time>
      </trkpt>
      <trkpt lat="43.62005" lon="6.9407">
        <ele>126.5999756</ele>
        <time>2017-07-11T16:24:03Z</time>
      </trkpt>
      <trkpt lat="43.61995" lon="6.94062">
        <ele>127.5999756</ele>
        <time>2017-07-11T16:24:08Z</time>
      </trkpt>
      <trkpt lat="43.61992" lon="6.94059">
        <ele>127.7999878</ele>
        <time>2017-07-11T16:24:09Z</time>
      </trkpt>
      <trkpt lat="43.61988" lon="6.94056">
        <ele>128.5999756</ele>
        <time>2017-07-11T16:24:11Z</time>
      </trkpt>
      <trkpt lat="43.61979" lon="6.94045">
        <ele>129.5999756</ele>
        <time>2017-07-11T16:24:16Z</time>
      </trkpt>
      <trkpt lat="43.61978" lon="6.94043">
        <ele>129.5999756</ele>
        <time>2017-07-11T16:24:17Z</time>
      </trkpt>
      <trkpt lat="43.6197" lon="6.94032">
        <ele>130.7999878</ele>
        <time>2017-07-11T16:24:22Z</time>
      </trkpt>
      <trkpt lat="43.61963" lon="6.94013">
        <ele>131.4000244</ele>
        <time>2017-07-11T16:24:29Z</time>
      </trkpt>
      <trkpt lat="43.61962" lon="6.94003">
        <ele>132</ele>
        <time>2017-07-11T16:24:32Z</time>
      </trkpt>
      <trkpt lat="43.6196" lon="6.93987">
        <ele>132.5999756</ele>
        <time>2017-07-11T16:24:37Z</time>
      </trkpt>
      <trkpt lat="43.6196" lon="6.93979">
        <ele>133</ele>
        <time>2017-07-11T16:24:40Z</time>
      </trkpt>
      <trkpt lat="43.6196" lon="6.93969">
        <ele>133.4000244</ele>
        <time>2017-07-11T16:24:43Z</time>
      </trkpt>
      <trkpt lat="43.61963" lon="6.93951">
        <ele>134.2000122</ele>
        <time>2017-07-11T16:24:49Z</time>
      </trkpt>
      <trkpt lat="43.61965" lon="6.93943">
        <ele>134.4000244</ele>
        <time>2017-07-11T16:24:52Z</time>
      </trkpt>
      <trkpt lat="43.61969" lon="6.93931">
        <ele>135.2000122</ele>
        <time>2017-07-11T16:24:56Z</time>
      </trkpt>
      <trkpt lat="43.61972" lon="6.9392">
        <ele>135.5999756</ele>
        <time>2017-07-11T16:25:00Z</time>
      </trkpt>
      <trkpt lat="43.61974" lon="6.93915">
        <ele>136.2000122</ele>
        <time>2017-07-11T16:25:02Z</time>
      </trkpt>
      <trkpt lat="43.61978" lon="6.93905">
        <ele>137.4000244</ele>
        <time>2017-07-11T16:25:06Z</time>
      </trkpt>
      <trkpt lat="43.61979" lon="6.93902">
        <ele>137.5999756</ele>
        <time>2017-07-11T16:25:07Z</time>
      </trkpt>
      <trkpt lat="43.61983" lon="6.93894">
        <ele>138.4000244</ele>
        <time>2017-07-11T16:25:11Z</time>
      </trkpt>
      <trkpt lat="43.61984" lon="6.93891">
        <ele>138.4000244</ele>
        <time>2017-07-11T16:25:12Z</time>
      </trkpt>
      <trkpt lat="43.61991" lon="6.93874">
        <ele>139.4000244</ele>
        <time>2017-07-11T16:25:19Z</time>
      </trkpt>
      <trkpt lat="43.62004" lon="6.93854">
        <ele>140</ele>
        <time>2017-07-11T16:25:28Z</time>
      </trkpt>
      <trkpt lat="43.62009" lon="6.93847">
        <ele>140.5999756</ele>
        <time>2017-07-11T16:25:32Z</time>
      </trkpt>
      <trkpt lat="43.62013" lon="6.93842">
        <ele>141.2000122</ele>
        <time>2017-07-11T16:25:35Z</time>
      </trkpt>
      <trkpt lat="43.6202" lon="6.93835">
        <ele>141.5999756</ele>
        <time>2017-07-11T16:25:39Z</time>
      </trkpt>
      <trkpt lat="43.62026" lon="6.93828">
        <ele>142.2000122</ele>
        <time>2017-07-11T16:25:42Z</time>
      </trkpt>
      <trkpt lat="43.62034" lon="6.9382">
        <ele>142.7999878</ele>
        <time>2017-07-11T16:25:46Z</time>
      </trkpt>
      <trkpt lat="43.62039" lon="6.93813">
        <ele>143.4000244</ele>
        <time>2017-07-11T16:25:49Z</time>
      </trkpt>
      <trkpt lat="43.62043" lon="6.93807">
        <ele>143.7999878</ele>
        <time>2017-07-11T16:25:51Z</time>
      </trkpt>
      <trkpt lat="43.62055" lon="6.93792">
        <ele>144.4000244</ele>
        <time>2017-07-11T16:25:57Z</time>
      </trkpt>
      <trkpt lat="43.62061" lon="6.93785">
        <ele>145</ele>
        <time>2017-07-11T16:26:00Z</time>
      </trkpt>
      <trkpt lat="43.62073" lon="6.93771">
        <ele>145.7999878</ele>
        <time>2017-07-11T16:26:05Z</time>
      </trkpt>
      <trkpt lat="43.6208" lon="6.93764">
        <ele>146</ele>
        <time>2017-07-11T16:26:09Z</time>
      </trkpt>
      <trkpt lat="43.62081" lon="6.93761">
        <ele>146.2000122</ele>
        <time>2017-07-11T16:26:10Z</time>
      </trkpt>
      <trkpt lat="43.62084" lon="6.93755">
        <ele>147.2000122</ele>
        <time>2017-07-11T16:26:13Z</time>
      </trkpt>
      <trkpt lat="43.62092" lon="6.93747">
        <ele>147.7999878</ele>
        <time>2017-07-11T16:26:17Z</time>
      </trkpt>
      <trkpt lat="43.62094" lon="6.93743">
        <ele>148.4000244</ele>
        <time>2017-07-11T16:26:19Z</time>
      </trkpt>
      <trkpt lat="43.62094" lon="6.9374">
        <ele>148.5999756</ele>
        <time>2017-07-11T16:26:20Z</time>
      </trkpt>
      <trkpt lat="43.62093" lon="6.93738">
        <ele>149</ele>
        <time>2017-07-11T16:26:21Z</time>
      </trkpt>
      <trkpt lat="43.62093" lon="6.93734">
        <ele>149.5999756</ele>
        <time>2017-07-11T16:26:23Z</time>
      </trkpt>
      <trkpt lat="43.62093" lon="6.93733">
        <ele>149.7999878</ele>
        <time>2017-07-11T16:26:24Z</time>
      </trkpt>
      <trkpt lat="43.62092" lon="6.93731">
        <ele>150</ele>
        <time>2017-07-11T16:26:25Z</time>
      </trkpt>
      <trkpt lat="43.6209" lon="6.93726">
        <ele>150.4000244</ele>
        <time>2017-07-11T16:26:27Z</time>
      </trkpt>
      <trkpt lat="43.62086" lon="6.93722">
        <ele>150.4000244</ele>
        <time>2017-07-11T16:26:29Z</time>
      </trkpt>
      <trkpt lat="43.62082" lon="6.9372">
        <ele>150.5999756</ele>
        <time>2017-07-11T16:26:32Z</time>
      </trkpt>
      <trkpt lat="43.62072" lon="6.93721">
        <ele>151</ele>
        <time>2017-07-11T16:26:37Z</time>
      </trkpt>
      <trkpt lat="43.6207" lon="6.93721">
        <ele>150.7999878</ele>
        <time>2017-07-11T16:26:40Z</time>
      </trkpt>
      <trkpt lat="43.6207" lon="6.93721">
        <ele>151.2000122</ele>
        <time>2017-07-11T16:26:46Z</time>
      </trkpt>
      <trkpt lat="43.6207" lon="6.93721">
        <ele>151.2000122</ele>
        <time>2017-07-11T16:26:55Z</time>
      </trkpt>
      <trkpt lat="43.6207" lon="6.93721">
        <ele>151.2000122</ele>
        <time>2017-07-11T16:27:04Z</time>
      </trkpt>
      <trkpt lat="43.6207" lon="6.93721">
        <ele>151.2000122</ele>
        <time>2017-07-11T16:27:23Z</time>
      </trkpt>
      <trkpt lat="43.6207" lon="6.93721">
        <ele>151.2000122</ele>
        <time>2017-07-11T16:27:38Z</time>
      </trkpt>
      <trkpt lat="43.6207" lon="6.93721">
        <ele>151.2000122</ele>
        <time>2017-07-11T16:27:49Z</time>
      </trkpt>
      <trkpt lat="43.6207" lon="6.93721">
        <ele>151.2000122</ele>
        <time>2017-07-11T16:27:57Z</time>
      </trkpt>
      <trkpt lat="43.62062" lon="6.93723">
        <ele>150.7999878</ele>
        <time>2017-07-11T16:28:02Z</time>
      </trkpt>
      <trkpt lat="43.62046" lon="6.93725">
        <ele>151.4000244</ele>
        <time>2017-07-11T16:28:08Z</time>
      </trkpt>
      <trkpt lat="43.62034" lon="6.93723">
        <ele>151.5999756</ele>
        <time>2017-07-11T16:28:11Z</time>
      </trkpt>
      <trkpt lat="43.62024" lon="6.93722">
        <ele>152.5999756</ele>
        <time>2017-07-11T16:28:14Z</time>
      </trkpt>
      <trkpt lat="43.62014" lon="6.93713">
        <ele>153.2000122</ele>
        <time>2017-07-11T16:28:18Z</time>
      </trkpt>
      <trkpt lat="43.62008" lon="6.93711">
        <ele>153.7999878</ele>
        <time>2017-07-11T16:28:20Z</time>
      </trkpt>
      <trkpt lat="43.61998" lon="6.93708">
        <ele>154.7999878</ele>
        <time>2017-07-11T16:28:23Z</time>
      </trkpt>
      <trkpt lat="43.61995" lon="6.93707">
        <ele>155</ele>
        <time>2017-07-11T16:28:24Z</time>
      </trkpt>
      <trkpt lat="43.61981" lon="6.93699">
        <ele>155.5999756</ele>
        <time>2017-07-11T16:28:29Z</time>
      </trkpt>
      <trkpt lat="43.61965" lon="6.93696">
        <ele>155.4000244</ele>
        <time>2017-07-11T16:28:35Z</time>
      </trkpt>
      <trkpt lat="43.61947" lon="6.93705">
        <ele>155.2000122</ele>
        <time>2017-07-11T16:28:41Z</time>
      </trkpt>
      <trkpt lat="43.6193" lon="6.93717">
        <ele>154.7999878</ele>
        <time>2017-07-11T16:28:47Z</time>
      </trkpt>
      <trkpt lat="43.61921" lon="6.93736">
        <ele>154.4000244</ele>
        <time>2017-07-11T16:28:52Z</time>
      </trkpt>
      <trkpt lat="43.61913" lon="6.93751">
        <ele>154.7999878</ele>
        <time>2017-07-11T16:28:58Z</time>
      </trkpt>
      <trkpt lat="43.61903" lon="6.93764">
        <ele>154.4000244</ele>
        <time>2017-07-11T16:29:05Z</time>
      </trkpt>
      <trkpt lat="43.61895" lon="6.93768">
        <ele>154.2000122</ele>
        <time>2017-07-11T16:29:09Z</time>
      </trkpt>
      <trkpt lat="43.61891" lon="6.93765">
        <ele>154.4000244</ele>
        <time>2017-07-11T16:29:11Z</time>
      </trkpt>
      <trkpt lat="43.6188" lon="6.93753">
        <ele>154.5999756</ele>
        <time>2017-07-11T16:29:18Z</time>
      </trkpt>
      <trkpt lat="43.61879" lon="6.93753">
        <ele>154.5999756</ele>
        <time>2017-07-11T16:29:19Z</time>
      </trkpt>
      <trkpt lat="43.61877" lon="6.93752">
        <ele>155</ele>
        <time>2017-07-11T16:29:23Z</time>
      </trkpt>
      <trkpt lat="43.61877" lon="6.93752">
        <ele>155</ele>
        <time>2017-07-11T16:29:35Z</time>
      </trkpt>
      <trkpt lat="43.61877" lon="6.93752">
        <ele>155</ele>
        <time>2017-07-11T16:29:45Z</time>
      </trkpt>
      <trkpt lat="43.61876" lon="6.93754">
        <ele>155</ele>
        <time>2017-07-11T16:29:52Z</time>
      </trkpt>
      <trkpt lat="43.61876" lon="6.9376">
        <ele>155</ele>
        <time>2017-07-11T16:29:54Z</time>
      </trkpt>
      <trkpt lat="43.61871" lon="6.93768">
        <ele>154</ele>
        <time>2017-07-11T16:29:57Z</time>
      </trkpt>
      <trkpt lat="43.61869" lon="6.93771">
        <ele>153.5999756</ele>
        <time>2017-07-11T16:29:58Z</time>
      </trkpt>
      <trkpt lat="43.61864" lon="6.93776">
        <ele>152.4000244</ele>
        <time>2017-07-11T16:30:00Z</time>
      </trkpt>
      <trkpt lat="43.6186" lon="6.93779">
        <ele>151.4000244</ele>
        <time>2017-07-11T16:30:01Z</time>
      </trkpt>
      <trkpt lat="43.61856" lon="6.93783">
        <ele>150.4000244</ele>
        <time>2017-07-11T16:30:02Z</time>
      </trkpt>
      <trkpt lat="43.61854" lon="6.93787">
        <ele>149.5999756</ele>
        <time>2017-07-11T16:30:03Z</time>
      </trkpt>
      <trkpt lat="43.61851" lon="6.93791">
        <ele>148.4000244</ele>
        <time>2017-07-11T16:30:04Z</time>
      </trkpt>
      <trkpt lat="43.6185" lon="6.93794">
        <ele>147.2000122</ele>
        <time>2017-07-11T16:30:05Z</time>
      </trkpt>
      <trkpt lat="43.61849" lon="6.93798">
        <ele>146.2000122</ele>
        <time>2017-07-11T16:30:06Z</time>
      </trkpt>
      <trkpt lat="43.61847" lon="6.93812">
        <ele>144</ele>
        <time>2017-07-11T16:30:08Z</time>
      </trkpt>
      <trkpt lat="43.61846" lon="6.93819">
        <ele>143</ele>
        <time>2017-07-11T16:30:09Z</time>
      </trkpt>
      <trkpt lat="43.61845" lon="6.93826">
        <ele>142.2000122</ele>
        <time>2017-07-11T16:30:10Z</time>
      </trkpt>
      <trkpt lat="43.61844" lon="6.93833">
        <ele>141.2000122</ele>
        <time>2017-07-11T16:30:11Z</time>
      </trkpt>
      <trkpt lat="43.61845" lon="6.9384">
        <ele>140.2000122</ele>
        <time>2017-07-11T16:30:12Z</time>
      </trkpt>
      <trkpt lat="43.61844" lon="6.93844">
        <ele>139.4000244</ele>
        <time>2017-07-11T16:30:13Z</time>
      </trkpt>
      <trkpt lat="43.61838" lon="6.93848">
        <ele>137.4000244</ele>
        <time>2017-07-11T16:30:15Z</time>
      </trkpt>
      <trkpt lat="43.61835" lon="6.9385">
        <ele>136.4000244</ele>
        <time>2017-07-11T16:30:16Z</time>
      </trkpt>
      <trkpt lat="43.61833" lon="6.93852">
        <ele>134.4000244</ele>
        <time>2017-07-11T16:30:18Z</time>
      </trkpt>
      <trkpt lat="43.61833" lon="6.93851">
        <ele>133.4000244</ele>
        <time>2017-07-11T16:30:19Z</time>
      </trkpt>
      <trkpt lat="43.61834" lon="6.93851">
        <ele>132.5999756</ele>
        <time>2017-07-11T16:30:22Z</time>
      </trkpt>
      <trkpt lat="43.61834" lon="6.93851">
        <ele>132.4000244</ele>
        <time>2017-07-11T16:30:23Z</time>
      </trkpt>
      <trkpt lat="43.61834" lon="6.93853">
        <ele>132</ele>
        <time>2017-07-11T16:30:29Z</time>
      </trkpt>
      <trkpt lat="43.61834" lon="6.93856">
        <ele>131.4000244</ele>
        <time>2017-07-11T16:30:30Z</time>
      </trkpt>
      <trkpt lat="43.61832" lon="6.93858">
        <ele>131</ele>
        <time>2017-07-11T16:30:31Z</time>
      </trkpt>
      <trkpt lat="43.61828" lon="6.93856">
        <ele>130.2000122</ele>
        <time>2017-07-11T16:30:33Z</time>
      </trkpt>
      <trkpt lat="43.61826" lon="6.93855">
        <ele>130</ele>
        <time>2017-07-11T16:30:34Z</time>
      </trkpt>
      <trkpt lat="43.61816" lon="6.93851">
        <ele>128.5999756</ele>
        <time>2017-07-11T16:30:37Z</time>
      </trkpt>
      <trkpt lat="43.61815" lon="6.9385">
        <ele>128.2000122</ele>
        <time>2017-07-11T16:30:38Z</time>
      </trkpt>
      <trkpt lat="43.61814" lon="6.9385">
        <ele>127.4000244</ele>
        <time>2017-07-11T16:30:40Z</time>
      </trkpt>
      <trkpt lat="43.61812" lon="6.93847">
        <ele>127</ele>
        <time>2017-07-11T16:30:41Z</time>
      </trkpt>
      <trkpt lat="43.6181" lon="6.93846">
        <ele>126.5999756</ele>
        <time>2017-07-11T16:30:42Z</time>
      </trkpt>
      <trkpt lat="43.61806" lon="6.93845">
        <ele>126.2000122</ele>
        <time>2017-07-11T16:30:43Z</time>
      </trkpt>
      <trkpt lat="43.618" lon="6.93836">
        <ele>125</ele>
        <time>2017-07-11T16:30:45Z</time>
      </trkpt>
      <trkpt lat="43.61793" lon="6.93834">
        <ele>123.7999878</ele>
        <time>2017-07-11T16:30:47Z</time>
      </trkpt>
      <trkpt lat="43.6179" lon="6.93835">
        <ele>123.4000244</ele>
        <time>2017-07-11T16:30:48Z</time>
      </trkpt>
      <trkpt lat="43.61788" lon="6.93837">
        <ele>122.7999878</ele>
        <time>2017-07-11T16:30:49Z</time>
      </trkpt>
      <trkpt lat="43.61785" lon="6.93844">
        <ele>121.7999878</ele>
        <time>2017-07-11T16:30:51Z</time>
      </trkpt>
      <trkpt lat="43.61783" lon="6.93846">
        <ele>121.4000244</ele>
        <time>2017-07-11T16:30:52Z</time>
      </trkpt>
      <trkpt lat="43.61779" lon="6.9385">
        <ele>120.2000122</ele>
        <time>2017-07-11T16:30:55Z</time>
      </trkpt>
      <trkpt lat="43.61777" lon="6.93851">
        <ele>119</ele>
        <time>2017-07-11T16:30:58Z</time>
      </trkpt>
      <trkpt lat="43.61777" lon="6.93851">
        <ele>119</ele>
        <time>2017-07-11T16:30:59Z</time>
      </trkpt>
      <trkpt lat="43.61776" lon="6.93852">
        <ele>118.5999756</ele>
        <time>2017-07-11T16:31:07Z</time>
      </trkpt>
      <trkpt lat="43.61774" lon="6.93855">
        <ele>118.4000244</ele>
        <time>2017-07-11T16:31:13Z</time>
      </trkpt>
      <trkpt lat="43.61772" lon="6.93859">
        <ele>118.2000122</ele>
        <time>2017-07-11T16:31:14Z</time>
      </trkpt>
      <trkpt lat="43.61771" lon="6.93864">
        <ele>118</ele>
        <time>2017-07-11T16:31:15Z</time>
      </trkpt>
      <trkpt lat="43.61772" lon="6.9388">
        <ele>116.7999878</ele>
        <time>2017-07-11T16:31:18Z</time>
      </trkpt>
      <trkpt lat="43.6178" lon="6.9389">
        <ele>116.2000122</ele>
        <time>2017-07-11T16:31:21Z</time>
      </trkpt>
      <trkpt lat="43.6178" lon="6.93891">
        <ele>115.5999756</ele>
        <time>2017-07-11T16:31:23Z</time>
      </trkpt>
      <trkpt lat="43.61779" lon="6.93894">
        <ele>115.2000122</ele>
        <time>2017-07-11T16:31:25Z</time>
      </trkpt>
      <trkpt lat="43.61778" lon="6.939">
        <ele>114.5999756</ele>
        <time>2017-07-11T16:31:29Z</time>
      </trkpt>
      <trkpt lat="43.61777" lon="6.93907">
        <ele>113.4000244</ele>
        <time>2017-07-11T16:31:32Z</time>
      </trkpt>
      <trkpt lat="43.61774" lon="6.93908">
        <ele>112.7999878</ele>
        <time>2017-07-11T16:31:33Z</time>
      </trkpt>
      <trkpt lat="43.61773" lon="6.93911">
        <ele>112.2000122</ele>
        <time>2017-07-11T16:31:34Z</time>
      </trkpt>
      <trkpt lat="43.61769" lon="6.93916">
        <ele>111.2000122</ele>
        <time>2017-07-11T16:31:36Z</time>
      </trkpt>
      <trkpt lat="43.61766" lon="6.9392">
        <ele>110.7999878</ele>
        <time>2017-07-11T16:31:37Z</time>
      </trkpt>
      <trkpt lat="43.61763" lon="6.93928">
        <ele>109.7999878</ele>
        <time>2017-07-11T16:31:39Z</time>
      </trkpt>
      <trkpt lat="43.61764" lon="6.9393">
        <ele>109.4000244</ele>
        <time>2017-07-11T16:31:40Z</time>
      </trkpt>
      <trkpt lat="43.61766" lon="6.93935">
        <ele>108.7999878</ele>
        <time>2017-07-11T16:31:42Z</time>
      </trkpt>
      <trkpt lat="43.61765" lon="6.93942">
        <ele>107.7999878</ele>
        <time>2017-07-11T16:31:44Z</time>
      </trkpt>
      <trkpt lat="43.61766" lon="6.93944">
        <ele>107.2000122</ele>
        <time>2017-07-11T16:31:45Z</time>
      </trkpt>
      <trkpt lat="43.61768" lon="6.93946">
        <ele>106.5999756</ele>
        <time>2017-07-11T16:31:46Z</time>
      </trkpt>
      <trkpt lat="43.61774" lon="6.93955">
        <ele>105.5999756</ele>
        <time>2017-07-11T16:31:49Z</time>
      </trkpt>
      <trkpt lat="43.61787" lon="6.93965">
        <ele>104.5999756</ele>
        <time>2017-07-11T16:31:53Z</time>
      </trkpt>
      <trkpt lat="43.61793" lon="6.93969">
        <ele>104.4000244</ele>
        <time>2017-07-11T16:31:55Z</time>
      </trkpt>
      <trkpt lat="43.61796" lon="6.9397">
        <ele>104.4000244</ele>
        <time>2017-07-11T16:31:56Z</time>
      </trkpt>
      <trkpt lat="43.61798" lon="6.93972">
        <ele>104.4000244</ele>
        <time>2017-07-11T16:31:57Z</time>
      </trkpt>
      <trkpt lat="43.61812" lon="6.93982">
        <ele>104.2000122</ele>
        <time>2017-07-11T16:32:02Z</time>
      </trkpt>
      <trkpt lat="43.61821" lon="6.93987">
        <ele>104.2000122</ele>
        <time>2017-07-11T16:32:04Z</time>
      </trkpt>
      <trkpt lat="43.61829" lon="6.93991">
        <ele>104.4000244</ele>
        <time>2017-07-11T16:32:06Z</time>
      </trkpt>
      <trkpt lat="43.61845" lon="6.94004">
        <ele>105</ele>
        <time>2017-07-11T16:32:11Z</time>
      </trkpt>
      <trkpt lat="43.61843" lon="6.94024">
        <ele>104.5999756</ele>
        <time>2017-07-11T16:32:15Z</time>
      </trkpt>
      <trkpt lat="43.61841" lon="6.94029">
        <ele>104.4000244</ele>
        <time>2017-07-11T16:32:17Z</time>
      </trkpt>
      <trkpt lat="43.6184" lon="6.9403">
        <ele>104.2000122</ele>
        <time>2017-07-11T16:32:18Z</time>
      </trkpt>
      <trkpt lat="43.61838" lon="6.9403">
        <ele>104</ele>
        <time>2017-07-11T16:32:23Z</time>
      </trkpt>
      <trkpt lat="43.61838" lon="6.94029">
        <ele>104.5999756</ele>
        <time>2017-07-11T16:32:30Z</time>
      </trkpt>
      <trkpt lat="43.61838" lon="6.94029">
        <ele>104.5999756</ele>
        <time>2017-07-11T16:32:42Z</time>
      </trkpt>
      <trkpt lat="43.61839" lon="6.94029">
        <ele>104.7999878</ele>
        <time>2017-07-11T16:32:51Z</time>
      </trkpt>
      <trkpt lat="43.61839" lon="6.94029">
        <ele>104.7999878</ele>
        <time>2017-07-11T16:33:03Z</time>
      </trkpt>
      <trkpt lat="43.61839" lon="6.94029">
        <ele>104.7999878</ele>
        <time>2017-07-11T16:33:18Z</time>
      </trkpt>
      <trkpt lat="43.61839" lon="6.94029">
        <ele>104.7999878</ele>
        <time>2017-07-11T16:33:35Z</time>
      </trkpt>
      <trkpt lat="43.61839" lon="6.94029">
        <ele>104.7999878</ele>
        <time>2017-07-11T16:33:47Z</time>
      </trkpt>
      <trkpt lat="43.61839" lon="6.94029">
        <ele>104.7999878</ele>
        <time>2017-07-11T16:34:03Z</time>
      </trkpt>
      <trkpt lat="43.61838" lon="6.94029">
        <ele>104.7999878</ele>
        <time>2017-07-11T16:34:19Z</time>
      </trkpt>
      <trkpt lat="43.61838" lon="6.94029">
        <ele>104.7999878</ele>
        <time>2017-07-11T16:34:31Z</time>
      </trkpt>
      <trkpt lat="43.6184" lon="6.94029">
        <ele>105.2000122</ele>
        <time>2017-07-11T16:34:40Z</time>
      </trkpt>
      <trkpt lat="43.61841" lon="6.94031">
        <ele>105.5999756</ele>
        <time>2017-07-11T16:34:41Z</time>
      </trkpt>
      <trkpt lat="43.61846" lon="6.94036">
        <ele>107</ele>
        <time>2017-07-11T16:34:44Z</time>
      </trkpt>
      <trkpt lat="43.61851" lon="6.94038">
        <ele>108.4000244</ele>
        <time>2017-07-11T16:34:47Z</time>
      </trkpt>
      <trkpt lat="43.61856" lon="6.94038">
        <ele>109.7999878</ele>
        <time>2017-07-11T16:34:49Z</time>
      </trkpt>
      <trkpt lat="43.61863" lon="6.94036">
        <ele>111</ele>
        <time>2017-07-11T16:34:52Z</time>
      </trkpt>
      <trkpt lat="43.61865" lon="6.94035">
        <ele>111.4000244</ele>
        <time>2017-07-11T16:34:53Z</time>
      </trkpt>
      <trkpt lat="43.6187" lon="6.94034">
        <ele>112.2000122</ele>
        <time>2017-07-11T16:34:55Z</time>
      </trkpt>
      <trkpt lat="43.61874" lon="6.94033">
        <ele>113.4000244</ele>
        <time>2017-07-11T16:34:57Z</time>
      </trkpt>
      <trkpt lat="43.61877" lon="6.94034">
        <ele>114.5999756</ele>
        <time>2017-07-11T16:34:59Z</time>
      </trkpt>
      <trkpt lat="43.61879" lon="6.94035">
        <ele>115</ele>
        <time>2017-07-11T16:35:00Z</time>
      </trkpt>
      <trkpt lat="43.61883" lon="6.94035">
        <ele>115.5999756</ele>
        <time>2017-07-11T16:35:02Z</time>
      </trkpt>
      <trkpt lat="43.61891" lon="6.94039">
        <ele>116.7999878</ele>
        <time>2017-07-11T16:35:06Z</time>
      </trkpt>
      <trkpt lat="43.61899" lon="6.94041">
        <ele>118.2000122</ele>
        <time>2017-07-11T16:35:10Z</time>
      </trkpt>
      <trkpt lat="43.61904" lon="6.94043">
        <ele>119.4000244</ele>
        <time>2017-07-11T16:35:13Z</time>
      </trkpt>
      <trkpt lat="43.61918" lon="6.9405">
        <ele>120</ele>
        <time>2017-07-11T16:35:21Z</time>
      </trkpt>
      <trkpt lat="43.6193" lon="6.94064">
        <ele>119</ele>
        <time>2017-07-11T16:35:28Z</time>
      </trkpt>
      <trkpt lat="43.61937" lon="6.94073">
        <ele>119.4000244</ele>
        <time>2017-07-11T16:35:33Z</time>
      </trkpt>
      <trkpt lat="43.61948" lon="6.94085">
        <ele>119</ele>
        <time>2017-07-11T16:35:39Z</time>
      </trkpt>
      <trkpt lat="43.61968" lon="6.94097">
        <ele>119</ele>
        <time>2017-07-11T16:35:47Z</time>
      </trkpt>
      <trkpt lat="43.61987" lon="6.94107">
        <ele>119</ele>
        <time>2017-07-11T16:35:54Z</time>
      </trkpt>
      <trkpt lat="43.62001" lon="6.94118">
        <ele>119.5999756</ele>
        <time>2017-07-11T16:36:00Z</time>
      </trkpt>
      <trkpt lat="43.62016" lon="6.94122">
        <ele>120.5999756</ele>
        <time>2017-07-11T16:36:06Z</time>
      </trkpt>
      <trkpt lat="43.62029" lon="6.94122">
        <ele>121.5999756</ele>
        <time>2017-07-11T16:36:12Z</time>
      </trkpt>
      <trkpt lat="43.62034" lon="6.94123">
        <ele>122.2000122</ele>
        <time>2017-07-11T16:36:14Z</time>
      </trkpt>
      <trkpt lat="43.62037" lon="6.94122">
        <ele>123</ele>
        <time>2017-07-11T16:36:16Z</time>
      </trkpt>
      <trkpt lat="43.62046" lon="6.94121">
        <ele>123.4000244</ele>
        <time>2017-07-11T16:36:20Z</time>
      </trkpt>
      <trkpt lat="43.62058" lon="6.94122">
        <ele>124</ele>
        <time>2017-07-11T16:36:26Z</time>
      </trkpt>
      <trkpt lat="43.6206" lon="6.94122">
        <ele>124.4000244</ele>
        <time>2017-07-11T16:36:27Z</time>
      </trkpt>
      <trkpt lat="43.62074" lon="6.94118">
        <ele>124.2000122</ele>
        <time>2017-07-11T16:36:34Z</time>
      </trkpt>
      <trkpt lat="43.62078" lon="6.94112">
        <ele>124.2000122</ele>
        <time>2017-07-11T16:36:37Z</time>
      </trkpt>
      <trkpt lat="43.62077" lon="6.94107">
        <ele>124.5999756</ele>
        <time>2017-07-11T16:36:39Z</time>
      </trkpt>
      <trkpt lat="43.62073" lon="6.94101">
        <ele>124.7999878</ele>
        <time>2017-07-11T16:36:43Z</time>
      </trkpt>
      <trkpt lat="43.62069" lon="6.94102">
        <ele>124.7999878</ele>
        <time>2017-07-11T16:36:45Z</time>
      </trkpt>
      <trkpt lat="43.62065" lon="6.94101">
        <ele>125.2000122</ele>
        <time>2017-07-11T16:36:49Z</time>
      </trkpt>
      <trkpt lat="43.62062" lon="6.94101">
        <ele>125.2000122</ele>
        <time>2017-07-11T16:36:55Z</time>
      </trkpt>
      <trkpt lat="43.62053" lon="6.94099">
        <ele>125</ele>
        <time>2017-07-11T16:37:00Z</time>
      </trkpt>
      <trkpt lat="43.62044" lon="6.94095">
        <ele>125.5999756</ele>
        <time>2017-07-11T16:37:08Z</time>
      </trkpt>
      <trkpt lat="43.62044" lon="6.94095">
        <ele>125.5999756</ele>
        <time>2017-07-11T16:37:17Z</time>
      </trkpt>
      <trkpt lat="43.62044" lon="6.94095">
        <ele>125.5999756</ele>
        <time>2017-07-11T16:37:28Z</time>
      </trkpt>
      <trkpt lat="43.62044" lon="6.94095">
        <ele>125.5999756</ele>
        <time>2017-07-11T16:37:44Z</time>
      </trkpt>
      <trkpt lat="43.62044" lon="6.94095">
        <ele>125.5999756</ele>
        <time>2017-07-11T16:37:55Z</time>
      </trkpt>
      <trkpt lat="43.62044" lon="6.94095">
        <ele>125.5999756</ele>
        <time>2017-07-11T16:38:06Z</time>
      </trkpt>
      <trkpt lat="43.62042" lon="6.94093">
        <ele>125.5999756</ele>
        <time>2017-07-11T16:38:11Z</time>
      </trkpt>
      <trkpt lat="43.6204" lon="6.94092">
        <ele>125.7999878</ele>
        <time>2017-07-11T16:38:12Z</time>
      </trkpt>
      <trkpt lat="43.62026" lon="6.94084">
        <ele>126.2000122</ele>
        <time>2017-07-11T16:38:17Z</time>
      </trkpt>
      <trkpt lat="43.62011" lon="6.94074">
        <ele>127.2000122</ele>
        <time>2017-07-11T16:38:23Z</time>
      </trkpt>
      <trkpt lat="43.62006" lon="6.94071">
        <ele>127.7999878</ele>
        <time>2017-07-11T16:38:25Z</time>
      </trkpt>
      <trkpt lat="43.62002" lon="6.94068">
        <ele>128.4000244</ele>
        <time>2017-07-11T16:38:27Z</time>
      </trkpt>
      <trkpt lat="43.61993" lon="6.94061">
        <ele>129</ele>
        <time>2017-07-11T16:38:31Z</time>
      </trkpt>
      <trkpt lat="43.61988" lon="6.94056">
        <ele>129.5999756</ele>
        <time>2017-07-11T16:38:34Z</time>
      </trkpt>
      <trkpt lat="43.61981" lon="6.94047">
        <ele>130.2000122</ele>
        <time>2017-07-11T16:38:38Z</time>
      </trkpt>
      <trkpt lat="43.61973" lon="6.94036">
        <ele>130.7999878</ele>
        <time>2017-07-11T16:38:43Z</time>
      </trkpt>
      <trkpt lat="43.6197" lon="6.94031">
        <ele>131.5999756</ele>
        <time>2017-07-11T16:38:45Z</time>
      </trkpt>
      <trkpt lat="43.61966" lon="6.94024">
        <ele>132</ele>
        <time>2017-07-11T16:38:48Z</time>
      </trkpt>
      <trkpt lat="43.61963" lon="6.94014">
        <ele>132.4000244</ele>
        <time>2017-07-11T16:38:52Z</time>
      </trkpt>
      <trkpt lat="43.61962" lon="6.94001">
        <ele>133</ele>
        <time>2017-07-11T16:38:56Z</time>
      </trkpt>
      <trkpt lat="43.61961" lon="6.9399">
        <ele>134</ele>
        <time>2017-07-11T16:39:00Z</time>
      </trkpt>
      <trkpt lat="43.6196" lon="6.9397">
        <ele>135.2000122</ele>
        <time>2017-07-11T16:39:06Z</time>
      </trkpt>
      <trkpt lat="43.6196" lon="6.93967">
        <ele>135.4000244</ele>
        <time>2017-07-11T16:39:07Z</time>
      </trkpt>
      <trkpt lat="43.61966" lon="6.9394">
        <ele>136.2000122</ele>
        <time>2017-07-11T16:39:15Z</time>
      </trkpt>
      <trkpt lat="43.61968" lon="6.93934">
        <ele>136.4000244</ele>
        <time>2017-07-11T16:39:17Z</time>
      </trkpt>
      <trkpt lat="43.61973" lon="6.93918">
        <ele>137</ele>
        <time>2017-07-11T16:39:22Z</time>
      </trkpt>
      <trkpt lat="43.61976" lon="6.93911">
        <ele>137.4000244</ele>
        <time>2017-07-11T16:39:25Z</time>
      </trkpt>
      <trkpt lat="43.61979" lon="6.93904">
        <ele>137.7999878</ele>
        <time>2017-07-11T16:39:28Z</time>
      </trkpt>
      <trkpt lat="43.61983" lon="6.93895">
        <ele>138.5999756</ele>
        <time>2017-07-11T16:39:32Z</time>
      </trkpt>
      <trkpt lat="43.61985" lon="6.93889">
        <ele>139.4000244</ele>
        <time>2017-07-11T16:39:36Z</time>
      </trkpt>
      <trkpt lat="43.61988" lon="6.93879">
        <ele>139.5999756</ele>
        <time>2017-07-11T16:39:41Z</time>
      </trkpt>
      <trkpt lat="43.61989" lon="6.93877">
        <ele>139.7999878</ele>
        <time>2017-07-11T16:39:42Z</time>
      </trkpt>
      <trkpt lat="43.61992" lon="6.93871">
        <ele>141</ele>
        <time>2017-07-11T16:39:45Z</time>
      </trkpt>
      <trkpt lat="43.61996" lon="6.93865">
        <ele>141.2000122</ele>
        <time>2017-07-11T16:39:48Z</time>
      </trkpt>
      <trkpt lat="43.61999" lon="6.93861">
        <ele>142</ele>
        <time>2017-07-11T16:39:50Z</time>
      </trkpt>
      <trkpt lat="43.62005" lon="6.93852">
        <ele>143.2000122</ele>
        <time>2017-07-11T16:39:54Z</time>
      </trkpt>
      <trkpt lat="43.62008" lon="6.93848">
        <ele>143.4000244</ele>
        <time>2017-07-11T16:39:56Z</time>
      </trkpt>
      <trkpt lat="43.62014" lon="6.93841">
        <ele>144.5999756</ele>
        <time>2017-07-11T16:40:01Z</time>
      </trkpt>
      <trkpt lat="43.62018" lon="6.93838">
        <ele>145.5999756</ele>
        <time>2017-07-11T16:40:03Z</time>
      </trkpt>
      <trkpt lat="43.62024" lon="6.93832">
        <ele>146.7999878</ele>
        <time>2017-07-11T16:40:06Z</time>
      </trkpt>
      <trkpt lat="43.62037" lon="6.9382">
        <ele>147</ele>
        <time>2017-07-11T16:40:12Z</time>
      </trkpt>
      <trkpt lat="43.62052" lon="6.938">
        <ele>147.7999878</ele>
        <time>2017-07-11T16:40:19Z</time>
      </trkpt>
      <trkpt lat="43.62054" lon="6.93798">
        <ele>148</ele>
        <time>2017-07-11T16:40:20Z</time>
      </trkpt>
      <trkpt lat="43.62063" lon="6.93784">
        <ele>147.7999878</ele>
        <time>2017-07-11T16:40:25Z</time>
      </trkpt>
      <trkpt lat="43.62079" lon="6.93763">
        <ele>148.5999756</ele>
        <time>2017-07-11T16:40:33Z</time>
      </trkpt>
      <trkpt lat="43.62084" lon="6.93755">
        <ele>149.2000122</ele>
        <time>2017-07-11T16:40:36Z</time>
      </trkpt>
      <trkpt lat="43.62089" lon="6.9375">
        <ele>150</ele>
        <time>2017-07-11T16:40:39Z</time>
      </trkpt>
      <trkpt lat="43.62091" lon="6.93748">
        <ele>150.2000122</ele>
        <time>2017-07-11T16:40:40Z</time>
      </trkpt>
      <trkpt lat="43.62095" lon="6.93742">
        <ele>151.4000244</ele>
        <time>2017-07-11T16:40:44Z</time>
      </trkpt>
      <trkpt lat="43.62096" lon="6.93743">
        <ele>152</ele>
        <time>2017-07-11T16:40:53Z</time>
      </trkpt>
      <trkpt lat="43.62088" lon="6.93752">
        <ele>151.4000244</ele>
        <time>2017-07-11T16:40:57Z</time>
      </trkpt>
      <trkpt lat="43.62075" lon="6.9377">
        <ele>150.2000122</ele>
        <time>2017-07-11T16:41:01Z</time>
      </trkpt>
      <trkpt lat="43.62064" lon="6.93783">
        <ele>149.2000122</ele>
        <time>2017-07-11T16:41:04Z</time>
      </trkpt>
      <trkpt lat="43.62061" lon="6.93786">
        <ele>149</ele>
        <time>2017-07-11T16:41:05Z</time>
      </trkpt>
      <trkpt lat="43.6206" lon="6.93787">
        <ele>148.2000122</ele>
        <time>2017-07-11T16:41:08Z</time>
      </trkpt>
      <trkpt lat="43.6206" lon="6.93787">
        <ele>148.2000122</ele>
        <time>2017-07-11T16:41:20Z</time>
      </trkpt>
      <trkpt lat="43.6206" lon="6.93787">
        <ele>148.2000122</ele>
        <time>2017-07-11T16:41:33Z</time>
      </trkpt>
      <trkpt lat="43.62061" lon="6.93786">
        <ele>148.2000122</ele>
        <time>2017-07-11T16:41:40Z</time>
      </trkpt>
      <trkpt lat="43.62062" lon="6.93786">
        <ele>148.5999756</ele>
        <time>2017-07-11T16:41:42Z</time>
      </trkpt>
      <trkpt lat="43.62062" lon="6.93786">
        <ele>148.5999756</ele>
        <time>2017-07-11T16:41:45Z</time>
      </trkpt>
      <trkpt lat="43.62064" lon="6.93783">
        <ele>149.2000122</ele>
        <time>2017-07-11T16:41:47Z</time>
      </trkpt>
      <trkpt lat="43.62066" lon="6.93781">
        <ele>149.4000244</ele>
        <time>2017-07-11T16:41:48Z</time>
      </trkpt>
      <trkpt lat="43.62072" lon="6.93775">
        <ele>150.4000244</ele>
        <time>2017-07-11T16:41:51Z</time>
      </trkpt>
      <trkpt lat="43.62077" lon="6.93768">
        <ele>151.5999756</ele>
        <time>2017-07-11T16:41:54Z</time>
      </trkpt>
      <trkpt lat="43.62082" lon="6.9376">
        <ele>152.5999756</ele>
        <time>2017-07-11T16:41:57Z</time>
      </trkpt>
      <trkpt lat="43.62089" lon="6.93751">
        <ele>153.5999756</ele>
        <time>2017-07-11T16:42:01Z</time>
      </trkpt>
      <trkpt lat="43.62092" lon="6.93747">
        <ele>154.2000122</ele>
        <time>2017-07-11T16:42:03Z</time>
      </trkpt>
      <trkpt lat="43.62093" lon="6.93742">
        <ele>154.7999878</ele>
        <time>2017-07-11T16:42:05Z</time>
      </trkpt>
      <trkpt lat="43.62092" lon="6.93734">
        <ele>155.4000244</ele>
        <time>2017-07-11T16:42:08Z</time>
      </trkpt>
      <trkpt lat="43.62088" lon="6.93725">
        <ele>156</ele>
        <time>2017-07-11T16:42:11Z</time>
      </trkpt>
      <trkpt lat="43.62083" lon="6.93721">
        <ele>156.2000122</ele>
        <time>2017-07-11T16:42:13Z</time>
      </trkpt>
      <trkpt lat="43.62076" lon="6.93722">
        <ele>156.2000122</ele>
        <time>2017-07-11T16:42:15Z</time>
      </trkpt>
      <trkpt lat="43.6207" lon="6.93724">
        <ele>156.2000122</ele>
        <time>2017-07-11T16:42:16Z</time>
      </trkpt>
      <trkpt lat="43.6205" lon="6.93727">
        <ele>155.7999878</ele>
        <time>2017-07-11T16:42:19Z</time>
      </trkpt>
      <trkpt lat="43.62037" lon="6.93727">
        <ele>155.5999756</ele>
        <time>2017-07-11T16:42:21Z</time>
      </trkpt>
      <trkpt lat="43.62019" lon="6.93723">
        <ele>155.7999878</ele>
        <time>2017-07-11T16:42:25Z</time>
      </trkpt>
      <trkpt lat="43.6201" lon="6.93716">
        <ele>156.4000244</ele>
        <time>2017-07-11T16:42:28Z</time>
      </trkpt>
      <trkpt lat="43.62" lon="6.93712">
        <ele>157</ele>
        <time>2017-07-11T16:42:32Z</time>
      </trkpt>
      <trkpt lat="43.61995" lon="6.9371">
        <ele>157.4000244</ele>
        <time>2017-07-11T16:42:34Z</time>
      </trkpt>
      <trkpt lat="43.61988" lon="6.93706">
        <ele>158.2000122</ele>
        <time>2017-07-11T16:42:37Z</time>
      </trkpt>
      <trkpt lat="43.61982" lon="6.93701">
        <ele>158.2000122</ele>
        <time>2017-07-11T16:42:40Z</time>
      </trkpt>
      <trkpt lat="43.61967" lon="6.93698">
        <ele>157.7999878</ele>
        <time>2017-07-11T16:42:46Z</time>
      </trkpt>
      <trkpt lat="43.61947" lon="6.93707">
        <ele>157.7999878</ele>
        <time>2017-07-11T16:42:52Z</time>
      </trkpt>
      <trkpt lat="43.61933" lon="6.93717">
        <ele>157.7999878</ele>
        <time>2017-07-11T16:42:57Z</time>
      </trkpt>
      <trkpt lat="43.61924" lon="6.93734">
        <ele>158</ele>
        <time>2017-07-11T16:43:01Z</time>
      </trkpt>
      <trkpt lat="43.61916" lon="6.93748">
        <ele>158.2000122</ele>
        <time>2017-07-11T16:43:06Z</time>
      </trkpt>
      <trkpt lat="43.61904" lon="6.93762">
        <ele>158</ele>
        <time>2017-07-11T16:43:13Z</time>
      </trkpt>
      <trkpt lat="43.61896" lon="6.93767">
        <ele>158</ele>
        <time>2017-07-11T16:43:16Z</time>
      </trkpt>
      <trkpt lat="43.61893" lon="6.93766">
        <ele>158</ele>
        <time>2017-07-11T16:43:17Z</time>
      </trkpt>
      <trkpt lat="43.61883" lon="6.93756">
        <ele>158</ele>
        <time>2017-07-11T16:43:22Z</time>
      </trkpt>
      <trkpt lat="43.61879" lon="6.93751">
        <ele>157.5999756</ele>
        <time>2017-07-11T16:43:27Z</time>
      </trkpt>
      <trkpt lat="43.61878" lon="6.9375">
        <ele>157.4000244</ele>
        <time>2017-07-11T16:43:32Z</time>
      </trkpt>
      <trkpt lat="43.61878" lon="6.9375">
        <ele>157.4000244</ele>
        <time>2017-07-11T16:43:39Z</time>
      </trkpt>
      <trkpt lat="43.61878" lon="6.9375">
        <ele>157.4000244</ele>
        <time>2017-07-11T16:43:54Z</time>
      </trkpt>
      <trkpt lat="43.61878" lon="6.9375">
        <ele>157.4000244</ele>
        <time>2017-07-11T16:44:15Z</time>
      </trkpt>
      <trkpt lat="43.61878" lon="6.9375">
        <ele>157.4000244</ele>
        <time>2017-07-11T16:44:23Z</time>
      </trkpt>
      <trkpt lat="43.61877" lon="6.93753">
        <ele>157.4000244</ele>
        <time>2017-07-11T16:44:28Z</time>
      </trkpt>
      <trkpt lat="43.61876" lon="6.93756">
        <ele>157.2000122</ele>
        <time>2017-07-11T16:44:29Z</time>
      </trkpt>
      <trkpt lat="43.61876" lon="6.9376">
        <ele>157</ele>
        <time>2017-07-11T16:44:30Z</time>
      </trkpt>
      <trkpt lat="43.61871" lon="6.9377">
        <ele>156</ele>
        <time>2017-07-11T16:44:33Z</time>
      </trkpt>
      <trkpt lat="43.61862" lon="6.93779">
        <ele>154</ele>
        <time>2017-07-11T16:44:36Z</time>
      </trkpt>
      <trkpt lat="43.61859" lon="6.93782">
        <ele>153</ele>
        <time>2017-07-11T16:44:37Z</time>
      </trkpt>
      <trkpt lat="43.61856" lon="6.93785">
        <ele>152</ele>
        <time>2017-07-11T16:44:38Z</time>
      </trkpt>
      <trkpt lat="43.61854" lon="6.93788">
        <ele>151</ele>
        <time>2017-07-11T16:44:39Z</time>
      </trkpt>
      <trkpt lat="43.61853" lon="6.93792">
        <ele>150</ele>
        <time>2017-07-11T16:44:40Z</time>
      </trkpt>
      <trkpt lat="43.61851" lon="6.93798">
        <ele>148.7999878</ele>
        <time>2017-07-11T16:44:41Z</time>
      </trkpt>
      <trkpt lat="43.61849" lon="6.93811">
        <ele>147</ele>
        <time>2017-07-11T16:44:43Z</time>
      </trkpt>
      <trkpt lat="43.61848" lon="6.93818">
        <ele>146.2000122</ele>
        <time>2017-07-11T16:44:44Z</time>
      </trkpt>
      <trkpt lat="43.61847" lon="6.93826">
        <ele>145</ele>
        <time>2017-07-11T16:44:45Z</time>
      </trkpt>
      <trkpt lat="43.61847" lon="6.93834">
        <ele>144.2000122</ele>
        <time>2017-07-11T16:44:46Z</time>
      </trkpt>
      <trkpt lat="43.61846" lon="6.9384">
        <ele>143.2000122</ele>
        <time>2017-07-11T16:44:47Z</time>
      </trkpt>
      <trkpt lat="43.61844" lon="6.93844">
        <ele>142.4000244</ele>
        <time>2017-07-11T16:44:48Z</time>
      </trkpt>
      <trkpt lat="43.61841" lon="6.93846">
        <ele>141.4000244</ele>
        <time>2017-07-11T16:44:49Z</time>
      </trkpt>
      <trkpt lat="43.61838" lon="6.93848">
        <ele>140.5999756</ele>
        <time>2017-07-11T16:44:50Z</time>
      </trkpt>
      <trkpt lat="43.61834" lon="6.93849">
        <ele>139.5999756</ele>
        <time>2017-07-11T16:44:51Z</time>
      </trkpt>
      <trkpt lat="43.6183" lon="6.93851">
        <ele>138.5999756</ele>
        <time>2017-07-11T16:44:52Z</time>
      </trkpt>
      <trkpt lat="43.61826" lon="6.93852">
        <ele>137.5999756</ele>
        <time>2017-07-11T16:44:53Z</time>
      </trkpt>
      <trkpt lat="43.61822" lon="6.93852">
        <ele>136.4000244</ele>
        <time>2017-07-11T16:44:54Z</time>
      </trkpt>
      <trkpt lat="43.61818" lon="6.9385">
        <ele>135.4000244</ele>
        <time>2017-07-11T16:44:55Z</time>
      </trkpt>
      <trkpt lat="43.61815" lon="6.93848">
        <ele>134.4000244</ele>
        <time>2017-07-11T16:44:56Z</time>
      </trkpt>
      <trkpt lat="43.61813" lon="6.93846">
        <ele>133.4000244</ele>
        <time>2017-07-11T16:44:57Z</time>
      </trkpt>
      <trkpt lat="43.61807" lon="6.93842">
        <ele>131.4000244</ele>
        <time>2017-07-11T16:44:59Z</time>
      </trkpt>
      <trkpt lat="43.618" lon="6.93836">
        <ele>129.4000244</ele>
        <time>2017-07-11T16:45:01Z</time>
      </trkpt>
      <trkpt lat="43.61798" lon="6.93836">
        <ele>128.4000244</ele>
        <time>2017-07-11T16:45:02Z</time>
      </trkpt>
      <trkpt lat="43.61795" lon="6.93837">
        <ele>127.5999756</ele>
        <time>2017-07-11T16:45:03Z</time>
      </trkpt>
      <trkpt lat="43.61793" lon="6.9384">
        <ele>126.5999756</ele>
        <time>2017-07-11T16:45:04Z</time>
      </trkpt>
      <trkpt lat="43.61792" lon="6.93843">
        <ele>125.5999756</ele>
        <time>2017-07-11T16:45:05Z</time>
      </trkpt>
      <trkpt lat="43.61791" lon="6.93846">
        <ele>124.5999756</ele>
        <time>2017-07-11T16:45:06Z</time>
      </trkpt>
      <trkpt lat="43.6179" lon="6.93848">
        <ele>123.7999878</ele>
        <time>2017-07-11T16:45:07Z</time>
      </trkpt>
      <trkpt lat="43.61785" lon="6.93852">
        <ele>122</ele>
        <time>2017-07-11T16:45:09Z</time>
      </trkpt>
      <trkpt lat="43.61782" lon="6.93853">
        <ele>121</ele>
        <time>2017-07-11T16:45:10Z</time>
      </trkpt>
      <trkpt lat="43.61779" lon="6.93856">
        <ele>120</ele>
        <time>2017-07-11T16:45:11Z</time>
      </trkpt>
      <trkpt lat="43.61777" lon="6.9386">
        <ele>119</ele>
        <time>2017-07-11T16:45:12Z</time>
      </trkpt>
      <trkpt lat="43.61775" lon="6.93864">
        <ele>118</ele>
        <time>2017-07-11T16:45:13Z</time>
      </trkpt>
      <trkpt lat="43.61774" lon="6.9387">
        <ele>117</ele>
        <time>2017-07-11T16:45:14Z</time>
      </trkpt>
      <trkpt lat="43.61777" lon="6.93881">
        <ele>115</ele>
        <time>2017-07-11T16:45:16Z</time>
      </trkpt>
      <trkpt lat="43.61779" lon="6.93883">
        <ele>114.2000122</ele>
        <time>2017-07-11T16:45:17Z</time>
      </trkpt>
      <trkpt lat="43.61781" lon="6.93885">
        <ele>113.4000244</ele>
        <time>2017-07-11T16:45:18Z</time>
      </trkpt>
      <trkpt lat="43.61781" lon="6.93886">
        <ele>112.5999756</ele>
        <time>2017-07-11T16:45:19Z</time>
      </trkpt>
      <trkpt lat="43.61782" lon="6.93887">
        <ele>112</ele>
        <time>2017-07-11T16:45:20Z</time>
      </trkpt>
      <trkpt lat="43.61781" lon="6.93889">
        <ele>111.4000244</ele>
        <time>2017-07-11T16:45:21Z</time>
      </trkpt>
      <trkpt lat="43.61781" lon="6.93893">
        <ele>110.7999878</ele>
        <time>2017-07-11T16:45:22Z</time>
      </trkpt>
      <trkpt lat="43.6178" lon="6.93902">
        <ele>109.2000122</ele>
        <time>2017-07-11T16:45:24Z</time>
      </trkpt>
      <trkpt lat="43.61776" lon="6.93908">
        <ele>107.7999878</ele>
        <time>2017-07-11T16:45:26Z</time>
      </trkpt>
      <trkpt lat="43.61774" lon="6.93911">
        <ele>107.2000122</ele>
        <time>2017-07-11T16:45:27Z</time>
      </trkpt>
      <trkpt lat="43.61772" lon="6.93914">
        <ele>106.5999756</ele>
        <time>2017-07-11T16:45:28Z</time>
      </trkpt>
      <trkpt lat="43.61768" lon="6.93923">
        <ele>105.4000244</ele>
        <time>2017-07-11T16:45:30Z</time>
      </trkpt>
      <trkpt lat="43.61768" lon="6.93926">
        <ele>105</ele>
        <time>2017-07-11T16:45:31Z</time>
      </trkpt>
      <trkpt lat="43.61769" lon="6.93932">
        <ele>104.2000122</ele>
        <time>2017-07-11T16:45:33Z</time>
      </trkpt>
      <trkpt lat="43.61768" lon="6.93938">
        <ele>103</ele>
        <time>2017-07-11T16:45:35Z</time>
      </trkpt>
      <trkpt lat="43.61769" lon="6.9394">
        <ele>102.4000244</ele>
        <time>2017-07-11T16:45:36Z</time>
      </trkpt>
      <trkpt lat="43.61773" lon="6.93945">
        <ele>101.5999756</ele>
        <time>2017-07-11T16:45:38Z</time>
      </trkpt>
      <trkpt lat="43.61775" lon="6.93949">
        <ele>101.4000244</ele>
        <time>2017-07-11T16:45:39Z</time>
      </trkpt>
      <trkpt lat="43.61783" lon="6.93954">
        <ele>100.5999756</ele>
        <time>2017-07-11T16:45:42Z</time>
      </trkpt>
      <trkpt lat="43.61796" lon="6.93963">
        <ele>99.5999756</ele>
        <time>2017-07-11T16:45:46Z</time>
      </trkpt>
      <trkpt lat="43.61803" lon="6.93969">
        <ele>99.2000122</ele>
        <time>2017-07-11T16:45:49Z</time>
      </trkpt>
      <trkpt lat="43.61805" lon="6.93969">
        <ele>99</ele>
        <time>2017-07-11T16:45:50Z</time>
      </trkpt>
      <trkpt lat="43.6181" lon="6.93973">
        <ele>99.4000244</ele>
        <time>2017-07-11T16:45:52Z</time>
      </trkpt>
      <trkpt lat="43.61816" lon="6.93981">
        <ele>99.7999878</ele>
        <time>2017-07-11T16:45:54Z</time>
      </trkpt>
      <trkpt lat="43.61827" lon="6.93988">
        <ele>100.4000244</ele>
        <time>2017-07-11T16:45:57Z</time>
      </trkpt>
      <trkpt lat="43.61831" lon="6.9399">
        <ele>100.5999756</ele>
        <time>2017-07-11T16:45:58Z</time>
      </trkpt>
      <trkpt lat="43.61844" lon="6.94001">
        <ele>101.5999756</ele>
        <time>2017-07-11T16:46:02Z</time>
      </trkpt>
      <trkpt lat="43.61844" lon="6.94006">
        <ele>101.5999756</ele>
        <time>2017-07-11T16:46:03Z</time>
      </trkpt>
      <trkpt lat="43.61843" lon="6.94015">
        <ele>101.4000244</ele>
        <time>2017-07-11T16:46:05Z</time>
      </trkpt>
      <trkpt lat="43.61842" lon="6.9402">
        <ele>101.2000122</ele>
        <time>2017-07-11T16:46:06Z</time>
      </trkpt>
      <trkpt lat="43.6184" lon="6.94027">
        <ele>100.5999756</ele>
        <time>2017-07-11T16:46:08Z</time>
      </trkpt>
      <trkpt lat="43.6184" lon="6.94027">
        <ele>100.2000122</ele>
        <time>2017-07-11T16:46:09Z</time>
      </trkpt>
      <trkpt lat="43.6184" lon="6.94029">
        <ele>100.4000244</ele>
        <time>2017-07-11T16:46:16Z</time>
      </trkpt>
      <trkpt lat="43.6184" lon="6.94029">
        <ele>100.4000244</ele>
        <time>2017-07-11T16:46:26Z</time>
      </trkpt>
      <trkpt lat="43.6184" lon="6.94029">
        <ele>100.4000244</ele>
        <time>2017-07-11T16:46:38Z</time>
      </trkpt>
      <trkpt lat="43.6184" lon="6.94028">
        <ele>100.4000244</ele>
        <time>2017-07-11T16:46:53Z</time>
      </trkpt>
      <trkpt lat="43.6184" lon="6.94028">
        <ele>100.4000244</ele>
        <time>2017-07-11T16:47:10Z</time>
      </trkpt>
      <trkpt lat="43.6184" lon="6.94029">
        <ele>100.4000244</ele>
        <time>2017-07-11T16:47:33Z</time>
      </trkpt>
      <trkpt lat="43.6184" lon="6.94029">
        <ele>100.4000244</ele>
        <time>2017-07-11T16:47:46Z</time>
      </trkpt>
      <trkpt lat="43.6184" lon="6.94029">
        <ele>100.4000244</ele>
        <time>2017-07-11T16:48:00Z</time>
      </trkpt>
      <trkpt lat="43.6184" lon="6.94029">
        <ele>100.4000244</ele>
        <time>2017-07-11T16:48:17Z</time>
      </trkpt>
      <trkpt lat="43.6184" lon="6.94029">
        <ele>100.4000244</ele>
        <time>2017-07-11T16:48:34Z</time>
      </trkpt>
      <trkpt lat="43.6184" lon="6.94029">
        <ele>100.4000244</ele>
        <time>2017-07-11T16:48:46Z</time>
      </trkpt>
      <trkpt lat="43.6184" lon="6.94029">
        <ele>100.4000244</ele>
        <time>2017-07-11T16:49:01Z</time>
      </trkpt>
      <trkpt lat="43.6184" lon="6.94029">
        <ele>100.4000244</ele>
        <time>2017-07-11T16:49:13Z</time>
      </trkpt>
      <trkpt lat="43.61839" lon="6.94029">
        <ele>100.4000244</ele>
        <time>2017-07-11T16:49:21Z</time>
      </trkpt>
      <trkpt lat="43.61837" lon="6.94029">
        <ele>100.5999756</ele>
        <time>2017-07-11T16:49:22Z</time>
      </trkpt>
      <trkpt lat="43.61824" lon="6.94031">
        <ele>102</ele>
        <time>2017-07-11T16:49:26Z</time>
      </trkpt>
      <trkpt lat="43.61818" lon="6.94033">
        <ele>103.2000122</ele>
        <time>2017-07-11T16:49:28Z</time>
      </trkpt>
      <trkpt lat="43.61815" lon="6.94033">
        <ele>104</ele>
        <time>2017-07-11T16:49:29Z</time>
      </trkpt>
      <trkpt lat="43.61812" lon="6.94032">
        <ele>104.7999878</ele>
        <time>2017-07-11T16:49:30Z</time>
      </trkpt>
      <trkpt lat="43.61806" lon="6.94029">
        <ele>106.2000122</ele>
        <time>2017-07-11T16:49:32Z</time>
      </trkpt>
      <trkpt lat="43.61801" lon="6.94026">
        <ele>107.5999756</ele>
        <time>2017-07-11T16:49:34Z</time>
      </trkpt>
      <trkpt lat="43.61799" lon="6.94025">
        <ele>108.4000244</ele>
        <time>2017-07-11T16:49:35Z</time>
      </trkpt>
      <trkpt lat="43.61796" lon="6.94023">
        <ele>109.2000122</ele>
        <time>2017-07-11T16:49:36Z</time>
      </trkpt>
      <trkpt lat="43.61791" lon="6.9402">
        <ele>110.4000244</ele>
        <time>2017-07-11T16:49:38Z</time>
      </trkpt>
      <trkpt lat="43.61784" lon="6.94019">
        <ele>111.7999878</ele>
        <time>2017-07-11T16:49:40Z</time>
      </trkpt>
      <trkpt lat="43.61781" lon="6.94018">
        <ele>112.4000244</ele>
        <time>2017-07-11T16:49:41Z</time>
      </trkpt>
      <trkpt lat="43.61778" lon="6.94018">
        <ele>113</ele>
        <time>2017-07-11T16:49:42Z</time>
      </trkpt>
      <trkpt lat="43.6177" lon="6.94015">
        <ele>114.2000122</ele>
        <time>2017-07-11T16:49:44Z</time>
      </trkpt>
      <trkpt lat="43.61763" lon="6.94014">
        <ele>115.2000122</ele>
        <time>2017-07-11T16:49:46Z</time>
      </trkpt>
      <trkpt lat="43.61756" lon="6.94012">
        <ele>116.4000244</ele>
        <time>2017-07-11T16:49:48Z</time>
      </trkpt>
      <trkpt lat="43.61748" lon="6.94011">
        <ele>117.7999878</ele>
        <time>2017-07-11T16:49:50Z</time>
      </trkpt>
      <trkpt lat="43.61739" lon="6.9401">
        <ele>118.7999878</ele>
        <time>2017-07-11T16:49:52Z</time>
      </trkpt>
      <trkpt lat="43.61734" lon="6.9401">
        <ele>119.4000244</ele>
        <time>2017-07-11T16:49:53Z</time>
      </trkpt>
      <trkpt lat="43.61721" lon="6.9401">
        <ele>119.4000244</ele>
        <time>2017-07-11T16:49:55Z</time>
      </trkpt>
      <trkpt lat="43.61708" lon="6.94015">
        <ele>120</ele>
        <time>2017-07-11T16:49:58Z</time>
      </trkpt>
      <trkpt lat="43.61706" lon="6.94018">
        <ele>120</ele>
        <time>2017-07-11T16:49:59Z</time>
      </trkpt>
      <trkpt lat="43.61693" lon="6.94028">
        <ele>120.7999878</ele>
        <time>2017-07-11T16:50:04Z</time>
      </trkpt>
      <trkpt lat="43.61686" lon="6.94031">
        <ele>120.4000244</ele>
        <time>2017-07-11T16:50:06Z</time>
      </trkpt>
      <trkpt lat="43.61673" lon="6.94038">
        <ele>118.5999756</ele>
        <time>2017-07-11T16:50:10Z</time>
      </trkpt>
      <trkpt lat="43.61667" lon="6.94041">
        <ele>117.2000122</ele>
        <time>2017-07-11T16:50:12Z</time>
      </trkpt>
      <trkpt lat="43.61662" lon="6.94045">
        <ele>116</ele>
        <time>2017-07-11T16:50:14Z</time>
      </trkpt>
      <trkpt lat="43.61651" lon="6.94051">
        <ele>114.7999878</ele>
        <time>2017-07-11T16:50:18Z</time>
      </trkpt>
      <trkpt lat="43.61648" lon="6.94053">
        <ele>113.7999878</ele>
        <time>2017-07-11T16:50:20Z</time>
      </trkpt>
      <trkpt lat="43.61642" lon="6.94054">
        <ele>112.2000122</ele>
        <time>2017-07-11T16:50:22Z</time>
      </trkpt>
      <trkpt lat="43.6164" lon="6.94056">
        <ele>112</ele>
        <time>2017-07-11T16:50:23Z</time>
      </trkpt>
      <trkpt lat="43.61635" lon="6.94059">
        <ele>111.2000122</ele>
        <time>2017-07-11T16:50:26Z</time>
      </trkpt>
      <trkpt lat="43.61634" lon="6.94059">
        <ele>110.7999878</ele>
        <time>2017-07-11T16:50:27Z</time>
      </trkpt>
      <trkpt lat="43.61632" lon="6.94061">
        <ele>110.2000122</ele>
        <time>2017-07-11T16:50:29Z</time>
      </trkpt>
      <trkpt lat="43.61626" lon="6.94065">
        <ele>109.7999878</ele>
        <time>2017-07-11T16:50:32Z</time>
      </trkpt>
      <trkpt lat="43.61609" lon="6.94075">
        <ele>110.5999756</ele>
        <time>2017-07-11T16:50:41Z</time>
      </trkpt>
      <trkpt lat="43.616" lon="6.94085">
        <ele>111.2000122</ele>
        <time>2017-07-11T16:50:45Z</time>
      </trkpt>
      <trkpt lat="43.61597" lon="6.94089">
        <ele>111.5999756</ele>
        <time>2017-07-11T16:50:47Z</time>
      </trkpt>
      <trkpt lat="43.61588" lon="6.94103">
        <ele>112.2000122</ele>
        <time>2017-07-11T16:50:53Z</time>
      </trkpt>
      <trkpt lat="43.61583" lon="6.9411">
        <ele>112.4000244</ele>
        <time>2017-07-11T16:50:56Z</time>
      </trkpt>
      <trkpt lat="43.61577" lon="6.94116">
        <ele>112.7999878</ele>
        <time>2017-07-11T16:51:01Z</time>
      </trkpt>
      <trkpt lat="43.61572" lon="6.94118">
        <ele>112.7999878</ele>
        <time>2017-07-11T16:51:04Z</time>
      </trkpt>
      <trkpt lat="43.6157" lon="6.94118">
        <ele>112.5999756</ele>
        <time>2017-07-11T16:51:06Z</time>
      </trkpt>
      <trkpt lat="43.61562" lon="6.94116">
        <ele>112.4000244</ele>
        <time>2017-07-11T16:51:11Z</time>
      </trkpt>
      <trkpt lat="43.61553" lon="6.94112">
        <ele>112.5999756</ele>
        <time>2017-07-11T16:51:14Z</time>
      </trkpt>
      <trkpt lat="43.6155" lon="6.9411">
        <ele>112.5999756</ele>
        <time>2017-07-11T16:51:16Z</time>
      </trkpt>
      <trkpt lat="43.6154" lon="6.94103">
        <ele>113</ele>
        <time>2017-07-11T16:51:22Z</time>
      </trkpt>
      <trkpt lat="43.61532" lon="6.94095">
        <ele>113.2000122</ele>
        <time>2017-07-11T16:51:28Z</time>
      </trkpt>
      <trkpt lat="43.61531" lon="6.94094">
        <ele>113.4000244</ele>
        <time>2017-07-11T16:51:29Z</time>
      </trkpt>
      <trkpt lat="43.61525" lon="6.94088">
        <ele>114.5999756</ele>
        <time>2017-07-11T16:51:35Z</time>
      </trkpt>
      <trkpt lat="43.61523" lon="6.94088">
        <ele>114.5999756</ele>
        <time>2017-07-11T16:51:36Z</time>
      </trkpt>
      <trkpt lat="43.61522" lon="6.94088">
        <ele>115.2000122</ele>
        <time>2017-07-11T16:51:37Z</time>
      </trkpt>
      <trkpt lat="43.6152" lon="6.94089">
        <ele>115.5999756</ele>
        <time>2017-07-11T16:51:38Z</time>
      </trkpt>
      <trkpt lat="43.61515" lon="6.9409">
        <ele>116.7999878</ele>
        <time>2017-07-11T16:51:41Z</time>
      </trkpt>
      <trkpt lat="43.61514" lon="6.94089">
        <ele>117</ele>
        <time>2017-07-11T16:51:42Z</time>
      </trkpt>
      <trkpt lat="43.61509" lon="6.94083">
        <ele>117.4000244</ele>
        <time>2017-07-11T16:51:46Z</time>
      </trkpt>
      <trkpt lat="43.61506" lon="6.94081">
        <ele>117.4000244</ele>
        <time>2017-07-11T16:51:48Z</time>
      </trkpt>
      <trkpt lat="43.61504" lon="6.94079">
        <ele>117.7999878</ele>
        <time>2017-07-11T16:51:50Z</time>
      </trkpt>
      <trkpt lat="43.615" lon="6.94076">
        <ele>118.7999878</ele>
        <time>2017-07-11T16:51:54Z</time>
      </trkpt>
      <trkpt lat="43.61499" lon="6.94075">
        <ele>119.2000122</ele>
        <time>2017-07-11T16:51:55Z</time>
      </trkpt>
      <trkpt lat="43.61494" lon="6.94072">
        <ele>120.4000244</ele>
        <time>2017-07-11T16:51:59Z</time>
      </trkpt>
      <trkpt lat="43.61492" lon="6.94071">
        <ele>120.7999878</ele>
        <time>2017-07-11T16:52:00Z</time>
      </trkpt>
      <trkpt lat="43.61491" lon="6.9407">
        <ele>121.4000244</ele>
        <time>2017-07-11T16:52:01Z</time>
      </trkpt>
      <trkpt lat="43.61488" lon="6.94071">
        <ele>122.4000244</ele>
        <time>2017-07-11T16:52:03Z</time>
      </trkpt>
      <trkpt lat="43.61484" lon="6.94073">
        <ele>122.7999878</ele>
        <time>2017-07-11T16:52:06Z</time>
      </trkpt>
      <trkpt lat="43.61482" lon="6.94073">
        <ele>123.4000244</ele>
        <time>2017-07-11T16:52:09Z</time>
      </trkpt>
      <trkpt lat="43.61482" lon="6.94073">
        <ele>123.4000244</ele>
        <time>2017-07-11T16:52:11Z</time>
      </trkpt>
      <trkpt lat="43.61481" lon="6.94073">
        <ele>123.5999756</ele>
        <time>2017-07-11T16:52:17Z</time>
      </trkpt>
      <trkpt lat="43.61479" lon="6.94073">
        <ele>125</ele>
        <time>2017-07-11T16:52:21Z</time>
      </trkpt>
      <trkpt lat="43.61476" lon="6.94073">
        <ele>126.4000244</ele>
        <time>2017-07-11T16:52:24Z</time>
      </trkpt>
      <trkpt lat="43.61472" lon="6.94074">
        <ele>127.5999756</ele>
        <time>2017-07-11T16:52:28Z</time>
      </trkpt>
      <trkpt lat="43.61472" lon="6.94074">
        <ele>127.5999756</ele>
        <time>2017-07-11T16:52:30Z</time>
      </trkpt>
      <trkpt lat="43.61471" lon="6.94073">
        <ele>128</ele>
        <time>2017-07-11T16:52:32Z</time>
      </trkpt>
      <trkpt lat="43.61467" lon="6.94074">
        <ele>128.5999756</ele>
        <time>2017-07-11T16:52:34Z</time>
      </trkpt>
      <trkpt lat="43.61465" lon="6.94076">
        <ele>129</ele>
        <time>2017-07-11T16:52:35Z</time>
      </trkpt>
      <trkpt lat="43.61456" lon="6.94079">
        <ele>130.4000244</ele>
        <time>2017-07-11T16:52:40Z</time>
      </trkpt>
      <trkpt lat="43.61455" lon="6.94078">
        <ele>130.7999878</ele>
        <time>2017-07-11T16:52:41Z</time>
      </trkpt>
      <trkpt lat="43.61449" lon="6.94076">
        <ele>131.4000244</ele>
        <time>2017-07-11T16:52:44Z</time>
      </trkpt>
      <trkpt lat="43.61446" lon="6.94076">
        <ele>132</ele>
        <time>2017-07-11T16:52:46Z</time>
      </trkpt>
      <trkpt lat="43.61443" lon="6.94077">
        <ele>132.5999756</ele>
        <time>2017-07-11T16:52:48Z</time>
      </trkpt>
      <trkpt lat="43.61439" lon="6.94078">
        <ele>133.7999878</ele>
        <time>2017-07-11T16:52:51Z</time>
      </trkpt>
      <trkpt lat="43.61437" lon="6.94078">
        <ele>134</ele>
        <time>2017-07-11T16:52:52Z</time>
      </trkpt>
      <trkpt lat="43.61436" lon="6.94079">
        <ele>134.4000244</ele>
        <time>2017-07-11T16:52:53Z</time>
      </trkpt>
      <trkpt lat="43.61433" lon="6.94079">
        <ele>135</ele>
        <time>2017-07-11T16:52:55Z</time>
      </trkpt>
      <trkpt lat="43.61426" lon="6.94082">
        <ele>135.5999756</ele>
        <time>2017-07-11T16:53:01Z</time>
      </trkpt>
      <trkpt lat="43.61426" lon="6.94082">
        <ele>135.7999878</ele>
        <time>2017-07-11T16:53:07Z</time>
      </trkpt>
      <trkpt lat="43.61426" lon="6.94082">
        <ele>135.7999878</ele>
        <time>2017-07-11T16:53:27Z</time>
      </trkpt>
      <trkpt lat="43.61427" lon="6.94082">
        <ele>135.5999756</ele>
        <time>2017-07-11T16:53:51Z</time>
      </trkpt>
      <trkpt lat="43.61427" lon="6.94082">
        <ele>135.5999756</ele>
        <time>2017-07-11T16:54:19Z</time>
      </trkpt>
      <trkpt lat="43.61427" lon="6.94083">
        <ele>135.5999756</ele>
        <time>2017-07-11T16:54:39Z</time>
      </trkpt>
      <trkpt lat="43.61427" lon="6.94083">
        <ele>135.5999756</ele>
        <time>2017-07-11T16:55:00Z</time>
      </trkpt>
      <trkpt lat="43.61426" lon="6.94082">
        <ele>135.5999756</ele>
        <time>2017-07-11T16:55:09Z</time>
      </trkpt>
      <trkpt lat="43.61426" lon="6.94082">
        <ele>135.4000244</ele>
        <time>2017-07-11T16:55:14Z</time>
      </trkpt>
      <trkpt lat="43.61425" lon="6.94081">
        <ele>135.2000122</ele>
        <time>2017-07-11T16:55:18Z</time>
      </trkpt>
      <trkpt lat="43.61423" lon="6.94078">
        <ele>135</ele>
        <time>2017-07-11T16:55:20Z</time>
      </trkpt>
      <trkpt lat="43.61421" lon="6.94076">
        <ele>134.7999878</ele>
        <time>2017-07-11T16:55:22Z</time>
      </trkpt>
      <trkpt lat="43.61416" lon="6.94074">
        <ele>134.5999756</ele>
        <time>2017-07-11T16:55:24Z</time>
      </trkpt>
      <trkpt lat="43.61402" lon="6.94073">
        <ele>134.5999756</ele>
        <time>2017-07-11T16:55:29Z</time>
      </trkpt>
      <trkpt lat="43.61394" lon="6.94074">
        <ele>134.4000244</ele>
        <time>2017-07-11T16:55:31Z</time>
      </trkpt>
      <trkpt lat="43.61381" lon="6.94069">
        <ele>134.2000122</ele>
        <time>2017-07-11T16:55:35Z</time>
      </trkpt>
      <trkpt lat="43.61359" lon="6.94073">
        <ele>134.4000244</ele>
        <time>2017-07-11T16:55:39Z</time>
      </trkpt>
      <trkpt lat="43.61349" lon="6.94086">
        <ele>134.2000122</ele>
        <time>2017-07-11T16:55:42Z</time>
      </trkpt>
      <trkpt lat="43.61344" lon="6.94085">
        <ele>133.7999878</ele>
        <time>2017-07-11T16:55:45Z</time>
      </trkpt>
      <trkpt lat="43.61341" lon="6.94085">
        <ele>133.7999878</ele>
        <time>2017-07-11T16:55:46Z</time>
      </trkpt>
      <trkpt lat="43.61335" lon="6.94089">
        <ele>133.5999756</ele>
        <time>2017-07-11T16:55:48Z</time>
      </trkpt>
      <trkpt lat="43.61332" lon="6.94084">
        <ele>133.2000122</ele>
        <time>2017-07-11T16:55:50Z</time>
      </trkpt>
      <trkpt lat="43.61326" lon="6.94083">
        <ele>132.7999878</ele>
        <time>2017-07-11T16:55:52Z</time>
      </trkpt>
      <trkpt lat="43.61318" lon="6.94092">
        <ele>132.2000122</ele>
        <time>2017-07-11T16:55:55Z</time>
      </trkpt>
      <trkpt lat="43.61314" lon="6.94097">
        <ele>131.5999756</ele>
        <time>2017-07-11T16:55:56Z</time>
      </trkpt>
      <trkpt lat="43.61311" lon="6.94105">
        <ele>130.4000244</ele>
        <time>2017-07-11T16:55:58Z</time>
      </trkpt>
      <trkpt lat="43.61307" lon="6.94102">
        <ele>129</ele>
        <time>2017-07-11T16:56:01Z</time>
      </trkpt>
      <trkpt lat="43.61309" lon="6.9409">
        <ele>128</ele>
        <time>2017-07-11T16:56:03Z</time>
      </trkpt>
      <trkpt lat="43.61311" lon="6.94083">
        <ele>127.4000244</ele>
        <time>2017-07-11T16:56:04Z</time>
      </trkpt>
      <trkpt lat="43.61316" lon="6.94068">
        <ele>126.5999756</ele>
        <time>2017-07-11T16:56:06Z</time>
      </trkpt>
      <trkpt lat="43.61319" lon="6.94061">
        <ele>126.2000122</ele>
        <time>2017-07-11T16:56:07Z</time>
      </trkpt>
      <trkpt lat="43.61329" lon="6.94049">
        <ele>125.4000244</ele>
        <time>2017-07-11T16:56:09Z</time>
      </trkpt>
      <trkpt lat="43.61344" lon="6.94029">
        <ele>123.7999878</ele>
        <time>2017-07-11T16:56:12Z</time>
      </trkpt>
      <trkpt lat="43.61354" lon="6.94017">
        <ele>122.5999756</ele>
        <time>2017-07-11T16:56:14Z</time>
      </trkpt>
      <trkpt lat="43.61365" lon="6.94007">
        <ele>121</ele>
        <time>2017-07-11T16:56:16Z</time>
      </trkpt>
      <trkpt lat="43.61372" lon="6.93999">
        <ele>119.4000244</ele>
        <time>2017-07-11T16:56:18Z</time>
      </trkpt>
      <trkpt lat="43.61375" lon="6.93997">
        <ele>118.7999878</ele>
        <time>2017-07-11T16:56:19Z</time>
      </trkpt>
      <trkpt lat="43.61378" lon="6.93995">
        <ele>118</ele>
        <time>2017-07-11T16:56:20Z</time>
      </trkpt>
      <trkpt lat="43.61382" lon="6.93994">
        <ele>116.5999756</ele>
        <time>2017-07-11T16:56:22Z</time>
      </trkpt>
      <trkpt lat="43.61384" lon="6.93994">
        <ele>116</ele>
        <time>2017-07-11T16:56:23Z</time>
      </trkpt>
      <trkpt lat="43.61386" lon="6.93993">
        <ele>115.4000244</ele>
        <time>2017-07-11T16:56:24Z</time>
      </trkpt>
      <trkpt lat="43.61393" lon="6.93993">
        <ele>114</ele>
        <time>2017-07-11T16:56:26Z</time>
      </trkpt>
      <trkpt lat="43.61398" lon="6.9399">
        <ele>112.7999878</ele>
        <time>2017-07-11T16:56:28Z</time>
      </trkpt>
      <trkpt lat="43.61401" lon="6.93986">
        <ele>111.4000244</ele>
        <time>2017-07-11T16:56:30Z</time>
      </trkpt>
      <trkpt lat="43.61401" lon="6.93983">
        <ele>110.4000244</ele>
        <time>2017-07-11T16:56:31Z</time>
      </trkpt>
      <trkpt lat="43.614" lon="6.93979">
        <ele>109.4000244</ele>
        <time>2017-07-11T16:56:32Z</time>
      </trkpt>
      <trkpt lat="43.614" lon="6.93976">
        <ele>108.4000244</ele>
        <time>2017-07-11T16:56:33Z</time>
      </trkpt>
      <trkpt lat="43.61398" lon="6.93972">
        <ele>107.4000244</ele>
        <time>2017-07-11T16:56:34Z</time>
      </trkpt>
      <trkpt lat="43.61394" lon="6.9397">
        <ele>106.4000244</ele>
        <time>2017-07-11T16:56:35Z</time>
      </trkpt>
      <trkpt lat="43.61389" lon="6.9397">
        <ele>105.2000122</ele>
        <time>2017-07-11T16:56:36Z</time>
      </trkpt>
      <trkpt lat="43.61378" lon="6.93966">
        <ele>103.7999878</ele>
        <time>2017-07-11T16:56:38Z</time>
      </trkpt>
      <trkpt lat="43.61375" lon="6.93963">
        <ele>102.7999878</ele>
        <time>2017-07-11T16:56:39Z</time>
      </trkpt>
      <trkpt lat="43.61374" lon="6.93959">
        <ele>102</ele>
        <time>2017-07-11T16:56:40Z</time>
      </trkpt>
      <trkpt lat="43.61371" lon="6.93955">
        <ele>100.5999756</ele>
        <time>2017-07-11T16:56:42Z</time>
      </trkpt>
      <trkpt lat="43.61372" lon="6.93951">
        <ele>99.2000122</ele>
        <time>2017-07-11T16:56:44Z</time>
      </trkpt>
      <trkpt lat="43.61372" lon="6.93949">
        <ele>98.4000244</ele>
        <time>2017-07-11T16:56:45Z</time>
      </trkpt>
      <trkpt lat="43.61371" lon="6.93946">
        <ele>97.7999878</ele>
        <time>2017-07-11T16:56:46Z</time>
      </trkpt>
      <trkpt lat="43.61368" lon="6.93943">
        <ele>96.2000122</ele>
        <time>2017-07-11T16:56:48Z</time>
      </trkpt>
      <trkpt lat="43.61367" lon="6.93941">
        <ele>95.4000244</ele>
        <time>2017-07-11T16:56:49Z</time>
      </trkpt>
      <trkpt lat="43.61365" lon="6.9394">
        <ele>94.5999756</ele>
        <time>2017-07-11T16:56:50Z</time>
      </trkpt>
      <trkpt lat="43.61364" lon="6.93936">
        <ele>93.2000122</ele>
        <time>2017-07-11T16:56:52Z</time>
      </trkpt>
      <trkpt lat="43.61364" lon="6.93933">
        <ele>92.4000244</ele>
        <time>2017-07-11T16:56:53Z</time>
      </trkpt>
      <trkpt lat="43.61363" lon="6.93929">
        <ele>91.5999756</ele>
        <time>2017-07-11T16:56:54Z</time>
      </trkpt>
      <trkpt lat="43.61363" lon="6.93924">
        <ele>90.2000122</ele>
        <time>2017-07-11T16:56:56Z</time>
      </trkpt>
      <trkpt lat="43.61364" lon="6.93921">
        <ele>88.7999878</ele>
        <time>2017-07-11T16:56:58Z</time>
      </trkpt>
      <trkpt lat="43.61365" lon="6.9392">
        <ele>88.2000122</ele>
        <time>2017-07-11T16:56:59Z</time>
      </trkpt>
      <trkpt lat="43.61366" lon="6.93918">
        <ele>87.5999756</ele>
        <time>2017-07-11T16:57:00Z</time>
      </trkpt>
      <trkpt lat="43.61368" lon="6.93913">
        <ele>86.5999756</ele>
        <time>2017-07-11T16:57:02Z</time>
      </trkpt>
      <trkpt lat="43.61366" lon="6.93912">
        <ele>86</ele>
        <time>2017-07-11T16:57:03Z</time>
      </trkpt>
      <trkpt lat="43.61362" lon="6.93909">
        <ele>85</ele>
        <time>2017-07-11T16:57:05Z</time>
      </trkpt>
      <trkpt lat="43.6136" lon="6.93907">
        <ele>84</ele>
        <time>2017-07-11T16:57:07Z</time>
      </trkpt>
      <trkpt lat="43.6136" lon="6.93906">
        <ele>83.5999756</ele>
        <time>2017-07-11T16:57:08Z</time>
      </trkpt>
      <trkpt lat="43.6136" lon="6.93906">
        <ele>83.5999756</ele>
        <time>2017-07-11T16:57:19Z</time>
      </trkpt>
      <trkpt lat="43.6136" lon="6.93906">
        <ele>83.5999756</ele>
        <time>2017-07-11T16:57:33Z</time>
      </trkpt>
      <trkpt lat="43.6136" lon="6.93906">
        <ele>83.5999756</ele>
        <time>2017-07-11T16:57:43Z</time>
      </trkpt>
      <trkpt lat="43.6136" lon="6.93906">
        <ele>83.7999878</ele>
        <time>2017-07-11T16:58:03Z</time>
      </trkpt>
      <trkpt lat="43.6136" lon="6.93906">
        <ele>83.7999878</ele>
        <time>2017-07-11T16:58:20Z</time>
      </trkpt>
      <trkpt lat="43.6136" lon="6.93905">
        <ele>84</ele>
        <time>2017-07-11T16:58:35Z</time>
      </trkpt>
      <trkpt lat="43.6136" lon="6.93905">
        <ele>84</ele>
        <time>2017-07-11T16:58:53Z</time>
      </trkpt>
      <trkpt lat="43.6136" lon="6.93905">
        <ele>84</ele>
        <time>2017-07-11T16:59:13Z</time>
      </trkpt>
      <trkpt lat="43.6136" lon="6.93905">
        <ele>84</ele>
        <time>2017-07-11T16:59:29Z</time>
      </trkpt>
      <trkpt lat="43.6136" lon="6.93905">
        <ele>84</ele>
        <time>2017-07-11T16:59:42Z</time>
      </trkpt>
      <trkpt lat="43.6136" lon="6.93904">
        <ele>84</ele>
        <time>2017-07-11T16:59:57Z</time>
      </trkpt>
      <trkpt lat="43.6136" lon="6.93904">
        <ele>84</ele>
        <time>2017-07-11T17:00:09Z</time>
      </trkpt>
      <trkpt lat="43.6136" lon="6.93904">
        <ele>84</ele>
        <time>2017-07-11T17:00:20Z</time>
      </trkpt>
      <trkpt lat="43.61358" lon="6.93905">
        <ele>84</ele>
        <time>2017-07-11T17:00:30Z</time>
      </trkpt>
      <trkpt lat="43.61345" lon="6.93908">
        <ele>82.7999878</ele>
        <time>2017-07-11T17:00:36Z</time>
      </trkpt>
      <trkpt lat="43.6134" lon="6.93912">
        <ele>81.4000244</ele>
        <time>2017-07-11T17:00:38Z</time>
      </trkpt>
      <trkpt lat="43.61336" lon="6.93915">
        <ele>79.7999878</ele>
        <time>2017-07-11T17:00:40Z</time>
      </trkpt>
      <trkpt lat="43.61332" lon="6.93919">
        <ele>78.2000122</ele>
        <time>2017-07-11T17:00:42Z</time>
      </trkpt>
      <trkpt lat="43.61328" lon="6.93921">
        <ele>76.5999756</ele>
        <time>2017-07-11T17:00:44Z</time>
      </trkpt>
      <trkpt lat="43.61325" lon="6.93923">
        <ele>75.2000122</ele>
        <time>2017-07-11T17:00:46Z</time>
      </trkpt>
      <trkpt lat="43.61323" lon="6.93923">
        <ele>74</ele>
        <time>2017-07-11T17:00:48Z</time>
      </trkpt>
      <trkpt lat="43.6132" lon="6.93922">
        <ele>72.5999756</ele>
        <time>2017-07-11T17:00:50Z</time>
      </trkpt>
      <trkpt lat="43.61318" lon="6.93924">
        <ele>72.2000122</ele>
        <time>2017-07-11T17:00:51Z</time>
      </trkpt>
      <trkpt lat="43.61315" lon="6.93926">
        <ele>71.7999878</ele>
        <time>2017-07-11T17:00:52Z</time>
      </trkpt>
      <trkpt lat="43.61312" lon="6.93928">
        <ele>71.2000122</ele>
        <time>2017-07-11T17:00:53Z</time>
      </trkpt>
      <trkpt lat="43.61308" lon="6.93932">
        <ele>70</ele>
        <time>2017-07-11T17:00:55Z</time>
      </trkpt>
      <trkpt lat="43.613" lon="6.93937">
        <ele>68.5999756</ele>
        <time>2017-07-11T17:00:58Z</time>
      </trkpt>
      <trkpt lat="43.61284" lon="6.93948">
        <ele>67.7999878</ele>
        <time>2017-07-11T17:01:04Z</time>
      </trkpt>
      <trkpt lat="43.61283" lon="6.93948">
        <ele>67.5999756</ele>
        <time>2017-07-11T17:01:06Z</time>
      </trkpt>
      <trkpt lat="43.61283" lon="6.93948">
        <ele>67.5999756</ele>
        <time>2017-07-11T17:01:08Z</time>
      </trkpt>
      <trkpt lat="43.61282" lon="6.93948">
        <ele>67.4000244</ele>
        <time>2017-07-11T17:01:17Z</time>
      </trkpt>
      <trkpt lat="43.61274" lon="6.9395">
        <ele>68.7999878</ele>
        <time>2017-07-11T17:01:23Z</time>
      </trkpt>
      <trkpt lat="43.61269" lon="6.93949">
        <ele>70.2000122</ele>
        <time>2017-07-11T17:01:26Z</time>
      </trkpt>
      <trkpt lat="43.61267" lon="6.93948">
        <ele>70.5999756</ele>
        <time>2017-07-11T17:01:27Z</time>
      </trkpt>
      <trkpt lat="43.61262" lon="6.93947">
        <ele>71.4000244</ele>
        <time>2017-07-11T17:01:29Z</time>
      </trkpt>
      <trkpt lat="43.61255" lon="6.93944">
        <ele>72.7999878</ele>
        <time>2017-07-11T17:01:32Z</time>
      </trkpt>
      <trkpt lat="43.6125" lon="6.9394">
        <ele>74</ele>
        <time>2017-07-11T17:01:35Z</time>
      </trkpt>
      <trkpt lat="43.61248" lon="6.93939">
        <ele>74.4000244</ele>
        <time>2017-07-11T17:01:36Z</time>
      </trkpt>
      <trkpt lat="43.61231" lon="6.93935">
        <ele>75</ele>
        <time>2017-07-11T17:01:41Z</time>
      </trkpt>
      <trkpt lat="43.61227" lon="6.93934">
        <ele>75.2000122</ele>
        <time>2017-07-11T17:01:42Z</time>
      </trkpt>
      <trkpt lat="43.61208" lon="6.93931">
        <ele>76</ele>
        <time>2017-07-11T17:01:46Z</time>
      </trkpt>
      <trkpt lat="43.61201" lon="6.93929">
        <ele>76.2000122</ele>
        <time>2017-07-11T17:01:48Z</time>
      </trkpt>
      <trkpt lat="43.61188" lon="6.93927">
        <ele>76.2000122</ele>
        <time>2017-07-11T17:01:51Z</time>
      </trkpt>
      <trkpt lat="43.61176" lon="6.93926">
        <ele>76.4000244</ele>
        <time>2017-07-11T17:01:56Z</time>
      </trkpt>
      <trkpt lat="43.61167" lon="6.9393">
        <ele>76.2000122</ele>
        <time>2017-07-11T17:02:01Z</time>
      </trkpt>
      <trkpt lat="43.61161" lon="6.93934">
        <ele>76.2000122</ele>
        <time>2017-07-11T17:02:07Z</time>
      </trkpt>
      <trkpt lat="43.6116" lon="6.93935">
        <ele>76.2000122</ele>
        <time>2017-07-11T17:02:13Z</time>
      </trkpt>
      <trkpt lat="43.61159" lon="6.93935">
        <ele>76.2000122</ele>
        <time>2017-07-11T17:02:19Z</time>
      </trkpt>
      <trkpt lat="43.61158" lon="6.93934">
        <ele>75.7999878</ele>
        <time>2017-07-11T17:02:26Z</time>
      </trkpt>
      <trkpt lat="43.61157" lon="6.93939">
        <ele>75.2000122</ele>
        <time>2017-07-11T17:02:33Z</time>
      </trkpt>
      <trkpt lat="43.61157" lon="6.93941">
        <ele>75.2000122</ele>
        <time>2017-07-11T17:02:34Z</time>
      </trkpt>
      <trkpt lat="43.61155" lon="6.93942">
        <ele>75</ele>
        <time>2017-07-11T17:02:36Z</time>
      </trkpt>
      <trkpt lat="43.61152" lon="6.93943">
        <ele>75</ele>
        <time>2017-07-11T17:02:38Z</time>
      </trkpt>
      <trkpt lat="43.61148" lon="6.93946">
        <ele>75.2000122</ele>
        <time>2017-07-11T17:02:45Z</time>
      </trkpt>
      <trkpt lat="43.61148" lon="6.93945">
        <ele>75.5999756</ele>
        <time>2017-07-11T17:02:51Z</time>
      </trkpt>
      <trkpt lat="43.61146" lon="6.93944">
        <ele>75.5999756</ele>
        <time>2017-07-11T17:02:55Z</time>
      </trkpt>
      <trkpt lat="43.61144" lon="6.93943">
        <ele>75.7999878</ele>
        <time>2017-07-11T17:02:57Z</time>
      </trkpt>
      <trkpt lat="43.61141" lon="6.93943">
        <ele>76.4000244</ele>
        <time>2017-07-11T17:02:59Z</time>
      </trkpt>
      <trkpt lat="43.6114" lon="6.93943">
        <ele>76.4000244</ele>
        <time>2017-07-11T17:03:02Z</time>
      </trkpt>
      <trkpt lat="43.6114" lon="6.93943">
        <ele>76.4000244</ele>
        <time>2017-07-11T17:03:16Z</time>
      </trkpt>
      <trkpt lat="43.61134" lon="6.93939">
        <ele>76.5999756</ele>
        <time>2017-07-11T17:03:21Z</time>
      </trkpt>
      <trkpt lat="43.61123" lon="6.93931">
        <ele>77.2000122</ele>
        <time>2017-07-11T17:03:26Z</time>
      </trkpt>
      <trkpt lat="43.61121" lon="6.93931">
        <ele>77.4000244</ele>
        <time>2017-07-11T17:03:27Z</time>
      </trkpt>
      <trkpt lat="43.61103" lon="6.93928">
        <ele>78</ele>
        <time>2017-07-11T17:03:32Z</time>
      </trkpt>
      <trkpt lat="43.61089" lon="6.93926">
        <ele>77.7999878</ele>
        <time>2017-07-11T17:03:35Z</time>
      </trkpt>
      <trkpt lat="43.61079" lon="6.93923">
        <ele>77.4000244</ele>
        <time>2017-07-11T17:03:37Z</time>
      </trkpt>
      <trkpt lat="43.61061" lon="6.93918">
        <ele>76</ele>
        <time>2017-07-11T17:03:42Z</time>
      </trkpt>
      <trkpt lat="43.61055" lon="6.93917">
        <ele>75.7999878</ele>
        <time>2017-07-11T17:03:44Z</time>
      </trkpt>
      <trkpt lat="43.61048" lon="6.93918">
        <ele>75.2000122</ele>
        <time>2017-07-11T17:03:46Z</time>
      </trkpt>
      <trkpt lat="43.61044" lon="6.93919">
        <ele>74.7999878</ele>
        <time>2017-07-11T17:03:47Z</time>
      </trkpt>
      <trkpt lat="43.61025" lon="6.93923">
        <ele>74.2000122</ele>
        <time>2017-07-11T17:03:52Z</time>
      </trkpt>
      <trkpt lat="43.61014" lon="6.93924">
        <ele>73.7999878</ele>
        <time>2017-07-11T17:03:55Z</time>
      </trkpt>
      <trkpt lat="43.61011" lon="6.93925">
        <ele>73.4000244</ele>
        <time>2017-07-11T17:03:56Z</time>
      </trkpt>
      <trkpt lat="43.61009" lon="6.93927">
        <ele>73</ele>
        <time>2017-07-11T17:03:57Z</time>
      </trkpt>
      <trkpt lat="43.61007" lon="6.9393">
        <ele>72.5999756</ele>
        <time>2017-07-11T17:03:58Z</time>
      </trkpt>
      <trkpt lat="43.61007" lon="6.93936">
        <ele>72</ele>
        <time>2017-07-11T17:03:59Z</time>
      </trkpt>
      <trkpt lat="43.61008" lon="6.93942">
        <ele>71.4000244</ele>
        <time>2017-07-11T17:04:00Z</time>
      </trkpt>
      <trkpt lat="43.61009" lon="6.93954">
        <ele>70.2000122</ele>
        <time>2017-07-11T17:04:02Z</time>
      </trkpt>
      <trkpt lat="43.61009" lon="6.9396">
        <ele>69.5999756</ele>
        <time>2017-07-11T17:04:03Z</time>
      </trkpt>
      <trkpt lat="43.6101" lon="6.93966">
        <ele>69</ele>
        <time>2017-07-11T17:04:04Z</time>
      </trkpt>
      <trkpt lat="43.61012" lon="6.93982">
        <ele>67.4000244</ele>
        <time>2017-07-11T17:04:07Z</time>
      </trkpt>
      <trkpt lat="43.61015" lon="6.93987">
        <ele>67</ele>
        <time>2017-07-11T17:04:08Z</time>
      </trkpt>
      <trkpt lat="43.61017" lon="6.93992">
        <ele>66.2000122</ele>
        <time>2017-07-11T17:04:10Z</time>
      </trkpt>
      <trkpt lat="43.61017" lon="6.93992">
        <ele>65.2000122</ele>
        <time>2017-07-11T17:04:12Z</time>
      </trkpt>
      <trkpt lat="43.61017" lon="6.93992">
        <ele>65.2000122</ele>
        <time>2017-07-11T17:04:22Z</time>
      </trkpt>
      <trkpt lat="43.61017" lon="6.93992">
        <ele>65.2000122</ele>
        <time>2017-07-11T17:04:38Z</time>
      </trkpt>
      <trkpt lat="43.61017" lon="6.93993">
        <ele>65.2000122</ele>
        <time>2017-07-11T17:04:44Z</time>
      </trkpt>
      <trkpt lat="43.61016" lon="6.93997">
        <ele>65</ele>
        <time>2017-07-11T17:04:46Z</time>
      </trkpt>
      <trkpt lat="43.61016" lon="6.94018">
        <ele>64.5999756</ele>
        <time>2017-07-11T17:04:52Z</time>
      </trkpt>
      <trkpt lat="43.61014" lon="6.9403">
        <ele>64.2000122</ele>
        <time>2017-07-11T17:04:54Z</time>
      </trkpt>
      <trkpt lat="43.61011" lon="6.94039">
        <ele>63.7999878</ele>
        <time>2017-07-11T17:04:55Z</time>
      </trkpt>
      <trkpt lat="43.60999" lon="6.94056">
        <ele>62.5999756</ele>
        <time>2017-07-11T17:04:58Z</time>
      </trkpt>
      <trkpt lat="43.60982" lon="6.94057">
        <ele>61.5999756</ele>
        <time>2017-07-11T17:05:01Z</time>
      </trkpt>
      <trkpt lat="43.60976" lon="6.94055">
        <ele>61.4000244</ele>
        <time>2017-07-11T17:05:02Z</time>
      </trkpt>
      <trkpt lat="43.6097" lon="6.94052">
        <ele>61</ele>
        <time>2017-07-11T17:05:03Z</time>
      </trkpt>
      <trkpt lat="43.60965" lon="6.94049">
        <ele>60.5999756</ele>
        <time>2017-07-11T17:05:04Z</time>
      </trkpt>
      <trkpt lat="43.60955" lon="6.94041">
        <ele>60</ele>
        <time>2017-07-11T17:05:06Z</time>
      </trkpt>
      <trkpt lat="43.6092" lon="6.94019">
        <ele>59.2000122</ele>
        <time>2017-07-11T17:05:12Z</time>
      </trkpt>
      <trkpt lat="43.60915" lon="6.94016">
        <ele>59</ele>
        <time>2017-07-11T17:05:13Z</time>
      </trkpt>
      <trkpt lat="43.609" lon="6.9401">
        <ele>58.4000244</ele>
        <time>2017-07-11T17:05:16Z</time>
      </trkpt>
      <trkpt lat="43.60891" lon="6.94005">
        <ele>58.4000244</ele>
        <time>2017-07-11T17:05:18Z</time>
      </trkpt>
      <trkpt lat="43.60874" lon="6.93992">
        <ele>58.2000122</ele>
        <time>2017-07-11T17:05:22Z</time>
      </trkpt>
      <trkpt lat="43.60868" lon="6.93982">
        <ele>57.7999878</ele>
        <time>2017-07-11T17:05:24Z</time>
      </trkpt>
      <trkpt lat="43.6086" lon="6.93964">
        <ele>57.5999756</ele>
        <time>2017-07-11T17:05:28Z</time>
      </trkpt>
      <trkpt lat="43.60859" lon="6.9396">
        <ele>57.4000244</ele>
        <time>2017-07-11T17:05:29Z</time>
      </trkpt>
      <trkpt lat="43.60855" lon="6.93956">
        <ele>57.4000244</ele>
        <time>2017-07-11T17:05:31Z</time>
      </trkpt>
      <trkpt lat="43.60851" lon="6.93958">
        <ele>57.2000122</ele>
        <time>2017-07-11T17:05:33Z</time>
      </trkpt>
      <trkpt lat="43.60842" lon="6.93964">
        <ele>57.2000122</ele>
        <time>2017-07-11T17:05:36Z</time>
      </trkpt>
      <trkpt lat="43.60839" lon="6.93967">
        <ele>57.4000244</ele>
        <time>2017-07-11T17:05:37Z</time>
      </trkpt>
      <trkpt lat="43.60822" lon="6.93996">
        <ele>57.5999756</ele>
        <time>2017-07-11T17:05:44Z</time>
      </trkpt>
      <trkpt lat="43.60817" lon="6.94021">
        <ele>57.4000244</ele>
        <time>2017-07-11T17:05:49Z</time>
      </trkpt>
      <trkpt lat="43.60815" lon="6.94046">
        <ele>57.5999756</ele>
        <time>2017-07-11T17:05:55Z</time>
      </trkpt>
      <trkpt lat="43.60812" lon="6.94069">
        <ele>57.4000244</ele>
        <time>2017-07-11T17:06:01Z</time>
      </trkpt>
      <trkpt lat="43.60809" lon="6.941">
        <ele>57.5999756</ele>
        <time>2017-07-11T17:06:09Z</time>
      </trkpt>
      <trkpt lat="43.60807" lon="6.94128">
        <ele>57.4000244</ele>
        <time>2017-07-11T17:06:16Z</time>
      </trkpt>
      <trkpt lat="43.60808" lon="6.94156">
        <ele>58.2000122</ele>
        <time>2017-07-11T17:06:23Z</time>
      </trkpt>
      <trkpt lat="43.60806" lon="6.94192">
        <ele>58.7999878</ele>
        <time>2017-07-11T17:06:32Z</time>
      </trkpt>
      <trkpt lat="43.60806" lon="6.94195">
        <ele>59</ele>
        <time>2017-07-11T17:06:33Z</time>
      </trkpt>
      <trkpt lat="43.60804" lon="6.94206">
        <ele>59.5999756</ele>
        <time>2017-07-11T17:06:38Z</time>
      </trkpt>
      <trkpt lat="43.60803" lon="6.94204">
        <ele>60</ele>
        <time>2017-07-11T17:06:41Z</time>
      </trkpt>
      <trkpt lat="43.60803" lon="6.94202">
        <ele>60</ele>
        <time>2017-07-11T17:06:42Z</time>
      </trkpt>
      <trkpt lat="43.60803" lon="6.94202">
        <ele>60.2000122</ele>
        <time>2017-07-11T17:06:44Z</time>
      </trkpt>
      <trkpt lat="43.60803" lon="6.94202">
        <ele>60.2000122</ele>
        <time>2017-07-11T17:06:47Z</time>
      </trkpt>
      <trkpt lat="43.60803" lon="6.94202">
        <ele>60.2000122</ele>
        <time>2017-07-11T17:07:01Z</time>
      </trkpt>
      <trkpt lat="43.60803" lon="6.94202">
        <ele>60.4000244</ele>
        <time>2017-07-11T17:07:09Z</time>
      </trkpt>
      <trkpt lat="43.60804" lon="6.94203">
        <ele>60.2000122</ele>
        <time>2017-07-11T17:07:10Z</time>
      </trkpt>
      <trkpt lat="43.60804" lon="6.94206">
        <ele>60.5999756</ele>
        <time>2017-07-11T17:07:12Z</time>
      </trkpt>
      <trkpt lat="43.60802" lon="6.94213">
        <ele>61.2000122</ele>
        <time>2017-07-11T17:07:16Z</time>
      </trkpt>
      <trkpt lat="43.60802" lon="6.94214">
        <ele>61.4000244</ele>
        <time>2017-07-11T17:07:17Z</time>
      </trkpt>
      <trkpt lat="43.60802" lon="6.94225">
        <ele>62.4000244</ele>
        <time>2017-07-11T17:07:24Z</time>
      </trkpt>
      <trkpt lat="43.60803" lon="6.94231">
        <ele>62.7999878</ele>
        <time>2017-07-11T17:07:28Z</time>
      </trkpt>
      <trkpt lat="43.60805" lon="6.94236">
        <ele>63</ele>
        <time>2017-07-11T17:07:32Z</time>
      </trkpt>
      <trkpt lat="43.60808" lon="6.94242">
        <ele>63</ele>
        <time>2017-07-11T17:07:40Z</time>
      </trkpt>
      <trkpt lat="43.6081" lon="6.9425">
        <ele>63.4000244</ele>
        <time>2017-07-11T17:07:46Z</time>
      </trkpt>
      <trkpt lat="43.6081" lon="6.94252">
        <ele>63.7999878</ele>
        <time>2017-07-11T17:07:47Z</time>
      </trkpt>
      <trkpt lat="43.60811" lon="6.94256">
        <ele>64.7999878</ele>
        <time>2017-07-11T17:07:51Z</time>
      </trkpt>
      <trkpt lat="43.60811" lon="6.94258">
        <ele>65</ele>
        <time>2017-07-11T17:07:53Z</time>
      </trkpt>
      <trkpt lat="43.60817" lon="6.94266">
        <ele>66.2000122</ele>
        <time>2017-07-11T17:08:01Z</time>
      </trkpt>
      <trkpt lat="43.60819" lon="6.94269">
        <ele>66.2000122</ele>
        <time>2017-07-11T17:08:03Z</time>
      </trkpt>
      <trkpt lat="43.60823" lon="6.94275">
        <ele>67.4000244</ele>
        <time>2017-07-11T17:08:07Z</time>
      </trkpt>
      <trkpt lat="43.60827" lon="6.94278">
        <ele>68.5999756</ele>
        <time>2017-07-11T17:08:11Z</time>
      </trkpt>
      <trkpt lat="43.6083" lon="6.94282">
        <ele>69</ele>
        <time>2017-07-11T17:08:17Z</time>
      </trkpt>
      <trkpt lat="43.6083" lon="6.94282">
        <ele>69</ele>
        <time>2017-07-11T17:08:27Z</time>
      </trkpt>
      <trkpt lat="43.6083" lon="6.94282">
        <ele>69</ele>
        <time>2017-07-11T17:08:43Z</time>
      </trkpt>
      <trkpt lat="43.6083" lon="6.94282">
        <ele>69</ele>
        <time>2017-07-11T17:09:02Z</time>
      </trkpt>
      <trkpt lat="43.6083" lon="6.94282">
        <ele>69</ele>
        <time>2017-07-11T17:09:23Z</time>
      </trkpt>
      <trkpt lat="43.6083" lon="6.94282">
        <ele>69</ele>
        <time>2017-07-11T17:09:39Z</time>
      </trkpt>
      <trkpt lat="43.6083" lon="6.94282">
        <ele>69</ele>
        <time>2017-07-11T17:09:54Z</time>
      </trkpt>
      <trkpt lat="43.6083" lon="6.94282">
        <ele>69</ele>
        <time>2017-07-11T17:10:16Z</time>
      </trkpt>
      <trkpt lat="43.6083" lon="6.94282">
        <ele>69.4000244</ele>
        <time>2017-07-11T17:10:31Z</time>
      </trkpt>
      <trkpt lat="43.6083" lon="6.94282">
        <ele>69.4000244</ele>
        <time>2017-07-11T17:10:46Z</time>
      </trkpt>
      <trkpt lat="43.6083" lon="6.94282">
        <ele>69.4000244</ele>
        <time>2017-07-11T17:11:03Z</time>
      </trkpt>
      <trkpt lat="43.6083" lon="6.94282">
        <ele>69.4000244</ele>
        <time>2017-07-11T17:11:18Z</time>
      </trkpt>
      <trkpt lat="43.6083" lon="6.94282">
        <ele>69.4000244</ele>
        <time>2017-07-11T17:11:36Z</time>
      </trkpt>
      <trkpt lat="43.6083" lon="6.94282">
        <ele>69.4000244</ele>
        <time>2017-07-11T17:11:56Z</time>
      </trkpt>
      <trkpt lat="43.6083" lon="6.94282">
        <ele>69.4000244</ele>
        <time>2017-07-11T17:12:12Z</time>
      </trkpt>
      <trkpt lat="43.6083" lon="6.94282">
        <ele>69.5999756</ele>
        <time>2017-07-11T17:12:18Z</time>
      </trkpt>
      <trkpt lat="43.6083" lon="6.94282">
        <ele>69.5999756</ele>
        <time>2017-07-11T17:12:29Z</time>
      </trkpt>
      <trkpt lat="43.6083" lon="6.94282">
        <ele>69.5999756</ele>
        <time>2017-07-11T17:12:45Z</time>
      </trkpt>
      <trkpt lat="43.6083" lon="6.94282">
        <ele>69.7999878</ele>
        <time>2017-07-11T17:13:01Z</time>
      </trkpt>
      <trkpt lat="43.6083" lon="6.94282">
        <ele>69.7999878</ele>
        <time>2017-07-11T17:13:18Z</time>
      </trkpt>
      <trkpt lat="43.6083" lon="6.94282">
        <ele>69.7999878</ele>
        <time>2017-07-11T17:13:32Z</time>
      </trkpt>
      <trkpt lat="43.60829" lon="6.94282">
        <ele>69.7999878</ele>
        <time>2017-07-11T17:13:49Z</time>
      </trkpt>
      <trkpt lat="43.60829" lon="6.94282">
        <ele>69.7999878</ele>
        <time>2017-07-11T17:14:07Z</time>
      </trkpt>
      <trkpt lat="43.6083" lon="6.94282">
        <ele>70</ele>
        <time>2017-07-11T17:14:16Z</time>
      </trkpt>
      <trkpt lat="43.60832" lon="6.94281">
        <ele>70.7999878</ele>
        <time>2017-07-11T17:14:24Z</time>
      </trkpt>
      <trkpt lat="43.60832" lon="6.94281">
        <ele>71</ele>
        <time>2017-07-11T17:14:25Z</time>
      </trkpt>
      <trkpt lat="43.60835" lon="6.94285">
        <ele>72</ele>
        <time>2017-07-11T17:14:32Z</time>
      </trkpt>
      <trkpt lat="43.60839" lon="6.94287">
        <ele>73.2000122</ele>
        <time>2017-07-11T17:14:36Z</time>
      </trkpt>
      <trkpt lat="43.60841" lon="6.94287">
        <ele>73.7999878</ele>
        <time>2017-07-11T17:14:39Z</time>
      </trkpt>
      <trkpt lat="43.60844" lon="6.94288">
        <ele>74.2000122</ele>
        <time>2017-07-11T17:14:47Z</time>
      </trkpt>
      <trkpt lat="43.60847" lon="6.94288">
        <ele>74.4000244</ele>
        <time>2017-07-11T17:14:48Z</time>
      </trkpt>
      <trkpt lat="43.60864" lon="6.9429">
        <ele>75.4000244</ele>
        <time>2017-07-11T17:14:53Z</time>
      </trkpt>
      <trkpt lat="43.60882" lon="6.94299">
        <ele>76.5999756</ele>
        <time>2017-07-11T17:14:59Z</time>
      </trkpt>
      <trkpt lat="43.60888" lon="6.94304">
        <ele>77.7999878</ele>
        <time>2017-07-11T17:15:03Z</time>
      </trkpt>
      <trkpt lat="43.6089" lon="6.94305">
        <ele>78.7999878</ele>
        <time>2017-07-11T17:15:06Z</time>
      </trkpt>
      <trkpt lat="43.60894" lon="6.94306">
        <ele>79.2000122</ele>
        <time>2017-07-11T17:15:12Z</time>
      </trkpt>
      <trkpt lat="43.60897" lon="6.94308">
        <ele>79.2000122</ele>
        <time>2017-07-11T17:15:13Z</time>
      </trkpt>
      <trkpt lat="43.60904" lon="6.94313">
        <ele>80.2000122</ele>
        <time>2017-07-11T17:15:17Z</time>
      </trkpt>
      <trkpt lat="43.60905" lon="6.94314">
        <ele>80.5999756</ele>
        <time>2017-07-11T17:15:18Z</time>
      </trkpt>
      <trkpt lat="43.60907" lon="6.94317">
        <ele>81</ele>
        <time>2017-07-11T17:15:24Z</time>
      </trkpt>
      <trkpt lat="43.60907" lon="6.94317">
        <ele>81.2000122</ele>
        <time>2017-07-11T17:15:26Z</time>
      </trkpt>
      <trkpt lat="43.60908" lon="6.9432">
        <ele>82.2000122</ele>
        <time>2017-07-11T17:15:29Z</time>
      </trkpt>
      <trkpt lat="43.60909" lon="6.9432">
        <ele>82.4000244</ele>
        <time>2017-07-11T17:15:30Z</time>
      </trkpt>
      <trkpt lat="43.60915" lon="6.94321">
        <ele>82.5999756</ele>
        <time>2017-07-11T17:15:33Z</time>
      </trkpt>
      <trkpt lat="43.60922" lon="6.94324">
        <ele>82.2000122</ele>
        <time>2017-07-11T17:15:35Z</time>
      </trkpt>
      <trkpt lat="43.60938" lon="6.94335">
        <ele>82.4000244</ele>
        <time>2017-07-11T17:15:41Z</time>
      </trkpt>
      <trkpt lat="43.60957" lon="6.94345">
        <ele>81.4000244</ele>
        <time>2017-07-11T17:15:47Z</time>
      </trkpt>
      <trkpt lat="43.6096" lon="6.94348">
        <ele>81.4000244</ele>
        <time>2017-07-11T17:15:48Z</time>
      </trkpt>
      <trkpt lat="43.60969" lon="6.94357">
        <ele>81.4000244</ele>
        <time>2017-07-11T17:15:51Z</time>
      </trkpt>
      <trkpt lat="43.60985" lon="6.94368">
        <ele>82.2000122</ele>
        <time>2017-07-11T17:15:56Z</time>
      </trkpt>
      <trkpt lat="43.60993" lon="6.94375">
        <ele>81.2000122</ele>
        <time>2017-07-11T17:15:58Z</time>
      </trkpt>
      <trkpt lat="43.61" lon="6.94381">
        <ele>80.4000244</ele>
        <time>2017-07-11T17:16:01Z</time>
      </trkpt>
      <trkpt lat="43.61004" lon="6.94382">
        <ele>80.2000122</ele>
        <time>2017-07-11T17:16:02Z</time>
      </trkpt>
      <trkpt lat="43.61016" lon="6.94388">
        <ele>79.5999756</ele>
        <time>2017-07-11T17:16:05Z</time>
      </trkpt>
      <trkpt lat="43.61022" lon="6.9439">
        <ele>79.7999878</ele>
        <time>2017-07-11T17:16:06Z</time>
      </trkpt>
      <trkpt lat="43.61036" lon="6.94393">
        <ele>78.5999756</ele>
        <time>2017-07-11T17:16:09Z</time>
      </trkpt>
      <trkpt lat="43.6104" lon="6.94396">
        <ele>78</ele>
        <time>2017-07-11T17:16:10Z</time>
      </trkpt>
      <trkpt lat="43.61043" lon="6.94399">
        <ele>77.5999756</ele>
        <time>2017-07-11T17:16:11Z</time>
      </trkpt>
      <trkpt lat="43.61054" lon="6.944">
        <ele>76.5999756</ele>
        <time>2017-07-11T17:16:14Z</time>
      </trkpt>
      <trkpt lat="43.61058" lon="6.94401">
        <ele>76.2000122</ele>
        <time>2017-07-11T17:16:15Z</time>
      </trkpt>
      <trkpt lat="43.61065" lon="6.94405">
        <ele>75.5999756</ele>
        <time>2017-07-11T17:16:17Z</time>
      </trkpt>
      <trkpt lat="43.61079" lon="6.94415">
        <ele>75.5999756</ele>
        <time>2017-07-11T17:16:21Z</time>
      </trkpt>
      <trkpt lat="43.61091" lon="6.94422">
        <ele>75.7999878</ele>
        <time>2017-07-11T17:16:24Z</time>
      </trkpt>
      <trkpt lat="43.61095" lon="6.94425">
        <ele>75.5999756</ele>
        <time>2017-07-11T17:16:25Z</time>
      </trkpt>
      <trkpt lat="43.61116" lon="6.94439">
        <ele>75.4000244</ele>
        <time>2017-07-11T17:16:30Z</time>
      </trkpt>
      <trkpt lat="43.6112" lon="6.94442">
        <ele>75.5999756</ele>
        <time>2017-07-11T17:16:31Z</time>
      </trkpt>
      <trkpt lat="43.61129" lon="6.94449">
        <ele>75.4000244</ele>
        <time>2017-07-11T17:16:33Z</time>
      </trkpt>
      <trkpt lat="43.61145" lon="6.94465">
        <ele>74.7999878</ele>
        <time>2017-07-11T17:16:37Z</time>
      </trkpt>
      <trkpt lat="43.61148" lon="6.94472">
        <ele>74.7999878</ele>
        <time>2017-07-11T17:16:38Z</time>
      </trkpt>
      <trkpt lat="43.61155" lon="6.94482">
        <ele>74.5999756</ele>
        <time>2017-07-11T17:16:40Z</time>
      </trkpt>
      <trkpt lat="43.6116" lon="6.94485">
        <ele>74.5999756</ele>
        <time>2017-07-11T17:16:41Z</time>
      </trkpt>
      <trkpt lat="43.61165" lon="6.94487">
        <ele>74.4000244</ele>
        <time>2017-07-11T17:16:42Z</time>
      </trkpt>
      <trkpt lat="43.61182" lon="6.94493">
        <ele>74.4000244</ele>
        <time>2017-07-11T17:16:45Z</time>
      </trkpt>
      <trkpt lat="43.61203" lon="6.94503">
        <ele>74.2000122</ele>
        <time>2017-07-11T17:16:50Z</time>
      </trkpt>
      <trkpt lat="43.6122" lon="6.94514">
        <ele>74.5999756</ele>
        <time>2017-07-11T17:16:55Z</time>
      </trkpt>
      <trkpt lat="43.61231" lon="6.94522">
        <ele>74.4000244</ele>
        <time>2017-07-11T17:16:58Z</time>
      </trkpt>
      <trkpt lat="43.61238" lon="6.94528">
        <ele>74.4000244</ele>
        <time>2017-07-11T17:17:00Z</time>
      </trkpt>
      <trkpt lat="43.61243" lon="6.94529">
        <ele>74.5999756</ele>
        <time>2017-07-11T17:17:01Z</time>
      </trkpt>
      <trkpt lat="43.61252" lon="6.94536">
        <ele>74.5999756</ele>
        <time>2017-07-11T17:17:03Z</time>
      </trkpt>
      <trkpt lat="43.61261" lon="6.94542">
        <ele>74.5999756</ele>
        <time>2017-07-11T17:17:05Z</time>
      </trkpt>
      <trkpt lat="43.61269" lon="6.94549">
        <ele>74.4000244</ele>
        <time>2017-07-11T17:17:07Z</time>
      </trkpt>
      <trkpt lat="43.61275" lon="6.94552">
        <ele>74.4000244</ele>
        <time>2017-07-11T17:17:09Z</time>
      </trkpt>
      <trkpt lat="43.61291" lon="6.94553">
        <ele>74.4000244</ele>
        <time>2017-07-11T17:17:14Z</time>
      </trkpt>
      <trkpt lat="43.61297" lon="6.94553">
        <ele>74.7999878</ele>
        <time>2017-07-11T17:17:19Z</time>
      </trkpt>
      <trkpt lat="43.61298" lon="6.94553">
        <ele>74.7999878</ele>
        <time>2017-07-11T17:17:26Z</time>
      </trkpt>
      <trkpt lat="43.61298" lon="6.94553">
        <ele>74.7999878</ele>
        <time>2017-07-11T17:17:38Z</time>
      </trkpt>
      <trkpt lat="43.61298" lon="6.94553">
        <ele>74.7999878</ele>
        <time>2017-07-11T17:17:51Z</time>
      </trkpt>
      <trkpt lat="43.61298" lon="6.94553">
        <ele>74.7999878</ele>
        <time>2017-07-11T17:18:03Z</time>
      </trkpt>
      <trkpt lat="43.61301" lon="6.94555">
        <ele>75.2000122</ele>
        <time>2017-07-11T17:18:10Z</time>
      </trkpt>
      <trkpt lat="43.61305" lon="6.94558">
        <ele>75.5999756</ele>
        <time>2017-07-11T17:18:12Z</time>
      </trkpt>
      <trkpt lat="43.61313" lon="6.9456">
        <ele>76.5999756</ele>
        <time>2017-07-11T17:18:16Z</time>
      </trkpt>
      <trkpt lat="43.61315" lon="6.9456">
        <ele>77</ele>
        <time>2017-07-11T17:18:17Z</time>
      </trkpt>
      <trkpt lat="43.6132" lon="6.94561">
        <ele>77.7999878</ele>
        <time>2017-07-11T17:18:19Z</time>
      </trkpt>
      <trkpt lat="43.61328" lon="6.94566">
        <ele>78.7999878</ele>
        <time>2017-07-11T17:18:23Z</time>
      </trkpt>
      <trkpt lat="43.61329" lon="6.94567">
        <ele>79</ele>
        <time>2017-07-11T17:18:24Z</time>
      </trkpt>
      <trkpt lat="43.61341" lon="6.94575">
        <ele>80</ele>
        <time>2017-07-11T17:18:30Z</time>
      </trkpt>
      <trkpt lat="43.61343" lon="6.94577">
        <ele>80.2000122</ele>
        <time>2017-07-11T17:18:31Z</time>
      </trkpt>
      <trkpt lat="43.61361" lon="6.94588">
        <ele>81</ele>
        <time>2017-07-11T17:18:39Z</time>
      </trkpt>
      <trkpt lat="43.61369" lon="6.94597">
        <ele>81</ele>
        <time>2017-07-11T17:18:45Z</time>
      </trkpt>
      <trkpt lat="43.6137" lon="6.94598">
        <ele>81.2000122</ele>
        <time>2017-07-11T17:18:46Z</time>
      </trkpt>
      <trkpt lat="43.61375" lon="6.94603">
        <ele>82.2000122</ele>
        <time>2017-07-11T17:18:50Z</time>
      </trkpt>
      <trkpt lat="43.61376" lon="6.94605">
        <ele>82.5999756</ele>
        <time>2017-07-11T17:18:51Z</time>
      </trkpt>
      <trkpt lat="43.61379" lon="6.94608">
        <ele>82.5999756</ele>
        <time>2017-07-11T17:18:53Z</time>
      </trkpt>
      <trkpt lat="43.61382" lon="6.94614">
        <ele>83.2000122</ele>
        <time>2017-07-11T17:18:56Z</time>
      </trkpt>
      <trkpt lat="43.61383" lon="6.94617">
        <ele>83.5999756</ele>
        <time>2017-07-11T17:18:57Z</time>
      </trkpt>
      <trkpt lat="43.61386" lon="6.94619">
        <ele>84</ele>
        <time>2017-07-11T17:18:59Z</time>
      </trkpt>
      <trkpt lat="43.61388" lon="6.94621">
        <ele>84.2000122</ele>
        <time>2017-07-11T17:19:00Z</time>
      </trkpt>
      <trkpt lat="43.61394" lon="6.94634">
        <ele>84.4000244</ele>
        <time>2017-07-11T17:19:05Z</time>
      </trkpt>
      <trkpt lat="43.61396" lon="6.94642">
        <ele>84.5999756</ele>
        <time>2017-07-11T17:19:08Z</time>
      </trkpt>
      <trkpt lat="43.61397" lon="6.94648">
        <ele>84.7999878</ele>
        <time>2017-07-11T17:19:10Z</time>
      </trkpt>
      <trkpt lat="43.61402" lon="6.94665">
        <ele>84.5999756</ele>
        <time>2017-07-11T17:19:15Z</time>
      </trkpt>
      <trkpt lat="43.614" lon="6.9468">
        <ele>84.7999878</ele>
        <time>2017-07-11T17:19:20Z</time>
      </trkpt>
      <trkpt lat="43.61399" lon="6.947">
        <ele>84.5999756</ele>
        <time>2017-07-11T17:19:25Z</time>
      </trkpt>
      <trkpt lat="43.61395" lon="6.94719">
        <ele>84.5999756</ele>
        <time>2017-07-11T17:19:29Z</time>
      </trkpt>
      <trkpt lat="43.61392" lon="6.94726">
        <ele>84.5999756</ele>
        <time>2017-07-11T17:19:30Z</time>
      </trkpt>
      <trkpt lat="43.61385" lon="6.9474">
        <ele>84.5999756</ele>
        <time>2017-07-11T17:19:33Z</time>
      </trkpt>
      <trkpt lat="43.61383" lon="6.94744">
        <ele>84.5999756</ele>
        <time>2017-07-11T17:19:34Z</time>
      </trkpt>
      <trkpt lat="43.61381" lon="6.94746">
        <ele>84.2000122</ele>
        <time>2017-07-11T17:19:37Z</time>
      </trkpt>
      <trkpt lat="43.61381" lon="6.94747">
        <ele>84.4000244</ele>
        <time>2017-07-11T17:19:46Z</time>
      </trkpt>
      <trkpt lat="43.61381" lon="6.94747">
        <ele>84.4000244</ele>
        <time>2017-07-11T17:19:57Z</time>
      </trkpt>
      <trkpt lat="43.61381" lon="6.94747">
        <ele>84.4000244</ele>
        <time>2017-07-11T17:20:13Z</time>
      </trkpt>
      <trkpt lat="43.61381" lon="6.94746">
        <ele>84.4000244</ele>
        <time>2017-07-11T17:20:34Z</time>
      </trkpt>
      <trkpt lat="43.61379" lon="6.94751">
        <ele>84.4000244</ele>
        <time>2017-07-11T17:20:42Z</time>
      </trkpt>
      <trkpt lat="43.61377" lon="6.94753">
        <ele>84.4000244</ele>
        <time>2017-07-11T17:20:43Z</time>
      </trkpt>
      <trkpt lat="43.61371" lon="6.94769">
        <ele>86.4000244</ele>
        <time>2017-07-11T17:20:48Z</time>
      </trkpt>
      <trkpt lat="43.6137" lon="6.94775">
        <ele>87</ele>
        <time>2017-07-11T17:20:50Z</time>
      </trkpt>
      <trkpt lat="43.61369" lon="6.94782">
        <ele>87.4000244</ele>
        <time>2017-07-11T17:20:52Z</time>
      </trkpt>
      <trkpt lat="43.61364" lon="6.94793">
        <ele>88.2000122</ele>
        <time>2017-07-11T17:20:56Z</time>
      </trkpt>
      <trkpt lat="43.61362" lon="6.94799">
        <ele>88.5999756</ele>
        <time>2017-07-11T17:20:58Z</time>
      </trkpt>
      <trkpt lat="43.61363" lon="6.9481">
        <ele>89</ele>
        <time>2017-07-11T17:21:02Z</time>
      </trkpt>
      <trkpt lat="43.61368" lon="6.94828">
        <ele>88.5999756</ele>
        <time>2017-07-11T17:21:07Z</time>
      </trkpt>
      <trkpt lat="43.61378" lon="6.94851">
        <ele>87.2000122</ele>
        <time>2017-07-11T17:21:13Z</time>
      </trkpt>
      <trkpt lat="43.61379" lon="6.94854">
        <ele>86.7999878</ele>
        <time>2017-07-11T17:21:14Z</time>
      </trkpt>
      <trkpt lat="43.61379" lon="6.94861">
        <ele>86</ele>
        <time>2017-07-11T17:21:16Z</time>
      </trkpt>
      <trkpt lat="43.61379" lon="6.94874">
        <ele>85.5999756</ele>
        <time>2017-07-11T17:21:21Z</time>
      </trkpt>
      <trkpt lat="43.61379" lon="6.94881">
        <ele>85.4000244</ele>
        <time>2017-07-11T17:21:24Z</time>
      </trkpt>
      <trkpt lat="43.61382" lon="6.94887">
        <ele>85.2000122</ele>
        <time>2017-07-11T17:21:27Z</time>
      </trkpt>
      <trkpt lat="43.61386" lon="6.94894">
        <ele>85.5999756</ele>
        <time>2017-07-11T17:21:30Z</time>
      </trkpt>
      <trkpt lat="43.61394" lon="6.94903">
        <ele>86.5999756</ele>
        <time>2017-07-11T17:21:34Z</time>
      </trkpt>
      <trkpt lat="43.61397" lon="6.94904">
        <ele>87.2000122</ele>
        <time>2017-07-11T17:21:35Z</time>
      </trkpt>
      <trkpt lat="43.61409" lon="6.94907">
        <ele>88.2000122</ele>
        <time>2017-07-11T17:21:40Z</time>
      </trkpt>
      <trkpt lat="43.61428" lon="6.94916">
        <ele>89.4000244</ele>
        <time>2017-07-11T17:21:46Z</time>
      </trkpt>
      <trkpt lat="43.61435" lon="6.94918">
        <ele>89.7999878</ele>
        <time>2017-07-11T17:21:48Z</time>
      </trkpt>
      <trkpt lat="43.61444" lon="6.9492">
        <ele>90.5999756</ele>
        <time>2017-07-11T17:21:51Z</time>
      </trkpt>
      <trkpt lat="43.61451" lon="6.94926">
        <ele>91.4000244</ele>
        <time>2017-07-11T17:21:54Z</time>
      </trkpt>
      <trkpt lat="43.61453" lon="6.94928">
        <ele>91.7999878</ele>
        <time>2017-07-11T17:21:55Z</time>
      </trkpt>
      <trkpt lat="43.61456" lon="6.94933">
        <ele>92.2000122</ele>
        <time>2017-07-11T17:21:57Z</time>
      </trkpt>
      <trkpt lat="43.61464" lon="6.94937">
        <ele>93</ele>
        <time>2017-07-11T17:22:00Z</time>
      </trkpt>
      <trkpt lat="43.61477" lon="6.94946">
        <ele>94.2000122</ele>
        <time>2017-07-11T17:22:05Z</time>
      </trkpt>
      <trkpt lat="43.6148" lon="6.94949">
        <ele>94.2000122</ele>
        <time>2017-07-11T17:22:06Z</time>
      </trkpt>
      <trkpt lat="43.61487" lon="6.94959">
        <ele>93</ele>
        <time>2017-07-11T17:22:08Z</time>
      </trkpt>
      <trkpt lat="43.61494" lon="6.94975">
        <ele>92</ele>
        <time>2017-07-11T17:22:11Z</time>
      </trkpt>
      <trkpt lat="43.61502" lon="6.95001">
        <ele>91.7999878</ele>
        <time>2017-07-11T17:22:17Z</time>
      </trkpt>
      <trkpt lat="43.61502" lon="6.95014">
        <ele>93.2000122</ele>
        <time>2017-07-11T17:22:22Z</time>
      </trkpt>
      <trkpt lat="43.61504" lon="6.95032">
        <ele>93.7999878</ele>
        <time>2017-07-11T17:22:27Z</time>
      </trkpt>
      <trkpt lat="43.6151" lon="6.95049">
        <ele>93.4000244</ele>
        <time>2017-07-11T17:22:32Z</time>
      </trkpt>
      <trkpt lat="43.61515" lon="6.95063">
        <ele>92.5999756</ele>
        <time>2017-07-11T17:22:37Z</time>
      </trkpt>
      <trkpt lat="43.61516" lon="6.95072">
        <ele>92</ele>
        <time>2017-07-11T17:22:40Z</time>
      </trkpt>
      <trkpt lat="43.61517" lon="6.95076">
        <ele>91.7999878</ele>
        <time>2017-07-11T17:22:41Z</time>
      </trkpt>
      <trkpt lat="43.61521" lon="6.95095">
        <ele>90.5999756</ele>
        <time>2017-07-11T17:22:46Z</time>
      </trkpt>
      <trkpt lat="43.61524" lon="6.95101">
        <ele>90.2000122</ele>
        <time>2017-07-11T17:22:48Z</time>
      </trkpt>
      <trkpt lat="43.61531" lon="6.9511">
        <ele>89.7999878</ele>
        <time>2017-07-11T17:22:53Z</time>
      </trkpt>
      <trkpt lat="43.61532" lon="6.95117">
        <ele>89.5999756</ele>
        <time>2017-07-11T17:22:56Z</time>
      </trkpt>
      <trkpt lat="43.61531" lon="6.95119">
        <ele>89.4000244</ele>
        <time>2017-07-11T17:22:57Z</time>
      </trkpt>
      <trkpt lat="43.61531" lon="6.95121">
        <ele>89.2000122</ele>
        <time>2017-07-11T17:22:58Z</time>
      </trkpt>
      <trkpt lat="43.61533" lon="6.95135">
        <ele>90.2000122</ele>
        <time>2017-07-11T17:23:04Z</time>
      </trkpt>
      <trkpt lat="43.61536" lon="6.95142">
        <ele>90.5999756</ele>
        <time>2017-07-11T17:23:07Z</time>
      </trkpt>
      <trkpt lat="43.6154" lon="6.9515">
        <ele>90.5999756</ele>
        <time>2017-07-11T17:23:10Z</time>
      </trkpt>
      <trkpt lat="43.61549" lon="6.95166">
        <ele>91</ele>
        <time>2017-07-11T17:23:17Z</time>
      </trkpt>
      <trkpt lat="43.61554" lon="6.95172">
        <ele>91.5999756</ele>
        <time>2017-07-11T17:23:21Z</time>
      </trkpt>
      <trkpt lat="43.61557" lon="6.95175">
        <ele>91.7999878</ele>
        <time>2017-07-11T17:23:23Z</time>
      </trkpt>
      <trkpt lat="43.61562" lon="6.95178">
        <ele>92.2000122</ele>
        <time>2017-07-11T17:23:28Z</time>
      </trkpt>
      <trkpt lat="43.61568" lon="6.95184">
        <ele>92.7999878</ele>
        <time>2017-07-11T17:23:34Z</time>
      </trkpt>
      <trkpt lat="43.6157" lon="6.95189">
        <ele>93.2000122</ele>
        <time>2017-07-11T17:23:36Z</time>
      </trkpt>
      <trkpt lat="43.61572" lon="6.95194">
        <ele>93.7999878</ele>
        <time>2017-07-11T17:23:38Z</time>
      </trkpt>
      <trkpt lat="43.61578" lon="6.95205">
        <ele>95</ele>
        <time>2017-07-11T17:23:43Z</time>
      </trkpt>
      <trkpt lat="43.61581" lon="6.95209">
        <ele>96</ele>
        <time>2017-07-11T17:23:46Z</time>
      </trkpt>
      <trkpt lat="43.61584" lon="6.95213">
        <ele>97.5999756</ele>
        <time>2017-07-11T17:23:49Z</time>
      </trkpt>
      <trkpt lat="43.61587" lon="6.95216">
        <ele>98.2000122</ele>
        <time>2017-07-11T17:23:51Z</time>
      </trkpt>
      <trkpt lat="43.6159" lon="6.95219">
        <ele>98.5999756</ele>
        <time>2017-07-11T17:23:53Z</time>
      </trkpt>
      <trkpt lat="43.61598" lon="6.95229">
        <ele>99.7999878</ele>
        <time>2017-07-11T17:23:58Z</time>
      </trkpt>
      <trkpt lat="43.616" lon="6.95233">
        <ele>100.4000244</ele>
        <time>2017-07-11T17:24:00Z</time>
      </trkpt>
      <trkpt lat="43.6161" lon="6.95251">
        <ele>100.4000244</ele>
        <time>2017-07-11T17:24:07Z</time>
      </trkpt>
      <trkpt lat="43.61611" lon="6.95256">
        <ele>100.7999878</ele>
        <time>2017-07-11T17:24:09Z</time>
      </trkpt>
      <trkpt lat="43.61614" lon="6.95264">
        <ele>102</ele>
        <time>2017-07-11T17:24:14Z</time>
      </trkpt>
      <trkpt lat="43.61615" lon="6.95268">
        <ele>102.5999756</ele>
        <time>2017-07-11T17:24:21Z</time>
      </trkpt>
      <trkpt lat="43.61616" lon="6.9527">
        <ele>103.2000122</ele>
        <time>2017-07-11T17:24:23Z</time>
      </trkpt>
      <trkpt lat="43.61616" lon="6.9527">
        <ele>103.2000122</ele>
        <time>2017-07-11T17:24:28Z</time>
      </trkpt>
      <trkpt lat="43.61616" lon="6.9527">
        <ele>103.2000122</ele>
        <time>2017-07-11T17:24:38Z</time>
      </trkpt>
      <trkpt lat="43.61616" lon="6.9527">
        <ele>103.2000122</ele>
        <time>2017-07-11T17:24:50Z</time>
      </trkpt>
      <trkpt lat="43.61616" lon="6.95272">
        <ele>103.2000122</ele>
        <time>2017-07-11T17:24:57Z</time>
      </trkpt>
      <trkpt lat="43.61615" lon="6.95281">
        <ele>103.2000122</ele>
        <time>2017-07-11T17:25:06Z</time>
      </trkpt>
      <trkpt lat="43.61613" lon="6.95288">
        <ele>104.2000122</ele>
        <time>2017-07-11T17:25:13Z</time>
      </trkpt>
      <trkpt lat="43.61613" lon="6.95288">
        <ele>104.2000122</ele>
        <time>2017-07-11T17:25:14Z</time>
      </trkpt>
      <trkpt lat="43.61613" lon="6.95288">
        <ele>104.2000122</ele>
        <time>2017-07-11T17:25:25Z</time>
      </trkpt>
      <trkpt lat="43.61611" lon="6.95291">
        <ele>105.4000244</ele>
        <time>2017-07-11T17:25:31Z</time>
      </trkpt>
      <trkpt lat="43.61608" lon="6.95294">
        <ele>107.4000244</ele>
        <time>2017-07-11T17:25:33Z</time>
      </trkpt>
      <trkpt lat="43.61606" lon="6.95296">
        <ele>108.4000244</ele>
        <time>2017-07-11T17:25:35Z</time>
      </trkpt>
      <trkpt lat="43.61605" lon="6.95298">
        <ele>109.5999756</ele>
        <time>2017-07-11T17:25:37Z</time>
      </trkpt>
      <trkpt lat="43.61604" lon="6.953">
        <ele>111</ele>
        <time>2017-07-11T17:25:39Z</time>
      </trkpt>
      <trkpt lat="43.61603" lon="6.95302">
        <ele>111.7999878</ele>
        <time>2017-07-11T17:25:41Z</time>
      </trkpt>
      <trkpt lat="43.61603" lon="6.95303">
        <ele>112.2000122</ele>
        <time>2017-07-11T17:25:42Z</time>
      </trkpt>
      <trkpt lat="43.61602" lon="6.95307">
        <ele>113.4000244</ele>
        <time>2017-07-11T17:25:45Z</time>
      </trkpt>
      <trkpt lat="43.616" lon="6.95309">
        <ele>114</ele>
        <time>2017-07-11T17:25:49Z</time>
      </trkpt>
      <trkpt lat="43.61599" lon="6.95309">
        <ele>114</ele>
        <time>2017-07-11T17:25:57Z</time>
      </trkpt>
      <trkpt lat="43.61599" lon="6.95309">
        <ele>114</ele>
        <time>2017-07-11T17:26:10Z</time>
      </trkpt>
      <trkpt lat="43.61599" lon="6.95309">
        <ele>114</ele>
        <time>2017-07-11T17:26:23Z</time>
      </trkpt>
      <trkpt lat="43.61598" lon="6.95309">
        <ele>114</ele>
        <time>2017-07-11T17:26:36Z</time>
      </trkpt>
      <trkpt lat="43.61598" lon="6.95309">
        <ele>114</ele>
        <time>2017-07-11T17:26:50Z</time>
      </trkpt>
      <trkpt lat="43.61597" lon="6.95308">
        <ele>113.7999878</ele>
        <time>2017-07-11T17:27:06Z</time>
      </trkpt>
      <trkpt lat="43.61595" lon="6.95308">
        <ele>113.5999756</ele>
        <time>2017-07-11T17:27:16Z</time>
      </trkpt>
      <trkpt lat="43.61595" lon="6.95308">
        <ele>113.5999756</ele>
        <time>2017-07-11T17:27:30Z</time>
      </trkpt>
      <trkpt lat="43.61595" lon="6.95308">
        <ele>113.5999756</ele>
        <time>2017-07-11T17:27:39Z</time>
      </trkpt>
      <trkpt lat="43.61595" lon="6.95308">
        <ele>113.4000244</ele>
        <time>2017-07-11T17:27:58Z</time>
      </trkpt>
      <trkpt lat="43.61595" lon="6.95308">
        <ele>113.4000244</ele>
        <time>2017-07-11T17:28:10Z</time>
      </trkpt>
      <trkpt lat="43.61595" lon="6.95308">
        <ele>113.4000244</ele>
        <time>2017-07-11T17:28:18Z</time>
      </trkpt>
      <trkpt lat="43.61595" lon="6.95308">
        <ele>113.4000244</ele>
        <time>2017-07-11T17:28:27Z</time>
      </trkpt>
      <trkpt lat="43.61595" lon="6.95308">
        <ele>113.4000244</ele>
        <time>2017-07-11T17:28:45Z</time>
      </trkpt>
      <trkpt lat="43.61595" lon="6.95308">
        <ele>113.4000244</ele>
        <time>2017-07-11T17:29:04Z</time>
      </trkpt>
      <trkpt lat="43.61593" lon="6.95306">
        <ele>113</ele>
        <time>2017-07-11T17:29:20Z</time>
      </trkpt>
      <trkpt lat="43.61592" lon="6.95305">
        <ele>112.7999878</ele>
        <time>2017-07-11T17:29:21Z</time>
      </trkpt>
      <trkpt lat="43.6159" lon="6.95303">
        <ele>112</ele>
        <time>2017-07-11T17:29:23Z</time>
      </trkpt>
      <trkpt lat="43.61586" lon="6.95295">
        <ele>112</ele>
        <time>2017-07-11T17:29:27Z</time>
      </trkpt>
      <trkpt lat="43.61577" lon="6.95286">
        <ele>112.4000244</ele>
        <time>2017-07-11T17:29:32Z</time>
      </trkpt>
      <trkpt lat="43.61566" lon="6.95275">
        <ele>111.2000122</ele>
        <time>2017-07-11T17:29:39Z</time>
      </trkpt>
      <trkpt lat="43.61564" lon="6.95273">
        <ele>111</ele>
        <time>2017-07-11T17:29:40Z</time>
      </trkpt>
      <trkpt lat="43.61555" lon="6.95261">
        <ele>110.5999756</ele>
        <time>2017-07-11T17:29:46Z</time>
      </trkpt>
      <trkpt lat="43.61543" lon="6.95253">
        <ele>111.7999878</ele>
        <time>2017-07-11T17:29:52Z</time>
      </trkpt>
      <trkpt lat="43.61541" lon="6.95252">
        <ele>112.2000122</ele>
        <time>2017-07-11T17:29:53Z</time>
      </trkpt>
      <trkpt lat="43.61533" lon="6.95247">
        <ele>113.2000122</ele>
        <time>2017-07-11T17:29:57Z</time>
      </trkpt>
      <trkpt lat="43.6153" lon="6.95245">
        <ele>114</ele>
        <time>2017-07-11T17:29:59Z</time>
      </trkpt>
      <trkpt lat="43.61528" lon="6.95243">
        <ele>114.4000244</ele>
        <time>2017-07-11T17:30:00Z</time>
      </trkpt>
      <trkpt lat="43.61524" lon="6.95241">
        <ele>115.7999878</ele>
        <time>2017-07-11T17:30:02Z</time>
      </trkpt>
      <trkpt lat="43.61517" lon="6.95237">
        <ele>116.7999878</ele>
        <time>2017-07-11T17:30:05Z</time>
      </trkpt>
      <trkpt lat="43.61513" lon="6.95237">
        <ele>118.2000122</ele>
        <time>2017-07-11T17:30:07Z</time>
      </trkpt>
      <trkpt lat="43.61504" lon="6.95235">
        <ele>119.2000122</ele>
        <time>2017-07-11T17:30:11Z</time>
      </trkpt>
      <trkpt lat="43.61502" lon="6.95233">
        <ele>119.5999756</ele>
        <time>2017-07-11T17:30:12Z</time>
      </trkpt>
      <trkpt lat="43.61487" lon="6.95233">
        <ele>119.5999756</ele>
        <time>2017-07-11T17:30:17Z</time>
      </trkpt>
      <trkpt lat="43.61479" lon="6.95238">
        <ele>120.4000244</ele>
        <time>2017-07-11T17:30:21Z</time>
      </trkpt>
      <trkpt lat="43.61473" lon="6.95244">
        <ele>121.2000122</ele>
        <time>2017-07-11T17:30:24Z</time>
      </trkpt>
      <trkpt lat="43.61471" lon="6.95246">
        <ele>121.7999878</ele>
        <time>2017-07-11T17:30:25Z</time>
      </trkpt>
      <trkpt lat="43.61466" lon="6.95252">
        <ele>122.7999878</ele>
        <time>2017-07-11T17:30:28Z</time>
      </trkpt>
      <trkpt lat="43.61461" lon="6.9526">
        <ele>123.4000244</ele>
        <time>2017-07-11T17:30:31Z</time>
      </trkpt>
      <trkpt lat="43.61453" lon="6.95272">
        <ele>124</ele>
        <time>2017-07-11T17:30:36Z</time>
      </trkpt>
      <trkpt lat="43.61452" lon="6.95274">
        <ele>124.2000122</ele>
        <time>2017-07-11T17:30:37Z</time>
      </trkpt>
      <trkpt lat="43.61449" lon="6.9528">
        <ele>125.2000122</ele>
        <time>2017-07-11T17:30:39Z</time>
      </trkpt>
      <trkpt lat="43.61446" lon="6.95285">
        <ele>126.2000122</ele>
        <time>2017-07-11T17:30:41Z</time>
      </trkpt>
      <trkpt lat="43.61442" lon="6.95296">
        <ele>127.2000122</ele>
        <time>2017-07-11T17:30:45Z</time>
      </trkpt>
      <trkpt lat="43.61438" lon="6.95303">
        <ele>128.7999878</ele>
        <time>2017-07-11T17:30:48Z</time>
      </trkpt>
      <trkpt lat="43.61434" lon="6.95309">
        <ele>130.2000122</ele>
        <time>2017-07-11T17:30:50Z</time>
      </trkpt>
      <trkpt lat="43.61429" lon="6.95315">
        <ele>131.4000244</ele>
        <time>2017-07-11T17:30:52Z</time>
      </trkpt>
      <trkpt lat="43.61421" lon="6.95322">
        <ele>132.4000244</ele>
        <time>2017-07-11T17:30:55Z</time>
      </trkpt>
      <trkpt lat="43.61415" lon="6.95322">
        <ele>133.4000244</ele>
        <time>2017-07-11T17:30:58Z</time>
      </trkpt>
      <trkpt lat="43.61414" lon="6.9532">
        <ele>133.7999878</ele>
        <time>2017-07-11T17:30:59Z</time>
      </trkpt>
      <trkpt lat="43.61413" lon="6.95314">
        <ele>134.7999878</ele>
        <time>2017-07-11T17:31:02Z</time>
      </trkpt>
      <trkpt lat="43.61413" lon="6.95312">
        <ele>135</ele>
        <time>2017-07-11T17:31:03Z</time>
      </trkpt>
      <trkpt lat="43.61413" lon="6.9531">
        <ele>135.4000244</ele>
        <time>2017-07-11T17:31:04Z</time>
      </trkpt>
      <trkpt lat="43.61414" lon="6.95304">
        <ele>136.2000122</ele>
        <time>2017-07-11T17:31:07Z</time>
      </trkpt>
      <trkpt lat="43.61416" lon="6.953">
        <ele>136.5999756</ele>
        <time>2017-07-11T17:31:09Z</time>
      </trkpt>
      <trkpt lat="43.61417" lon="6.95294">
        <ele>137.4000244</ele>
        <time>2017-07-11T17:31:12Z</time>
      </trkpt>
      <trkpt lat="43.61416" lon="6.95286">
        <ele>138</ele>
        <time>2017-07-11T17:31:16Z</time>
      </trkpt>
      <trkpt lat="43.61415" lon="6.95267">
        <ele>138.2000122</ele>
        <time>2017-07-11T17:31:22Z</time>
      </trkpt>
      <trkpt lat="43.61415" lon="6.95264">
        <ele>138.2000122</ele>
        <time>2017-07-11T17:31:23Z</time>
      </trkpt>
      <trkpt lat="43.61415" lon="6.95261">
        <ele>138.4000244</ele>
        <time>2017-07-11T17:31:24Z</time>
      </trkpt>
      <trkpt lat="43.61414" lon="6.95249">
        <ele>139.5999756</ele>
        <time>2017-07-11T17:31:28Z</time>
      </trkpt>
      <trkpt lat="43.61413" lon="6.95242">
        <ele>140.4000244</ele>
        <time>2017-07-11T17:31:30Z</time>
      </trkpt>
      <trkpt lat="43.61413" lon="6.95239">
        <ele>141</ele>
        <time>2017-07-11T17:31:31Z</time>
      </trkpt>
      <trkpt lat="43.61412" lon="6.95233">
        <ele>142.5999756</ele>
        <time>2017-07-11T17:31:33Z</time>
      </trkpt>
      <trkpt lat="43.61411" lon="6.95224">
        <ele>144</ele>
        <time>2017-07-11T17:31:36Z</time>
      </trkpt>
      <trkpt lat="43.6141" lon="6.95218">
        <ele>144</ele>
        <time>2017-07-11T17:31:38Z</time>
      </trkpt>
      <trkpt lat="43.61408" lon="6.95213">
        <ele>143</ele>
        <time>2017-07-11T17:31:40Z</time>
      </trkpt>
      <trkpt lat="43.61406" lon="6.95195">
        <ele>143.2000122</ele>
        <time>2017-07-11T17:31:46Z</time>
      </trkpt>
      <trkpt lat="43.61405" lon="6.95192">
        <ele>143.4000244</ele>
        <time>2017-07-11T17:31:47Z</time>
      </trkpt>
      <trkpt lat="43.61404" lon="6.95187">
        <ele>144</ele>
        <time>2017-07-11T17:31:49Z</time>
      </trkpt>
      <trkpt lat="43.61404" lon="6.95182">
        <ele>144.2000122</ele>
        <time>2017-07-11T17:31:51Z</time>
      </trkpt>
      <trkpt lat="43.61403" lon="6.95178">
        <ele>144.5999756</ele>
        <time>2017-07-11T17:31:53Z</time>
      </trkpt>
      <trkpt lat="43.61399" lon="6.95162">
        <ele>143.5999756</ele>
        <time>2017-07-11T17:31:59Z</time>
      </trkpt>
      <trkpt lat="43.61397" lon="6.95156">
        <ele>142.5999756</ele>
        <time>2017-07-11T17:32:01Z</time>
      </trkpt>
      <trkpt lat="43.61394" lon="6.95149">
        <ele>141.2000122</ele>
        <time>2017-07-11T17:32:03Z</time>
      </trkpt>
      <trkpt lat="43.61393" lon="6.95143">
        <ele>140</ele>
        <time>2017-07-11T17:32:05Z</time>
      </trkpt>
      <trkpt lat="43.6139" lon="6.95136">
        <ele>139</ele>
        <time>2017-07-11T17:32:07Z</time>
      </trkpt>
      <trkpt lat="43.61388" lon="6.9513">
        <ele>137.7999878</ele>
        <time>2017-07-11T17:32:09Z</time>
      </trkpt>
      <trkpt lat="43.61382" lon="6.95122">
        <ele>136.4000244</ele>
        <time>2017-07-11T17:32:13Z</time>
      </trkpt>
      <trkpt lat="43.61381" lon="6.95121">
        <ele>136.4000244</ele>
        <time>2017-07-11T17:32:14Z</time>
      </trkpt>
      <trkpt lat="43.61373" lon="6.95108">
        <ele>135.4000244</ele>
        <time>2017-07-11T17:32:20Z</time>
      </trkpt>
      <trkpt lat="43.61365" lon="6.95096">
        <ele>134.4000244</ele>
        <time>2017-07-11T17:32:26Z</time>
      </trkpt>
      <trkpt lat="43.61363" lon="6.95093">
        <ele>134.2000122</ele>
        <time>2017-07-11T17:32:28Z</time>
      </trkpt>
      <trkpt lat="43.61354" lon="6.95081">
        <ele>134.2000122</ele>
        <time>2017-07-11T17:32:35Z</time>
      </trkpt>
      <trkpt lat="43.61345" lon="6.95071">
        <ele>135</ele>
        <time>2017-07-11T17:32:41Z</time>
      </trkpt>
      <trkpt lat="43.61336" lon="6.95062">
        <ele>135.4000244</ele>
        <time>2017-07-11T17:32:47Z</time>
      </trkpt>
      <trkpt lat="43.61334" lon="6.95059">
        <ele>135.7999878</ele>
        <time>2017-07-11T17:32:48Z</time>
      </trkpt>
      <trkpt lat="43.6133" lon="6.95055">
        <ele>137.4000244</ele>
        <time>2017-07-11T17:32:51Z</time>
      </trkpt>
      <trkpt lat="43.61326" lon="6.95053">
        <ele>138.5999756</ele>
        <time>2017-07-11T17:32:53Z</time>
      </trkpt>
      <trkpt lat="43.6132" lon="6.95048">
        <ele>139.7999878</ele>
        <time>2017-07-11T17:32:56Z</time>
      </trkpt>
      <trkpt lat="43.61314" lon="6.95043">
        <ele>141</ele>
        <time>2017-07-11T17:32:59Z</time>
      </trkpt>
      <trkpt lat="43.6131" lon="6.95041">
        <ele>142.2000122</ele>
        <time>2017-07-11T17:33:01Z</time>
      </trkpt>
      <trkpt lat="43.61308" lon="6.95039">
        <ele>142.2000122</ele>
        <time>2017-07-11T17:33:02Z</time>
      </trkpt>
      <trkpt lat="43.61305" lon="6.95037">
        <ele>143.2000122</ele>
        <time>2017-07-11T17:33:04Z</time>
      </trkpt>
      <trkpt lat="43.61292" lon="6.95025">
        <ele>143.4000244</ele>
        <time>2017-07-11T17:33:10Z</time>
      </trkpt>
      <trkpt lat="43.61284" lon="6.95018">
        <ele>144.2000122</ele>
        <time>2017-07-11T17:33:14Z</time>
      </trkpt>
      <trkpt lat="43.61278" lon="6.95014">
        <ele>145.2000122</ele>
        <time>2017-07-11T17:33:17Z</time>
      </trkpt>
      <trkpt lat="43.61276" lon="6.95012">
        <ele>145.4000244</ele>
        <time>2017-07-11T17:33:18Z</time>
      </trkpt>
      <trkpt lat="43.61261" lon="6.95004">
        <ele>146.4000244</ele>
        <time>2017-07-11T17:33:25Z</time>
      </trkpt>
      <trkpt lat="43.61247" lon="6.94995">
        <ele>147.4000244</ele>
        <time>2017-07-11T17:33:33Z</time>
      </trkpt>
      <trkpt lat="43.61245" lon="6.94994">
        <ele>147.5999756</ele>
        <time>2017-07-11T17:33:34Z</time>
      </trkpt>
      <trkpt lat="43.61237" lon="6.94989">
        <ele>148.7999878</ele>
        <time>2017-07-11T17:33:39Z</time>
      </trkpt>
      <trkpt lat="43.61233" lon="6.94988">
        <ele>149.2000122</ele>
        <time>2017-07-11T17:33:41Z</time>
      </trkpt>
      <trkpt lat="43.6123" lon="6.94987">
        <ele>150</ele>
        <time>2017-07-11T17:33:43Z</time>
      </trkpt>
      <trkpt lat="43.61224" lon="6.94986">
        <ele>151</ele>
        <time>2017-07-11T17:33:46Z</time>
      </trkpt>
      <trkpt lat="43.61219" lon="6.94985">
        <ele>151.7999878</ele>
        <time>2017-07-11T17:33:48Z</time>
      </trkpt>
      <trkpt lat="43.61217" lon="6.94985">
        <ele>152</ele>
        <time>2017-07-11T17:33:49Z</time>
      </trkpt>
      <trkpt lat="43.61205" lon="6.9499">
        <ele>152.5999756</ele>
        <time>2017-07-11T17:33:55Z</time>
      </trkpt>
      <trkpt lat="43.61195" lon="6.94995">
        <ele>153</ele>
        <time>2017-07-11T17:34:00Z</time>
      </trkpt>
      <trkpt lat="43.61189" lon="6.95001">
        <ele>153.4000244</ele>
        <time>2017-07-11T17:34:04Z</time>
      </trkpt>
      <trkpt lat="43.61184" lon="6.95006">
        <ele>154.2000122</ele>
        <time>2017-07-11T17:34:07Z</time>
      </trkpt>
      <trkpt lat="43.61181" lon="6.95013">
        <ele>155.4000244</ele>
        <time>2017-07-11T17:34:10Z</time>
      </trkpt>
      <trkpt lat="43.6118" lon="6.95015">
        <ele>155.5999756</ele>
        <time>2017-07-11T17:34:11Z</time>
      </trkpt>
      <trkpt lat="43.61175" lon="6.95027">
        <ele>156.7999878</ele>
        <time>2017-07-11T17:34:16Z</time>
      </trkpt>
      <trkpt lat="43.61175" lon="6.9503">
        <ele>157.2000122</ele>
        <time>2017-07-11T17:34:17Z</time>
      </trkpt>
      <trkpt lat="43.61173" lon="6.95041">
        <ele>157.7999878</ele>
        <time>2017-07-11T17:34:21Z</time>
      </trkpt>
      <trkpt lat="43.61173" lon="6.95051">
        <ele>158.7999878</ele>
        <time>2017-07-11T17:34:25Z</time>
      </trkpt>
      <trkpt lat="43.61173" lon="6.95054">
        <ele>159</ele>
        <time>2017-07-11T17:34:26Z</time>
      </trkpt>
      <trkpt lat="43.61175" lon="6.95069">
        <ele>159.7999878</ele>
        <time>2017-07-11T17:34:31Z</time>
      </trkpt>
      <trkpt lat="43.61175" lon="6.95072">
        <ele>160.2000122</ele>
        <time>2017-07-11T17:34:32Z</time>
      </trkpt>
      <trkpt lat="43.61175" lon="6.95086">
        <ele>161.2000122</ele>
        <time>2017-07-11T17:34:37Z</time>
      </trkpt>
      <trkpt lat="43.61175" lon="6.95094">
        <ele>162</ele>
        <time>2017-07-11T17:34:40Z</time>
      </trkpt>
      <trkpt lat="43.61174" lon="6.95096">
        <ele>162.2000122</ele>
        <time>2017-07-11T17:34:41Z</time>
      </trkpt>
      <trkpt lat="43.61173" lon="6.9511">
        <ele>163.4000244</ele>
        <time>2017-07-11T17:34:46Z</time>
      </trkpt>
      <trkpt lat="43.6117" lon="6.95122">
        <ele>163.4000244</ele>
        <time>2017-07-11T17:34:51Z</time>
      </trkpt>
      <trkpt lat="43.6117" lon="6.95124">
        <ele>163.2000122</ele>
        <time>2017-07-11T17:34:52Z</time>
      </trkpt>
      <trkpt lat="43.61176" lon="6.95135">
        <ele>163.2000122</ele>
        <time>2017-07-11T17:34:57Z</time>
      </trkpt>
      <trkpt lat="43.61176" lon="6.95137">
        <ele>163.4000244</ele>
        <time>2017-07-11T17:34:58Z</time>
      </trkpt>
      <trkpt lat="43.61176" lon="6.95142">
        <ele>163.5999756</ele>
        <time>2017-07-11T17:35:00Z</time>
      </trkpt>
      <trkpt lat="43.61172" lon="6.95146">
        <ele>163.5999756</ele>
        <time>2017-07-11T17:35:02Z</time>
      </trkpt>
      <trkpt lat="43.61168" lon="6.9515">
        <ele>163.7999878</ele>
        <time>2017-07-11T17:35:05Z</time>
      </trkpt>
      <trkpt lat="43.61164" lon="6.95151">
        <ele>163.5999756</ele>
        <time>2017-07-11T17:35:08Z</time>
      </trkpt>
      <trkpt lat="43.61158" lon="6.95158">
        <ele>163.2000122</ele>
        <time>2017-07-11T17:35:13Z</time>
      </trkpt>
      <trkpt lat="43.61158" lon="6.9516">
        <ele>163</ele>
        <time>2017-07-11T17:35:14Z</time>
      </trkpt>
      <trkpt lat="43.61154" lon="6.95164">
        <ele>162.7999878</ele>
        <time>2017-07-11T17:35:17Z</time>
      </trkpt>
      <trkpt lat="43.61151" lon="6.95166">
        <ele>162.7999878</ele>
        <time>2017-07-11T17:35:19Z</time>
      </trkpt>
      <trkpt lat="43.6114" lon="6.95175">
        <ele>162.4000244</ele>
        <time>2017-07-11T17:35:24Z</time>
      </trkpt>
      <trkpt lat="43.61136" lon="6.9518">
        <ele>162.4000244</ele>
        <time>2017-07-11T17:35:26Z</time>
      </trkpt>
      <trkpt lat="43.61116" lon="6.95198">
        <ele>162.7999878</ele>
        <time>2017-07-11T17:35:34Z</time>
      </trkpt>
      <trkpt lat="43.61094" lon="6.95218">
        <ele>162</ele>
        <time>2017-07-11T17:35:41Z</time>
      </trkpt>
      <trkpt lat="43.61079" lon="6.95219">
        <ele>161.7999878</ele>
        <time>2017-07-11T17:35:44Z</time>
      </trkpt>
      <trkpt lat="43.61066" lon="6.95214">
        <ele>161.4000244</ele>
        <time>2017-07-11T17:35:46Z</time>
      </trkpt>
      <trkpt lat="43.61055" lon="6.95217">
        <ele>161.2000122</ele>
        <time>2017-07-11T17:35:48Z</time>
      </trkpt>
      <trkpt lat="43.61045" lon="6.95236">
        <ele>161.5999756</ele>
        <time>2017-07-11T17:35:51Z</time>
      </trkpt>
      <trkpt lat="43.61046" lon="6.95257">
        <ele>162.4000244</ele>
        <time>2017-07-11T17:35:54Z</time>
      </trkpt>
      <trkpt lat="43.61046" lon="6.95263">
        <ele>162.5999756</ele>
        <time>2017-07-11T17:35:55Z</time>
      </trkpt>
      <trkpt lat="43.61044" lon="6.95269">
        <ele>162.7999878</ele>
        <time>2017-07-11T17:35:57Z</time>
      </trkpt>
      <trkpt lat="43.61033" lon="6.95278">
        <ele>162.7999878</ele>
        <time>2017-07-11T17:36:00Z</time>
      </trkpt>
      <trkpt lat="43.61028" lon="6.95282">
        <ele>162.5999756</ele>
        <time>2017-07-11T17:36:01Z</time>
      </trkpt>
      <trkpt lat="43.61024" lon="6.95287">
        <ele>162.5999756</ele>
        <time>2017-07-11T17:36:02Z</time>
      </trkpt>
      <trkpt lat="43.61023" lon="6.95297">
        <ele>162.4000244</ele>
        <time>2017-07-11T17:36:04Z</time>
      </trkpt>
      <trkpt lat="43.61028" lon="6.95303">
        <ele>161.7999878</ele>
        <time>2017-07-11T17:36:07Z</time>
      </trkpt>
      <trkpt lat="43.61028" lon="6.95305">
        <ele>161.5999756</ele>
        <time>2017-07-11T17:36:08Z</time>
      </trkpt>
      <trkpt lat="43.61028" lon="6.95305">
        <ele>161.5999756</ele>
        <time>2017-07-11T17:36:11Z</time>
      </trkpt>
      <trkpt lat="43.61028" lon="6.95305">
        <ele>161.5999756</ele>
        <time>2017-07-11T17:36:20Z</time>
      </trkpt>
      <trkpt lat="43.61029" lon="6.95306">
        <ele>161.4000244</ele>
        <time>2017-07-11T17:36:21Z</time>
      </trkpt>
      <trkpt lat="43.61032" lon="6.95309">
        <ele>161.4000244</ele>
        <time>2017-07-11T17:36:24Z</time>
      </trkpt>
      <trkpt lat="43.61033" lon="6.95309">
        <ele>161.4000244</ele>
        <time>2017-07-11T17:36:25Z</time>
      </trkpt>
      <trkpt lat="43.61036" lon="6.95307">
        <ele>161.2000122</ele>
        <time>2017-07-11T17:36:28Z</time>
      </trkpt>
      <trkpt lat="43.61037" lon="6.95308">
        <ele>161</ele>
        <time>2017-07-11T17:36:29Z</time>
      </trkpt>
      <trkpt lat="43.61038" lon="6.95308">
        <ele>160.7999878</ele>
        <time>2017-07-11T17:36:30Z</time>
      </trkpt>
      <trkpt lat="43.6104" lon="6.95307">
        <ele>160.4000244</ele>
        <time>2017-07-11T17:36:32Z</time>
      </trkpt>
      <trkpt lat="43.6104" lon="6.95307">
        <ele>160.4000244</ele>
        <time>2017-07-11T17:36:36Z</time>
      </trkpt>
      <trkpt lat="43.6104" lon="6.95307">
        <ele>160.4000244</ele>
        <time>2017-07-11T17:36:44Z</time>
      </trkpt>
    </trkseg>
  </trk>
</gpx>